[[{"header":{"parameterUnit":"m.s-1","parameterCategory":1,"la1":31.0,"la2":29.5877,"lo1":-88.7671,"lo2":-86.6584,"dy":0.0162,"dx":0.0185,"nx":115,"ny":88,"refTime":"2023-09-06T00:00:00:Z","depth":0,"parameterNumber":2,"parameterNumberName":"U-component_of_WINDS"},"data":[0.0,0.0,0.0,0.0,0.0,0.0,0.0,0.0,0.0,0.0,0.0,0.0,0.0,0.0,0.0,0.0,0.0,0.0,0.0,0.0,0.0,0.0,0.0,0.0,0.0,0.0,0.0,0.0,0.0,0.0,0.0,0.0,0.0,0.0,0.0,0.0,0.0,0.0,0.0,0.0,0.0,0.0,0.0,0.0,0.0,0.0,0.0,0.0,0.0,0.0,0.0,0.0,0.0,0.0,0.0,0.0,0.0,0.0,0.0,0.0,0.0,0.0,0.0,0.0,0.0,0.0,0.0,0.0,0.0,0.0,0.0,0.0,0.0,0.0,0.0,0.0,0.0,0.0,0.0,0.0,0.0,0.0,0.0,0.0,0.0,0.0,0.0,0.0,0.0,0.0,0.0,0.0,0.0,0.0,0.0,0.0,0.0,0.0,0.0,0.0,0.0,0.0,0.0,0.0,0.0,0.0,0.0,0.0,0.0,0.0,0.0,0.0,0.0,0.0,0.0,0.0,0.0,0.0,0.0,0.0,0.0,0.0,0.0,0.0,0.0,0.0,0.0,0.0,0.0,0.0,0.0,0.0,0.0,0.0,0.0,0.0,0.0,0.0,0.0,0.0,0.0,0.0,0.0,0.0,0.0,0.0,0.0,0.0,0.0,0.0,0.0,0.0,0.0,0.0,0.0,0.0,0.0,0.0,0.0,0.0,0.0,0.0,0.0,0.0,0.0,0.0,0.0,0.0,0.0,0.0,0.0,0.0,0.0,0.0,0.0,0.0,0.0,0.0,0.0,0.0,0.0,0.0,0.0,0.0,0.0,0.0,0.0,0.0,0.0,0.0,0.0,0.0,0.0,0.0,0.0,0.0,0.0,0.0,0.0,0.0,0.0,0.0,0.0,0.0,0.0,0.0,0.0,0.0,0.0,0.0,0.0,0.0,0.0,0.0,0.0,0.0,0.0,0.0,0.0,0.0,0.0,0.0,0.0,0.0,0.0,0.0,0.0,0.0,0.0,0.0,0.0,0.0,0.0,0.0,0.0,0.0,0.0,0.0,0.0,0.0,0.0,0.0,0.0,0.0,0.0,0.0,0.0,0.0,0.0,0.0,0.0,0.0,0.0,0.0,0.0,0.0,0.0,0.0,0.0,0.0,0.0,0.0,0.0,0.0,0.0,0.0,0.0,0.0,0.0,0.0,0.0,0.0,0.0,0.0,0.0,0.0,0.0,0.0,0.0,0.0,0.0,0.0,0.0,0.0,0.0,0.0,0.0,0.0,0.0,0.0,0.0,0.0,0.0,0.0,0.0,0.0,0.0,0.0,0.0,0.0,0.0,0.0,0.0,0.0,0.0,0.0,0.0,0.0,0.0,0.0,0.0,0.0,0.0,0.0,0.0,0.0,0.0,0.0,0.0,0.0,0.0,0.0,0.0,0.0,0.0,0.0,0.0,0.0,0.0,0.0,0.0,0.0,0.0,0.0,0.0,0.0,0.0,0.0,0.0,0.0,0.0,0.0,0.0,0.0,0.0,0.0,0.0,0.0,0.0,0.0,0.0,0.0,0.0,0.0,0.0,0.0,0.0,0.0,0.0,0.0,0.0,0.0,0.0,0.0,0.0,0.0,0.0,0.0,0.0,0.0,0.0,0.0,0.0,0.0,0.0,0.0,0.0,0.0,0.0,0.0,0.0,0.0,0.0,0.0,0.0,0.0,0.0,0.0,0.0,0.0,0.0,0.0,0.0,0.0,0.0,0.0,0.0,0.0,0.0,0.0,0.0,0.0,0.0,0.0,0.0,0.0,0.0,0.0,0.0,0.0,0.0,0.0,0.0,0.0,0.0,0.0,0.0,0.0,0.0,0.0,0.0,0.0,0.0,0.0,0.0,0.0,0.0,0.0,0.0,0.0,0.0,0.0,0.0,0.0,0.0,0.0,0.0,0.0,0.0,0.0,0.0,0.0,0.0,0.0,0.0,0.0,0.0,0.0,0.0,0.0,0.0,0.0,0.0,0.0,0.0,0.0,0.0,0.0,0.0,0.0,0.0,0.0,0.0,0.0,0.0,0.0,0.0,0.0,0.0,0.0,0.0,0.0,0.0,0.0,0.0,0.0,0.0,0.0,0.0,0.0,0.0,0.0,0.0,0.0,0.0,0.0,0.0,0.0,0.0,0.0,0.0,0.0,0.0,0.0,0.0,0.0,0.0,0.0,0.0,0.0,0.0,0.0,0.0,0.0,0.0,0.0,0.0,0.0,0.0,0.0,0.0,0.0,0.0,0.0,0.0,0.0,0.0,0.0,0.0,0.0,0.0,0.0,0.0,0.0,0.0,0.0,0.0,0.0,0.0,0.0,0.0,0.0,0.0,0.0,0.0,0.0,0.0,0.0,0.0,0.0,0.0,0.0,0.0,0.0,0.0,0.0,0.0,0.0,0.0,0.0,0.0,0.0,0.0,0.0,0.0,0.0,0.0,0.0,0.0,0.0,0.0,0.0,0.0,0.0,0.0,0.0,0.0,0.0,0.0,0.0,0.0,0.0,0.0,0.0,0.0,0.0,0.0,0.0,0.0,0.0,0.0,0.0,0.0,0.0,0.0,0.0,0.0,0.0,0.0,0.0,0.0,0.0,0.0,0.0,0.0,0.0,0.0,0.0,0.0,0.0,0.0,0.0,0.0,0.0,0.0,0.0,0.0,0.0,0.0,0.0,0.0,0.0,0.0,0.0,0.0,0.0,0.0,0.0,0.0,0.0,0.0,0.0,0.0,0.0,0.0,0.0,0.0,0.0,0.0,0.0,0.0,0.0,0.0,0.0,0.0,0.0,0.0,0.0,0.0,0.0,0.0,0.0,0.0,0.0,0.0,0.0,0.0,0.0,0.0,0.0,0.0,0.0,0.0,0.0,0.0,0.0,0.0,0.0,0.0,0.0,0.0,0.0,0.0,0.0,0.0,0.0,0.0,0.0,0.0,0.0,0.0,0.0,0.0,0.0,0.0,0.0,0.0,0.0,0.0,0.0,0.0,0.0,0.0,0.0,0.0,0.0,0.0,0.0,0.0,0.0,0.0,0.0,0.0,0.0,0.0,0.0,0.0,0.0,0.0,0.0,0.0,0.0,0.0,0.0,0.0,0.0,0.0,0.0,0.0,0.0,0.0,0.0,0.0,0.0,0.0,0.0,0.0,0.0,0.0,0.0,0.0,0.0,0.0,0.0,0.0,0.0,0.0,0.0,0.0,0.0,0.0,0.0,0.0,0.0,0.0,0.0,0.0,0.0,0.0,0.0,0.0,0.0,0.0,0.0,0.0,0.0,0.0,0.0,0.0,0.0,0.0,0.0,0.0,0.0,0.0,0.0,0.0,0.0,0.0,0.0,0.0,0.0,0.0,0.0,0.0,0.0,0.0,0.0,0.0,0.0,0.0,0.0,0.0,0.0,0.0,0.0,0.0,0.0,0.0,0.0,0.0,0.0,0.0,0.0,0.0,0.0,0.0,0.0,0.0,0.0,0.0,0.0,0.0,0.0,0.0,0.0,0.0,0.0,0.0,0.0,0.0,0.0,0.0,0.0,0.0,0.0,0.0,0.0,0.0,0.0,0.0,0.0,0.0,0.0,0.0,0.0,0.0,0.0,0.0,0.0,0.0,0.0,0.0,0.0,0.0,0.0,0.0,0.0,0.0,0.0,0.0,0.0,0.0,0.0,0.0,0.0,0.0,0.0,0.0,0.0,0.0,0.0,0.0,0.0,0.0,0.0,0.0,0.0,0.0,0.0,0.0,0.0,0.0,0.0,0.0,0.0,0.0,0.0,0.0,0.0,0.0,0.0,0.0,0.0,0.0,0.0,0.0,0.0,0.0,0.0,0.0,0.0,0.0,0.0,0.0,0.0,0.0,0.0,0.0,0.0,0.0,0.0,0.0,0.0,0.0,0.0,0.0,0.0,0.0,0.0,0.0,0.0,0.0,0.0,0.0,0.0,0.0,0.0,0.0,0.0,0.0,0.0,0.0,0.0,0.0,0.0,0.0,0.0,0.0,0.0,0.0,0.0,0.0,0.0,0.0,0.0,0.0,0.0,0.0,0.0,0.0,0.0,0.0,0.0,0.0,0.0,0.0,0.0,0.0,0.0,0.0,0.0,0.0,0.0,0.0,0.0,0.0,0.0,0.0,0.0,0.0,0.0,0.0,0.0,0.0,0.0,0.0,0.0,0.0,0.0,0.0,0.0,0.0,0.0,0.0,0.0,0.0,0.0,0.0,0.0,0.0,0.0,0.0,0.0,0.0,0.0,0.1364,0.0,0.0,0.0,0.0,0.0,0.0,0.0,0.0,0.0,0.0,0.0,0.0,0.0,0.0,0.0,0.0,0.0,0.0,0.0,0.0,0.0,0.0,0.0,0.0,0.0,0.0,0.0,0.0,0.0,0.0,0.0,0.0,0.0,0.0,0.0,0.0,0.0,0.0,0.0,0.0,0.0,0.0,0.0,0.0,0.0,0.0,0.0,0.0,0.0,0.0,0.0,0.0,0.0,0.0,0.0,0.0,0.0,0.0,0.0,0.0,0.0,0.0,0.0,0.0,0.0,0.0,0.0,0.0,0.0,0.0,0.0,0.0,0.0,0.0,0.0,0.0,0.0,0.0,0.0,0.0,0.0,0.0,0.0,0.0,0.0,0.0,0.0,0.0,0.0,0.0,0.0,0.0,0.0,0.0,0.0,0.0,0.0,0.0,0.0,0.0,0.0,0.0,0.0,0.0,0.0,0.0,0.0,0.0,0.0,0.0,0.2678,0.1863,0.1346,0.0876,0.0503,0.0,0.0,0.0,0.0,0.0,0.0,0.0,0.0,0.0,0.0,0.0,0.0,0.0,0.0,0.0,0.0,0.0,0.0,0.0,0.0,0.0,0.0,0.0,0.0,0.0,0.0,0.0,0.0,0.0,0.0,0.0,0.0,0.0,0.0,0.0,0.0,0.0,0.0,0.0,0.0,0.0,0.0,0.0,0.0,0.0,0.0,0.0,0.0,0.0,0.0,0.0,0.0,0.0,0.0,0.0,0.0,0.0,0.0,0.0,0.0,0.0,0.0,0.0,0.0,0.0,0.0,0.0,0.0,0.0,0.0,0.0,0.0,0.0,0.0,0.0,0.0,0.0,0.0,0.0,0.0,0.0,0.0,0.0,0.0,0.0,0.0,0.0,0.0,0.0,0.0,0.0,0.0,0.0,0.0,0.0,0.0,0.0,0.0,0.0,0.0,0.0,0.0,0.0,0.0,0.0,0.0,0.0,0.0,0.0,0.0,0.0,0.0,0.0123,-0.0428,-0.0773,0.0,0.0,0.0,0.0,0.0,0.0,0.0,0.0,0.0,0.0,0.0,0.0,0.0,0.0,0.0,0.0,0.0,0.0,0.0,0.0,0.0,0.0,0.0,0.0,0.0,0.0,0.0,0.0,0.0,0.0,0.0,0.0,0.0,0.0,0.0,0.0,0.0,0.0,0.0,0.0,0.0,0.0,0.0,0.0,0.0,0.0,0.0,0.0,0.0,0.0,0.0,0.0,0.0,0.0,0.0,0.0,0.0,0.0,0.0,0.0,0.0,0.0,0.0,0.0,0.0,0.0,0.0,0.0,0.0,0.0,0.0,0.0,0.0,0.0,0.0,0.0,0.0,0.0,0.0,0.0,0.0,0.0,0.0,0.0,0.0,0.0,0.0,0.0,0.0,0.0,0.0,0.0,0.0,0.0,0.0,0.0,0.0,0.0,0.0,0.0,0.0,0.0,0.0,0.0,0.0,0.0,0.0,0.0,0.0,0.0,0.0307,-0.0321,-0.1212,0.0,-0.2542,0.0,0.0,0.0,0.0,0.0,0.0,0.0,0.0,0.0,0.0,0.0,0.0,0.0,0.0,0.0,0.0,0.0,0.0,0.0,0.0,0.0,0.0,0.0,0.0,0.0,0.0,0.0,0.0,0.0,0.0,0.0,0.0,0.0,0.0,0.0,0.0,0.0,0.0,0.0,0.0,0.0,0.0,0.0,0.0,0.0,0.0,0.0,0.0,0.0,0.0,0.0,0.0,0.0,0.0,0.0,0.0,0.0,0.0,0.0,0.0,0.0,0.0,0.0,0.0,0.0,0.0,0.0,0.0,0.0,0.0,0.0,0.0,0.0,0.0,0.0,0.0,0.0,0.0,0.0,0.0,0.0,0.0,0.0,0.0,0.0,0.0,0.0,0.0,0.0,0.0,0.0,0.0,0.0,0.0,0.0,0.0,0.0,0.0,0.0,0.0,0.0,0.0,0.0,0.0,0.0,0.0,0.0,0.0,0.0,0.0,-0.1379,-0.2594,-0.2714,-0.2908,0.0,0.0,0.0,0.0,0.0,0.0,0.0,0.0,0.0,0.0,0.0,0.0,0.0,0.0,0.0,0.0,0.0,0.0,0.0,0.0,0.0,0.0,0.0,0.0,0.0,0.0,0.0,0.0,0.0,0.0,0.0,0.0,0.0,0.0,0.0,0.0,0.0,0.0,0.0,0.0,0.0,0.0,0.0,0.0,0.0,0.0,0.0,0.0,0.0,0.0,0.0,0.0,0.0,0.0,0.0,0.0,0.0,0.0,0.0,0.0,0.0,0.0,0.0,0.0,0.0,0.0,0.0,0.0,0.0,0.0,0.0,0.0,0.0,0.0,0.0,0.0,0.0,0.0,0.0,0.0,0.0,0.0,0.0,0.0,0.0,0.0,0.0,0.0,0.0,0.0,0.0,0.0,0.0,0.0,0.0,0.0,0.0,0.0,0.0,0.0,0.0,0.0,0.0,0.0,0.0,0.0,0.0,0.0,0.0,0.0,-0.2075,-0.2896,-0.4151,-0.4036,-0.3857,-0.3736,0.0,0.0,0.0,0.0,0.0,0.0,0.0,0.0,0.0,0.0,0.0,0.0,0.0,0.0,0.0,0.0,0.0,0.0,0.0,0.0,0.0,0.0,0.0,0.0,0.0,0.0,0.0,0.0,0.0,0.0,0.0,0.0,0.0,0.0,0.0,0.0,0.0,0.0,0.0,0.0,0.0,0.0,0.0,0.0,0.0,0.0,0.0,0.0,0.0,0.0,0.0,0.0,0.0,0.0,0.0,0.0,0.0,0.0,0.0,0.0,0.0,0.0,0.0,0.0,0.0,0.0,0.0,0.0,0.0,0.0,0.0,0.0,0.0,0.0,0.0,0.0,0.0,0.0,0.0,0.0,0.0,0.0,0.0,0.0,0.0,0.0,0.0,0.0,0.0,0.0,0.0,0.0,0.0,0.0,0.0,0.0,0.0,0.0,0.0,0.0,0.0,0.0,0.0,0.0,0.0,0.0,0.0,0.0,-0.3547,-0.3789,-0.412,-0.4684,-0.5203,-0.5061,0.0,0.0,0.0,0.0,0.0,0.0,0.0,0.0,0.0,0.0,0.0,0.0,0.0,0.0,0.0,0.0,0.0,0.0,0.0,0.0,0.0,0.0,0.0,0.0,0.0,0.0,0.0,0.0,0.0,0.0,0.0,0.0,0.0,0.0,0.0,0.0,0.0,0.0,0.0,0.0,0.0,0.0,0.0,0.0,0.0,0.0,0.0,0.0,0.0,0.0,0.0,0.0,0.0,0.0,0.0,0.0,0.0,0.0,0.0,0.0,0.0,0.0,0.0,0.0,0.0,0.0,0.0,0.0,0.0,0.0,0.0,0.0,0.0,0.0,0.0,0.0,0.0,0.0,0.0,0.0,0.0,0.0,0.0,0.0,0.0,0.0,0.0,0.0,0.0,0.0,0.0,0.0,0.0,0.0,0.0,0.0,0.0,0.0,0.0,0.0,0.0,0.0,0.0,0.0,0.0,0.0,0.0,0.0,0.0,-0.3051,-0.4078,-0.4831,-0.529,-0.5112,-0.4891,0.0,0.0,0.0,0.0,0.0,0.0,0.0,0.0,0.0,0.0,0.0,0.0,0.0,0.0,0.0,0.0,0.0,0.0,0.0,0.0,0.0,0.0,0.0,0.0,0.0,0.0,0.0,0.0,0.0,0.0,0.0,0.0,0.0,0.0,0.0,0.0,0.0,0.0,0.0,0.0,0.0,0.0,0.0,0.0,0.0,0.0,0.0,0.0,0.0,0.0,0.0,0.0,0.0,0.0,0.0,0.0,0.0,0.0,0.0,0.0,0.0,0.0,0.0,0.0,0.0,0.0,0.0,0.0,0.0,0.0,0.0,0.0,0.0,0.0,0.0,0.0,0.0,0.0,0.0,0.0,0.0,0.0,0.0,0.0,0.0,0.0,0.0,0.0,0.0,0.0,0.0,0.0,0.0,0.0,0.0,0.0,0.0,0.0,0.0,0.0,0.0,0.0,0.0,0.0,0.0,0.0,0.0,0.0,0.0,-0.3063,0.0,-0.529,-0.5305,-0.5094,-0.4847,0.0,0.0,0.0,0.0,0.0,0.0,0.0,0.0,0.0,0.0,0.0,0.0,0.0,0.0,0.0,0.0,0.0,0.0,0.0,0.0,0.0,0.0,0.0,0.0,0.0,0.0,0.0,0.0,0.0,0.0,0.0,0.0,0.0,0.0,0.0,0.0,0.0,0.0,0.0,0.0,0.0,0.0,0.0,0.0,0.0,0.0,0.0,0.0,0.0,0.0,0.0,0.0,0.0,0.0,0.0,0.0,0.0,0.0,0.0,0.0,0.0,0.0,0.0,0.0,0.0,0.0,0.0,0.0,0.0,0.0,0.0,0.0,0.0,0.0,0.0,0.0,0.0,0.0,0.0,0.0,0.0,0.0,0.0,0.0,0.0,0.0,0.0,0.0,0.0,0.0,0.0,0.0,0.0,0.0,0.0,0.0,0.0,0.0,0.0,0.0,0.0,0.0,0.0,0.0,0.0,0.0,0.0,0.0,-0.2533,-0.3892,-0.5257,-0.5539,-0.4628,-0.5351,-0.506,0.0,0.0,0.0,0.0,0.0,0.0,0.0,0.0,0.0,0.0,0.0,0.0,0.0,0.0,0.0,0.0,0.0,0.0,0.0,0.0,0.0,0.0,0.0,0.0,0.0,0.0,0.0,0.0,0.0,0.0,0.0,0.0,0.0,0.0,0.0,0.0,0.0,0.0,0.0,0.0,0.0,0.0,0.0,0.0,0.0,0.0,0.0,0.0,0.0,0.0,0.0,0.0,0.0,0.0,0.0,0.0,0.0,0.0,0.0,0.0,0.0,0.0,0.0,0.0,0.0,0.0,0.0,0.0,0.0,0.0,0.0,0.0,0.0,0.0,0.0,0.0,0.0,0.0,0.0,0.0,0.0,0.0,0.0,0.0,0.0,0.0,0.0,0.0,0.0,0.0,0.0,0.0,0.0,0.0,0.0,0.0,0.0,0.0,0.0,0.0,0.0,0.0,0.0,0.0,0.0,0.0,0.0,0.0,0.0,-0.4238,-0.5305,-0.6041,-0.6401,-0.5651,-0.5242,0.0,0.0,0.0,0.0,0.0,0.0,0.0,0.0,0.0,0.0,0.0,0.0,0.0,0.0,0.0,0.0,0.0,0.0,0.0,0.0,0.0,0.0,0.0,0.0,0.0,0.0,0.0,0.0,0.0,0.0,0.0,0.0,0.0,0.0,0.0,0.0,0.0,0.0,0.0,0.0,0.0,0.0,0.0,0.0,0.0,0.0,0.0,0.0,0.0,0.0,0.0,0.0,0.0,0.0,0.0,0.0,0.0,0.0,0.0,0.0,0.0,0.0,0.0,0.0,0.0,0.0,0.0,0.0,0.0,0.0,0.0,0.0,0.0,0.0,0.0,0.0,0.0,0.0,0.0,0.0,0.0,0.0,0.0,0.0,0.0,0.0,0.0,0.0,0.0,0.0,0.0,0.0,0.0,0.0,0.0,0.0,0.0,0.0,0.0,0.0,0.0,0.0,0.0,0.0,0.0,0.0,0.0,0.0,0.0,-0.5146,-0.5864,-0.6425,-0.6772,-0.5855,-0.5363,-0.5384,0.0,0.0,0.0,0.0,0.0,0.0,0.0,0.0,0.0,0.0,0.0,0.0,0.0,0.0,0.0,0.0,0.0,0.0,0.0,0.0,0.0,0.0,0.0,0.0,0.0,0.0,0.0,0.0,0.0,0.0,0.0,0.0,0.0,0.0,0.0,0.0,0.0,0.0,0.0,0.0,0.0,0.0,0.0,0.0,0.0,0.0,0.0,0.0,0.0,0.0,0.0,0.0,0.0,0.0,0.0,0.0,0.0,0.0,0.0,0.0,0.0,0.0,0.0,0.0,0.0,0.0,0.0,0.0,0.0,0.0,0.0,0.0,0.0,0.0,0.0,0.0,0.0,0.0,0.0,0.0,0.0,0.0,0.0,0.0,0.0,0.0,0.0,0.0,0.0,0.0,0.0,0.0,0.0,0.0,0.0,0.0,0.0,0.0,0.0,0.0,0.0,0.0,0.0,0.0,0.0,0.0,0.0,0.0,-0.6349,-0.6855,-0.678,-0.6106,-0.5993,-0.5504,0.0,0.0,0.0,0.0,0.0,0.0,0.0,0.0,0.0,0.0,0.0,0.0,0.0,0.0,0.0,0.0,0.0,0.0,0.0,0.0,0.0,0.0,0.0,0.0,0.0,0.0,0.0,0.0,0.0,0.0,0.0,0.0,0.0,0.0,0.0,0.0,0.0,0.0,0.0,0.0,0.0,0.0,0.0,0.0,0.0,0.0,0.0,0.0,0.0,0.0,0.0,0.0,0.0,0.0,0.0,0.0,0.0,0.0,0.0,0.0,0.0,0.0,0.0,0.0,0.0,0.0,0.0,0.0,0.0,0.0,0.0,0.0,0.0,0.0,0.0,0.0,0.0,0.0,0.0,0.0,0.0,0.0,0.0,0.0,0.0,0.0,0.0,0.0,0.0,0.0,0.0,0.0,0.0,0.0,0.0,0.0,0.0,0.0,0.0,0.0,0.0,0.0,0.0,0.0,0.0,0.0,0.0,0.0,0.0,-0.6215,-0.7426,-0.7966,-0.7775,-0.6767,-0.6116,0.0,0.0,0.0,0.0,0.0,0.0,0.0,0.0,0.0,0.0,0.0,0.0,0.0,0.0,0.0,0.0,0.0,0.0,0.0,0.0,0.0,0.0,0.0,0.0,0.0,0.0,0.0,0.0,0.0,0.0,0.0,0.0,0.0,0.0,0.0,0.0,0.0,0.0,0.0,0.0,0.0,0.0,0.0,0.0,0.0,0.0,0.0,0.0,0.0,0.0,0.0,0.0,0.0,0.0,0.0,0.0,0.0,0.0,0.0,0.0,0.0,0.0,0.0,0.0,0.0,0.0,0.0,0.0,0.0,0.0,0.0,0.0,0.0,0.0,0.0,0.0,0.0,0.0,0.0,0.0,0.0,0.0,0.0,0.0,0.0,0.0,0.0,0.0,0.0,0.0,0.0,0.0,0.0,0.0,0.0,0.0,0.0,0.0,0.0,0.0,0.0,0.0,0.0,0.0,0.0,0.0,0.0,0.0,-0.6356,-0.6853,-0.7979,-0.8602,-0.8595,-0.7443,-0.6589,0.0,0.0,0.0,0.0,0.0,0.0,0.0,0.0,0.0,0.0,0.0,0.0,0.0,0.0,0.0,0.0,0.0,0.0,0.0,0.0,0.0,0.0,0.0,0.0,0.0,0.0,0.0,0.0,0.0,0.0,0.0,0.0,0.0,0.0,0.0,0.0,0.0,0.0,0.0,0.0,0.0,0.0,0.0,0.0,0.0,0.0,0.0,0.0,0.0,0.0,0.0,0.0,0.0,0.0,0.0,0.0,0.0,0.0,0.0,0.0,0.0,0.0,0.0,0.0,0.0,0.0,0.0,0.0,0.0,0.0,0.0,0.0,0.0,0.0,0.0,0.0,0.0,0.0,0.0,0.0,0.0,0.0,0.0,0.0,0.0,0.0,0.0,0.0,0.0,0.0,0.0,0.0,0.0,0.0,0.0,0.0,0.0,0.0,0.0,0.0,0.0,0.0,0.0,0.0,0.0,0.0,0.0,0.0,-0.6732,-0.7814,-0.8453,-0.8804,-0.8784,-0.7969,-0.7016,0.0,0.0,0.0,0.0,0.0,0.0,0.0,0.0,0.0,0.0,0.0,0.0,0.0,0.0,0.0,0.0,0.0,0.0,0.0,0.0,0.0,0.0,0.0,0.0,0.0,0.0,0.0,0.0,0.0,0.0,0.0,0.0,0.0,0.0,0.0,0.0,0.0,0.0,0.0,0.0,0.0,0.0,0.0,0.0,0.0,0.0,0.0,0.0,0.0,0.0,0.0,0.0,0.0,0.0,0.0,0.0,0.0,0.0,0.0,0.0,0.0,0.0,0.0,0.0,0.0,0.0,0.0,0.0,0.0,0.0,0.0,0.0,0.0,0.0,0.0,0.0,0.0,0.0,0.0,0.0,0.0,0.0,0.0,0.0,0.0,0.0,0.0,0.0,0.0,0.0,0.0,0.0,0.0,0.0,0.0,0.0,0.0,0.0,0.0,0.0,0.0,0.0,0.0,0.0,0.0,0.0,0.0,0.0,-0.716,-0.7344,-0.8293,-0.8804,-0.8804,-0.817,-0.7514,0.0,0.0,0.0,0.0,0.0,0.0,0.0,0.0,0.0,0.0,0.0,0.0,0.0,0.0,0.0,0.0,0.0,0.0,0.0,0.0,0.0,0.0,0.0,0.0,0.0,0.0,0.0,0.0,0.0,0.0,0.0,0.0,0.0,0.0,0.0,0.0,0.0,0.0,0.0,0.0,0.0,0.0,0.0,0.0,0.0,0.0,0.0,0.0,-0.4506,0.0,0.0,0.0,0.0,0.0,0.0,0.0,0.0,0.0,0.0,0.0,0.0,0.0,0.0,0.0,0.0,0.0,0.0,0.0,0.0,0.0,0.0,0.0,0.0,0.0,0.0,0.0,0.0,0.0,0.0,0.0,0.0,0.0,0.0,0.0,0.0,0.0,0.0,0.0,0.0,0.0,0.0,0.0,0.0,0.0,0.0,0.0,0.0,0.0,0.0,0.0,0.0,0.0,0.0,0.0,0.0,0.0,0.0,0.0,-0.7179,-0.7615,-0.8358,-0.8752,-0.8791,-0.8504,-0.7929,0.0,0.0,0.0,0.0,0.0,0.0,0.0,0.0,0.0,0.0,0.0,0.0,0.0,0.0,0.0,0.0,0.0,0.0,0.0,0.0,0.0,0.0,0.0,0.0,0.0,0.0,0.0,0.0,0.0,0.0,0.0,0.0,0.0,0.0,0.0,0.0,0.0,0.0,0.0,0.0,0.0,0.0,0.0,0.0,0.0,0.0,0.0,0.0,0.0,0.0,0.0,0.0,0.0,0.0,0.0,0.0,0.0,0.0,0.0,0.0,0.0,0.0,0.0,0.0,0.0,0.0,0.0,0.0,0.0,0.0,0.0,0.0,0.0,0.0,0.0,0.0,0.0,0.0,0.0,0.0,0.0,0.0,0.0,0.0,0.0,0.0,0.0,0.0,0.0,0.0,0.0,0.0,0.0,0.0,0.0,0.0,0.0,0.0,0.0,0.0,0.0,0.0,0.0,0.0,0.0,0.0,0.0,-0.6213,-0.7083,-0.8068,-0.8449,-0.8685,-0.8752,-0.8752,-0.8248,-0.7208,0.0,0.0,0.0,0.0,0.0,0.0,0.0,0.0,0.0,0.0,0.0,0.0,0.0,0.0,0.0,0.0,0.0,0.0,0.0,0.0,0.0,0.0,0.0,0.0,0.0,0.0,0.0,0.0,0.0,0.0,0.0,0.0,0.0,0.0,0.0,0.0,0.0,0.0,-0.3049,-0.3695,0.0,0.0,0.0,0.0,0.0,0.0,0.0,0.0,-0.5469,0.0,0.0,0.0,0.0,0.0,0.0,0.0,0.0,0.0,0.0,0.0,0.0,0.0,0.0,0.0,0.0,0.0,0.0,0.0,0.0,0.0,0.0,0.0,0.0,0.0,0.0,0.0,0.0,0.0,0.0,0.0,0.0,0.0,0.0,0.0,0.0,0.0,0.0,0.0,0.0,0.0,0.0,0.0,0.0,0.0,0.0,0.0,0.0,0.0,0.0,0.0,0.0,0.0,0.0,0.0,0.0,-0.6191,-0.6464,-0.7086,-0.8174,-0.8448,-0.8626,-0.8626,-0.8633,-0.8242,-0.7395,0.0,0.0,0.0,0.0,0.0,0.0,0.0,0.0,0.0,0.0,0.0,0.0,0.0,0.0,0.0,0.0,0.0,0.0,0.0,0.0,0.0,0.0,0.0,0.0,0.0,0.0,0.0,0.0,0.0,0.0,0.0,0.0,0.0,0.0,0.0,0.0,0.0,0.0,0.0,-0.3678,-0.3943,0.0,0.0,0.0,0.0,0.0,0.0,0.0,0.0,-0.5309,0.0,0.0,0.0,0.0,0.0,0.0,0.0,0.0,0.0,0.0,0.0,0.0,0.0,0.0,0.0,0.0,0.0,0.0,0.0,0.0,0.0,0.0,0.0,0.0,0.0,0.0,0.0,0.0,0.0,0.0,0.0,0.0,0.0,0.0,0.0,0.0,0.0,0.0,0.0,0.0,0.0,0.0,0.0,0.0,0.0,0.0,0.0,0.0,0.0,0.0,0.0,0.0,0.0,0.0,0.0,-0.5726,-0.652,-0.7296,-0.8013,-0.8262,-0.8421,-0.8514,-0.8093,-0.7713,0.0,0.0,0.0,0.0,0.0,0.0,0.0,0.0,0.0,0.0,0.0,0.0,0.0,0.0,0.0,0.0,0.0,0.0,0.0,0.0,0.0,0.0,0.0,0.0,0.0,0.0,0.0,0.0,0.0,0.0,0.0,0.0,0.0,0.0,0.0,0.0,0.0,0.0,0.0,0.0,-0.3655,-0.3851,-0.4118,0.0,0.0,0.0,0.0,0.0,0.0,-0.5493,-0.5427,0.0,0.0,0.0,0.0,0.0,0.0,0.0,0.0,0.0,0.0,0.0,0.0,0.0,0.0,0.0,0.0,0.0,0.0,0.0,0.0,0.0,0.0,0.0,0.0,0.0,0.0,0.0,0.0,0.0,0.0,0.0,0.0,0.0,0.0,0.0,0.0,0.0,0.0,0.0,0.0,0.0,0.0,0.0,0.0,0.0,0.0,0.0,0.0,0.0,0.0,0.0,0.0,0.0,0.0,0.0,-0.5282,-0.6445,-0.7346,-0.7847,-0.8109,-0.8275,-0.8362,-0.7662,-0.7238,0.0,0.0,0.0,0.0,0.0,0.0,0.0,0.0,0.0,0.0,0.0,0.0,0.0,0.0,0.0,0.0,0.0,0.0,0.0,0.0,0.0,0.0,0.0,0.0,0.0,0.0,0.0,0.0,0.0,0.0,0.0,0.0,0.0,0.0,0.0,0.0,0.0,0.0,0.0,0.0,0.0,-0.3962,-0.4396,-0.4737,0.0,0.0,0.0,0.0,-0.6098,-0.5801,0.0,0.0,0.0,0.0,0.0,0.0,0.0,0.0,0.0,0.0,0.0,0.0,0.0,0.0,0.0,0.0,0.0,0.0,0.0,0.0,0.0,0.0,0.0,0.0,0.0,0.0,0.0,0.0,0.0,0.0,0.0,0.0,0.0,0.0,0.0,0.0,0.0,0.0,0.0,0.0,0.0,0.0,0.0,0.0,0.0,0.0,0.0,0.0,0.0,0.0,0.0,0.0,0.0,0.0,0.0,0.0,-0.5701,-0.6233,-0.6941,-0.7835,-0.8109,-0.8215,-0.8215,-0.7891,-0.7341,0.0,0.0,0.0,0.0,0.0,0.0,0.0,0.0,0.0,0.0,0.0,0.0,0.0,0.0,0.0,0.0,0.0,0.0,0.0,0.0,0.0,0.0,0.0,0.0,0.0,0.0,0.0,0.0,0.0,0.0,0.0,0.0,0.0,0.0,0.0,0.0,0.0,0.0,0.0,0.0,0.0,-0.4516,-0.4435,-0.5124,-0.5695,0.0,0.0,-0.6311,-0.6114,-0.619,0.0,0.0,0.0,0.0,0.0,0.0,0.0,0.0,0.0,0.0,0.0,0.0,0.0,0.0,0.0,0.0,0.0,0.0,0.0,0.0,0.0,0.0,0.0,0.0,0.0,0.0,0.0,0.0,0.0,0.0,0.0,0.0,0.0,0.0,0.0,0.0,0.0,0.0,0.0,0.0,0.0,0.0,0.0,0.0,0.0,0.0,0.0,0.0,0.0,0.0,0.0,0.0,0.0,0.0,0.0,-0.5215,-0.6018,-0.6569,-0.7188,-0.7871,-0.7955,-0.8062,-0.8002,-0.7358,-0.6817,0.0,0.0,0.0,0.0,0.0,0.0,0.0,0.0,0.0,0.0,0.0,0.0,0.0,0.0,0.0,0.0,0.0,0.0,0.0,0.0,0.0,0.0,0.0,0.0,0.0,0.0,0.0,0.0,0.0,0.0,0.0,0.0,0.0,0.0,0.0,0.0,0.0,0.0,0.0,0.0,0.0,0.0,-0.5256,-0.5734,0.0,0.0,0.0,-0.663,-0.652,0.0,0.0,0.0,0.0,0.0,0.0,0.0,0.0,0.0,0.0,0.0,0.0,0.0,0.0,0.0,0.0,0.0,0.0,0.0,0.0,0.0,0.0,0.0,0.0,0.0,0.0,0.0,0.0,0.0,0.0,0.0,0.0,0.0,0.0,0.0,0.0,0.0,0.0,0.0,0.0,0.0,0.0,0.0,0.0,0.0,0.0,0.0,0.0,0.0,0.0,0.0,0.0,0.0,0.0,0.0,0.0,0.0,-0.6186,-0.6837,-0.7412,-0.7883,-0.7901,-0.7901,-0.7889,-0.7049,0.0,0.0,0.0,0.0,0.0,0.0,0.0,0.0,0.0,0.0,0.0,0.0,0.0,0.0,0.0,0.0,0.0,0.0,0.0,0.0,0.0,0.0,0.0,0.0,0.0,0.0,0.0,-0.3691,0.0,0.0,0.0,0.0,0.0,0.0,0.0,0.0,0.0,0.0,0.0,0.0,0.0,0.0,-0.5135,-0.6108,-0.6352,-0.667,0.0,0.0,-0.6957,-0.6784,-0.6918,-0.6771,0.0,0.0,0.0,0.0,0.0,0.0,0.0,0.0,0.0,0.0,0.0,0.0,0.0,0.0,0.0,0.0,0.0,0.0,0.0,0.0,0.0,0.0,0.0,0.0,0.0,0.0,0.0,0.0,0.0,0.0,0.0,0.0,0.0,0.0,0.0,0.0,0.0,0.0,0.0,0.0,0.0,0.0,0.0,0.0,0.0,0.0,0.0,0.0,0.0,0.0,0.0,0.0,0.0,0.0,0.0,-0.6092,-0.683,-0.7412,-0.7877,-0.7901,-0.7901,-0.7889,-0.7399,-0.683,0.0,0.0,0.0,0.0,0.0,0.0,0.0,0.0,0.0,0.0,0.0,0.0,0.0,0.0,0.0,0.0,0.0,0.0,0.0,0.0,0.0,0.0,0.0,0.0,0.0,0.0,0.0,0.0,0.0,0.0,0.0,0.0,0.0,0.0,0.0,0.0,0.0,0.0,0.0,0.0,0.0,-0.6405,-0.6523,-0.7075,-0.7587,0.0,0.0,-0.737,-0.6884,-0.7,-0.6797,-0.5649,0.0,0.0,0.0,0.0,0.0,0.0,0.0,0.0,0.0,0.0,0.0,0.0,0.0,0.0,0.0,0.0,0.0,0.0,0.0,0.0,0.0,0.0,0.0,0.0,0.0,0.0,0.0,0.0,0.0,0.0,0.0,0.0,0.0,0.0,0.0,0.0,0.0,0.0,0.0,0.0,0.0,0.0,0.0,0.0,0.0,0.0,0.0,0.0,0.0,0.0,0.0,0.0,0.0,-0.5431,-0.5924,-0.6736,-0.7412,-0.7877,-0.7901,-0.7901,-0.7901,-0.7436,-0.691,0.0,0.0,0.0,0.0,0.0,0.0,0.0,0.0,0.0,0.0,0.0,0.0,0.0,0.0,0.0,0.0,0.0,0.0,0.0,0.0,0.0,0.0,0.0,0.0,0.0,0.0,0.0,0.0,-0.441,-0.4332,-0.4049,0.0,0.0,0.0,0.0,0.0,0.0,0.0,0.0,0.0,0.0,-0.6484,-0.6877,-0.732,0.0,0.0,-0.7926,-0.7928,-0.7717,-0.7765,-0.758,-0.6695,-0.6321,0.0,0.0,0.0,0.0,0.0,0.0,0.0,0.0,0.0,0.0,0.0,0.0,0.0,0.0,0.0,0.0,0.0,0.0,0.0,0.0,0.0,0.0,0.0,0.0,0.0,0.0,0.0,0.0,0.0,0.0,0.0,0.0,0.0,0.0,0.0,0.0,0.0,0.0,0.0,0.0,0.0,0.0,0.0,0.0,0.0,0.0,0.0,0.0,0.0,0.0,0.0,0.0,-0.5431,-0.5887,-0.6742,-0.7418,-0.7895,-0.7901,-0.7859,-0.7822,-0.7443,-0.696,0.0,0.0,0.0,0.0,0.0,0.0,0.0,0.0,0.0,0.0,0.0,0.0,0.0,0.0,0.0,0.0,0.0,0.0,0.0,0.0,0.0,0.0,0.0,0.0,0.0,0.0,0.0,0.0,-0.489,-0.4585,-0.3963,0.0,0.0,0.0,0.0,0.0,0.0,0.0,0.0,0.0,0.0,-0.6801,-0.7333,-0.7534,-0.7671,-0.7967,-0.8138,-0.8174,-0.8088,-0.8269,-0.8141,-0.7282,0.0,0.0,0.0,0.0,0.0,0.0,0.0,0.0,0.0,0.0,0.0,0.0,0.0,0.0,0.0,0.0,0.0,0.0,0.0,0.0,0.0,0.0,0.0,0.0,0.0,0.0,0.0,0.0,0.0,0.0,-0.7091,0.0,0.0,0.0,0.0,0.0,0.0,0.0,0.0,0.0,0.0,0.0,0.0,0.0,0.0,0.0,0.0,0.0,0.0,0.0,0.0,0.0,0.0,-0.5364,-0.6109,-0.6837,-0.7461,-0.7883,-0.7901,-0.7828,-0.767,-0.734,-0.696,-0.6415,0.0,0.0,0.0,0.0,0.0,0.0,0.0,0.0,0.0,0.0,0.0,0.0,0.0,0.0,0.0,0.0,0.0,0.0,0.0,0.0,0.0,0.0,0.0,0.0,0.0,0.0,-0.5211,-0.4888,-0.4415,0.0,0.0,0.0,0.0,0.0,0.0,0.0,0.0,0.0,0.0,-0.7065,-0.7628,-0.7822,-0.7713,-0.7802,-0.8244,-0.8258,-0.8114,-0.7846,-0.831,-0.8364,0.0,0.0,0.0,0.0,0.0,0.0,0.0,0.0,0.0,0.0,0.0,0.0,0.0,0.0,0.0,0.0,0.0,0.0,0.0,0.0,0.0,0.0,0.0,0.0,0.0,0.0,0.0,-0.7728,-0.7695,0.0,0.0,0.0,0.0,0.0,0.0,0.0,0.0,0.0,0.0,0.0,-0.8254,-0.7959,0.0,0.0,0.0,0.0,0.0,0.0,0.0,0.0,0.0,0.0,0.0,0.0,-0.5665,-0.6555,-0.7237,-0.8006,-0.8718,-0.8738,-0.8644,-0.835,-0.807,-0.7586,-0.6831,0.0,0.0,0.0,0.0,0.0,0.0,0.0,0.0,0.0,0.0,0.0,0.0,0.0,0.0,0.0,0.0,0.0,0.0,0.0,0.0,0.0,0.0,0.0,0.0,0.0,-0.5467,0.0,0.0,0.0,0.0,0.0,0.0,0.0,0.0,0.0,0.0,0.0,-0.6817,-0.7139,-0.7815,-0.8241,-0.8082,-0.8593,-0.8991,0.0,0.0,0.0,0.0,0.0,0.0,0.0,0.0,0.0,0.0,0.0,0.0,0.0,0.0,-0.7576,-0.6059,-0.5676,-0.5668,-0.5879,0.0,0.0,0.0,0.0,0.0,0.0,0.0,0.0,0.0,0.0,0.0,0.0,0.0,0.0,0.0,0.0,-0.8595,0.0,0.0,0.0,0.0,0.0,0.0,0.0,0.0,-0.9223,-0.956,-0.9453,-0.9136,-0.8724,0.0,-0.7773,-0.7003,0.0,0.0,0.0,0.0,0.0,0.0,0.0,0.0,-0.6243,-0.7095,-0.7798,-0.8502,-0.9183,-0.9204,-0.8964,-0.8553,-0.8189,-0.7717,-0.7123,-0.6559,-0.6059,0.0,0.0,0.0,0.0,0.0,0.0,0.0,0.0,0.0,0.0,0.0,0.0,0.0,0.0,0.0,0.0,0.0,0.0,0.0,0.0,0.0,0.0,0.0,-0.578,0.0,0.0,0.0,0.0,0.0,0.0,0.0,0.0,0.0,-0.7013,-0.7282,-0.7691,-0.8346,-0.8718,-0.8978,-0.8923,0.0,0.0,0.0,0.0,0.0,0.0,0.0,-0.9585,-0.9407,-0.8948,-0.8643,-0.8862,-0.9175,-0.9287,-0.8961,0.0,0.0,-0.6801,-0.641,-0.6394,-0.6594,-0.6546,-0.6641,-0.7189,-0.7298,-0.7294,0.0,0.0,0.0,0.0,0.0,0.0,0.0,0.0,-1.0097,-1.0335,0.0,-1.0242,0.0,0.0,0.0,0.0,0.0,-0.9532,0.0,0.0,-1.0807,-1.1028,-1.0299,-0.9844,-0.943,-0.9081,-0.9108,-0.8712,-0.7931,-0.6433,0.0,0.0,0.0,0.0,0.0,0.0,-0.7137,-0.7761,-0.8468,-0.8954,-0.9242,-0.9263,-0.8968,-0.8355,-0.775,-0.7443,-0.7353,-0.7145,-0.6815,-0.637,-0.5869,0.0,0.0,0.0,0.0,0.0,0.0,0.0,0.0,0.0,0.0,0.0,0.0,0.0,0.0,0.0,0.0,0.0,0.0,0.0,0.0,-0.6317,0.0,0.0,0.0,0.0,0.0,0.0,0.0,0.0,0.0,0.0,-0.7759,-0.83,-0.9,-0.9811,0.0,0.0,0.0,0.0,-0.9617,-1.0258,-1.0435,-1.0401,-0.9941,-1.0461,-1.0589,-0.9596,0.0,0.0,-0.9072,-0.9223,-0.9342,-0.9009,-0.8953,-0.8699,-0.7937,-0.7515,-0.7293,-0.7293,-0.7062,-0.6941,-0.7245,-0.7392,-0.7373,-1.2962,0.0,0.0,0.0,0.0,-1.1856,-1.2033,-1.2637,-1.1702,-1.1319,-1.1341,-1.1003,0.0,0.0,0.0,0.0,0.0,0.0,-1.0257,-1.0658,-1.1223,-1.1515,-1.1517,-1.0721,-1.0269,-1.0121,-0.9303,-0.8812,-0.8525,-0.7894,-0.7144,-0.6291,0.0,0.0,0.0,0.0,-0.7661,-0.8581,-0.9026,-0.95,-1.0146,-1.0102,-0.9772,-0.909,-0.8473,-0.8121,-0.8093,-0.7764,-0.741,-0.7023,-0.6463,0.0,0.0,0.0,0.0,0.0,0.0,0.0,0.0,0.0,0.0,0.0,0.0,0.0,0.0,0.0,0.0,0.0,0.0,0.0,-0.6906,-0.678,-0.6734,0.0,0.0,0.0,0.0,0.0,0.0,0.0,0.0,0.0,-0.9811,-0.9875,-0.9964,0.0,0.0,-1.0813,-1.0723,-1.1016,-1.1202,-1.1156,0.0,0.0,0.0,-1.0391,-1.0224,-1.0168,-1.0248,-1.0248,-1.0057,-1.0097,-1.0049,-0.9692,-0.943,-0.9112,-0.8675,-0.8047,-0.7668,-0.7636,-0.7565,-0.7658,-0.7976,-0.8008,-0.7945,-1.4506,-1.3944,-1.3619,-1.347,-1.3454,-1.3112,-1.3275,-1.3718,-1.2914,-1.2605,-1.2701,-1.2326,-1.1849,-1.1256,-1.0809,0.0,0.0,0.0,-1.1147,-1.1557,-1.1667,-1.1847,-1.2017,-1.125,-1.088,-1.083,-1.0031,-0.9587,-0.9494,-0.9434,-0.8811,-0.7731,0.0,0.0,-0.7597,-0.7966,-0.8522,-0.9353,-0.9668,-1.0047,-1.0514,-1.0192,-0.9883,-0.9406,-0.8738,-0.8373,-0.8373,-0.8159,-0.7881,-0.7523,-0.7009,-0.64,0.0,0.0,0.0,0.0,0.0,0.0,0.0,0.0,0.0,0.0,0.0,-0.5533,0.0,0.0,0.0,0.0,-0.649,-0.724,-0.7493,-0.7372,0.0,0.0,0.0,0.0,0.0,0.0,0.0,-0.923,-0.9431,-0.9877,-1.0839,-1.0846,-1.0922,-1.133,-1.1518,-1.1583,-1.158,0.0,-1.1988,-1.1932,-1.1789,-1.1582,-1.1241,-1.0724,-1.0375,-1.0506,-1.0522,-1.0522,-1.0522,-1.0522,-1.0391,-1.016,-0.9851,-0.9501,-0.9159,-0.8635,-0.8158,-0.8071,-0.8008,-0.8047,-0.8341,-0.8275,-0.8226,-1.5885,-1.6046,-1.4914,-1.4156,-1.3801,-1.4201,-1.4158,-1.375,-1.374,-1.3991,-1.434,-1.3925,-1.3445,-1.2934,-1.2541,0.0,-1.1942,-1.2351,-1.2385,-1.2061,-1.2097,-1.2126,-1.2076,-1.1578,-1.1326,-1.1318,-1.1023,-1.0769,-1.0514,-1.071,-1.0376,-0.9485,-0.8852,-0.8772,-0.9128,-0.9308,-0.9612,-0.9962,-1.0295,-1.0522,-1.0514,-0.9795,-0.9422,-0.9382,-0.8762,-0.8446,-0.8373,-0.8373,-0.8206,-0.781,-0.7491,-0.684,-0.5912,0.0,0.0,0.0,0.0,0.0,0.0,0.0,0.0,0.0,0.0,0.0,0.0,0.0,0.0,0.0,-0.75,0.0,-0.7961,-0.8025,0.0,0.0,0.0,-0.7453,-0.8051,-0.8623,-0.927,-0.9999,0.0,0.0,-1.1074,0.0,-1.1733,-1.2393,-1.221,-1.2131,-1.2493,-1.2194,-1.2131,-1.2421,-1.2146,-1.1813,-1.1424,-1.109,-1.0764,-1.0569,-1.0522,-1.0522,-1.0522,-1.0522,-1.0522,-1.0498,-1.0145,-0.9771,-0.9453,-0.9064,-0.8762,-0.8405,-0.8283,-0.8242,-0.8373,-0.8316,-0.8185,-1.6856,-1.6526,-1.5865,-1.5299,-1.4861,-1.4553,-1.4347,-1.422,-1.422,-1.4275,-1.4362,-1.4264,-1.4006,-1.3577,-1.3461,-1.3226,-1.2894,-1.2966,-1.2829,-1.2513,-1.253,-1.2382,-1.2076,-1.1769,-1.1619,-1.1578,-1.1116,-1.0871,-1.0828,-1.0675,-1.0485,-1.0274,-1.0079,-0.9771,-0.9356,-0.9628,-0.9978,-1.0335,-1.0482,-1.0522,-1.0454,-1.0033,-0.9668,-0.9398,-0.8993,-0.8651,-0.843,-0.8373,-0.8206,-0.7802,-0.7491,-0.6951,-0.6219,-0.55,0.0,0.0,0.0,0.0,0.0,0.0,0.0,0.0,0.0,-0.6332,-0.5488,0.0,-0.7271,0.0,-0.7436,-0.8047,-0.8586,-0.8684,0.0,0.0,-0.9028,-0.9105,-0.978,-0.9738,-0.9961,-1.069,-1.0624,-1.073,-1.1296,-1.1158,-1.1153,-1.1668,-1.1908,-1.1948,-1.1781,-1.1916,-1.1948,-1.1765,-1.1479,-1.1217,-1.1114,-1.082,-1.0625,-1.0486,-1.0522,-1.0522,-1.0522,-1.0522,-1.0522,-1.0482,-0.9938,-0.9533,-0.9406,-0.8913,-0.8566,-0.8438,-0.8381,-0.8373,-0.8373,-0.8316,-0.8177,-1.7978,-1.7806,-1.7306,-1.6762,-1.6184,-1.4911,-1.443,-1.443,-1.443,-1.443,-1.443,-1.443,-1.4291,-1.4046,-1.4046,-1.3952,-1.3742,-1.3563,-1.3372,-1.3152,-1.2822,-1.2578,-1.2372,-1.1927,-1.1669,-1.1678,-1.1276,-1.1074,-1.1074,-1.0828,-1.0667,-1.0667,-1.0573,-1.0322,-0.9898,-1.0065,-1.0264,-1.0514,-1.0522,-1.0522,-1.0506,-1.0113,-0.9755,-0.9544,-0.9125,-0.8781,-0.8537,-0.8455,-0.8206,-0.781,-0.7642,-0.7221,-0.6554,-0.599,-0.5581,0.0,0.0,0.0,0.0,0.0,0.0,0.0,0.0,0.0,0.0,0.0,-0.7601,-0.7531,-0.8127,-0.8754,-0.931,-0.9358,-0.9471,-0.9791,-0.9684,-0.9784,-1.0376,-1.0252,-1.0343,-1.0947,-1.0725,-1.067,-1.098,-1.0818,-1.0763,-1.1034,-1.1336,-1.1543,-1.1519,-1.167,-1.171,-1.1511,-1.1209,-1.0931,-1.0796,-1.0649,-1.0522,-1.0522,-1.0522,-1.0522,-1.0522,-1.0522,-1.0474,-1.0232,-0.9898,-0.9517,-0.9239,-0.8897,-0.858,-0.8413,-0.8373,-0.8373,-0.8373,-0.8291,-0.8152,-1.9212,-1.9362,-1.8784,-1.8157,-1.7472,-1.56,-1.4667,-1.446,-1.4452,-1.4463,-1.4471,-1.4537,-1.4559,-1.4559,-1.457,-1.4526,-1.4471,-1.4142,-1.3921,-1.3763,-1.3104,-1.2764,-1.2715,-1.2067,-1.1778,-1.1828,-1.1477,-1.1368,-1.1318,-1.1074,-1.0922,-1.0871,-1.0667,-1.0522,-1.0522,-1.0522,-1.0522,-1.0522,-1.0522,-1.0522,-1.0514,-1.016,-0.9851,-0.9652,-0.9209,-0.8864,-0.8659,-0.8488,-0.8206,-0.7818,-0.7794,-0.7478,-0.6848,-0.6514,-0.6331,0.0,-0.6019,0.0,0.0,0.0,0.0,0.0,0.0,0.0,0.0,-0.7739,-0.8159,-0.8476,-0.9088,-0.9588,-0.9898,-0.9962,-0.9964,-0.9879,-0.9873,-1.0045,-1.0386,-1.0432,-1.0539,-1.0877,-1.0931,-1.0804,-1.0542,-1.0522,-1.0522,-1.0534,-1.0772,-1.1034,-1.1281,-1.1376,-1.14,-1.1376,-1.1122,-1.0796,-1.0617,-1.053,-1.0522,-1.0522,-1.0522,-1.0522,-1.0624,-1.0616,-1.0519,-1.0278,-1.0148,-0.9817,-0.9241,-0.9079,-0.8808,-0.8552,-0.8455,-0.8373,-0.8373,-0.8291,-0.8167,-2.0385,-1.996,-1.9378,-1.876,-1.8163,-1.729,-1.6169,-1.4941,-1.4537,-1.4602,-1.4985,-1.5389,-1.5563,-1.5563,-1.5563,-1.5295,-1.4974,-1.4877,-1.4468,-1.381,-1.3324,-1.3132,-1.3074,-1.2363,-1.2175,-1.248,-1.1927,-1.1628,-1.1628,-1.1377,-1.1124,-1.0922,-1.0871,-1.0718,-1.0522,0.0,0.0,0.0,-1.0522,-1.0522,-1.0522,-1.0399,-1.0106,-0.9476,-0.9334,0.0,-0.8495,-0.8422,-0.8206,-0.7818,-0.7794,0.0,0.0,0.0,0.0,0.0,0.0,0.0,0.0,0.0,0.0,0.0,-0.7833,-0.7984,-0.7777,-0.8564,-0.9128,-0.9207,-0.9581,-0.9851,-0.9873,-1.0192,-1.0391,-1.0344,-1.0352,-1.0391,-1.0454,-1.0462,-1.0514,-1.0566,-1.0625,-1.0601,-1.0538,-1.0522,-1.0522,-1.0522,-1.0526,-1.0589,-1.0669,-1.0923,-1.0979,-1.0724,-1.0637,-1.0558,-1.053,-1.0522,-1.0565,-1.0522,-1.0522,-1.0667,-1.1015,-1.1124,-1.1267,-1.1411,-1.1078,-1.0569,-1.0374,-0.9674,-0.8931,-0.8871,-0.8545,-0.8299,-0.8373,-0.8291,-0.8167,-2.0824,0.0,-2.0231,-1.9742,0.0,-1.8559,-1.7653,-1.6604,-1.5867,-1.5508,-1.5476,-1.5727,-1.5785,-1.5785,-1.5785,-1.5644,-1.5454,-1.5214,-1.4877,-1.4398,-1.3762,-1.3515,-1.3515,-1.289,-1.2745,-1.2949,-1.2431,-1.2274,-1.2403,-1.181,-1.1519,-1.156,-1.1124,-1.0828,-1.0675,-1.0573,-1.0522,-1.0522,-1.0522,-1.0522,-1.0522,-1.0522,-1.0316,-0.9842,0.0,0.0,0.0,0.0,0.0,0.0,0.0,0.0,0.0,0.0,0.0,-0.7336,-0.7352,-0.7396,-0.7579,-0.7896,-0.8166,-0.8316,-0.8842,-0.8985,-0.8627,-0.9247,-0.9636,-0.9643,-1.0003,-1.0192,-1.02,-1.0367,-1.0522,-1.0522,-1.0522,-1.0522,-1.0522,-1.0522,-1.0522,-1.0522,-1.0522,-1.0522,-1.0522,-1.0522,-1.0522,-1.0522,-1.0522,-1.0522,-1.0538,-1.0673,-1.0653,-1.0545,-1.0522,-1.0624,-1.0812,-1.0871,-1.0863,-1.0871,-1.0871,-1.1015,-1.1267,-1.1065,-1.1015,-1.1239,-1.0684,-1.012,-1.006,-0.935,-0.8749,-0.8856,-0.8617,-0.8307,-0.8291,-0.8201,-0.807,-2.1309,-2.1402,-2.1329,-2.0948,-2.031,-1.9811,-1.9196,-1.8457,0.0,0.0,0.0,-1.6055,-1.6036,-1.6088,-1.6036,-1.6044,-1.5883,-1.5531,-1.5269,-1.5083,-1.4307,-1.3894,-1.3858,-1.3409,-1.3266,-1.3276,-1.2958,-1.2949,-1.317,-1.2353,-1.2058,-1.2197,-1.151,-1.1065,-1.0972,-1.0769,-1.0616,-1.0616,-1.0573,-1.0522,-1.0522,-1.0522,-1.0404,-1.0254,-1.0035,-0.9803,-0.9644,-0.9314,-0.8936,-0.8564,-0.8351,-0.815,-0.8016,-0.7801,-0.7912,-0.8413,-0.8566,-0.8556,-0.8606,-0.908,-0.931,-0.9104,-0.9596,-0.9795,-0.9509,-0.9819,-1.0035,-1.0003,-1.0298,-1.0522,-1.0522,-1.0522,-1.0522,-1.0522,-1.0522,-1.0522,-1.0522,-1.0522,-1.0522,-1.0522,-1.0522,-1.0522,-1.0522,-1.0522,-1.0522,-1.0522,-1.0522,-1.0522,-1.0522,-1.0538,-1.0545,-1.0522,-1.0522,-1.0667,-1.1023,-1.1116,-1.1167,-1.1074,-1.1124,-1.1167,-1.1217,-1.0913,-1.0739,-1.1054,-1.0245,-0.9913,-0.9777,-0.9259,-0.8722,-0.8972,-0.8662,-0.834,-0.8299,-0.8165,-0.8063,-2.2444,-2.2879,-2.2761,-2.2349,-2.1765,-2.1584,-2.0835,-1.9623,-1.8033,-1.7266,-1.7144,-1.7103,-1.7071,-1.7082,-1.7082,-1.6841,-1.6426,-1.6361,-1.588,0.0,-1.4616,-1.4371,-1.4291,-1.3552,-1.3362,-1.3668,-1.3324,-1.317,-1.317,-1.3074,-1.2919,-1.2677,-1.2246,-1.1769,-1.1276,-1.1226,-1.1167,-1.1175,-1.0718,-1.0522,-1.0522,-1.0522,-1.0346,-0.9954,-0.993,-0.9755,-0.946,-0.9806,-0.9801,-0.93,-0.9639,-0.9525,-0.8821,-0.8953,-0.9024,-0.8866,-0.9096,-0.9255,-0.9247,-0.935,-0.9509,-0.9755,-0.9874,-0.985,-0.9867,-1.0184,-1.0442,-1.0426,-1.0474,-1.0522,-1.0522,-1.0522,-1.0522,-1.0522,-1.0522,-1.0522,-1.0522,-1.0522,-1.0522,-1.0522,-1.0522,-1.0522,-1.0522,-1.0522,-1.0522,-1.0522,-1.0522,-1.0522,-1.0522,-1.0522,-1.0522,-1.0522,-1.0522,-1.0522,-1.0718,-1.0616,-1.0726,-1.0624,-1.0667,-1.0871,-1.1217,-1.1175,-1.1233,-1.167,-1.1265,-1.1013,-1.0968,-1.0134,-0.9581,-0.9477,-0.8988,-0.8494,-0.8692,-0.8585,-0.8301,-2.2918,-2.3162,-2.3056,-2.2829,-2.2546,-2.2097,-2.1363,-2.0459,-1.9318,-1.8434,-1.7783,-1.7446,-1.7278,-1.7278,-1.7278,-1.7147,-1.6918,-1.6645,-1.6284,-1.5796,-1.5135,-1.4828,-1.4718,-1.4153,-1.3941,-1.4104,-1.3716,-1.3658,-1.38,-1.3409,-1.3266,-1.3314,-1.2783,-1.2335,-1.194,-1.1891,-1.1891,-1.19,-1.1116,-1.0718,-1.0726,-1.0573,-1.0434,-1.0224,-1.0366,-1.0293,-1.0035,-1.0161,-1.0054,-0.9684,-0.9725,-0.9592,-0.9183,-0.9318,-0.9326,-0.9191,-0.9493,-0.9684,-0.9684,-0.9867,-1.0041,-1.0208,-1.0224,-1.0216,-1.0224,-1.0418,-1.0522,-1.0522,-1.0522,-1.0522,-1.0522,-1.0522,-1.0522,-1.0522,-1.0522,-1.0522,-1.0522,-1.0522,-1.0522,-1.0522,-1.0522,-1.0522,-1.0522,-1.0522,-1.0522,-1.0522,-1.0522,-1.0522,-1.0522,-1.0522,-1.0522,-1.0522,-1.0522,-1.0616,-1.0871,-1.0922,-1.0922,-1.0913,-1.0922,-1.1023,-1.1226,-1.1124,-1.1116,-1.1493,-1.1292,-1.116,-1.1275,-1.0802,-1.0445,-1.0517,-1.0083,-0.9736,-0.9675,-0.9586,-0.9249,-2.3459,-2.3581,-2.3501,-2.3366,-2.3177,-2.2322,-2.1776,-2.1382,-2.0566,-1.9596,-1.8515,-1.7789,-1.7434,-1.7278,-1.7278,-1.7278,-1.7224,-1.6874,-1.6623,-1.6448,-1.576,-1.5312,-1.5083,-1.4722,-1.4493,-1.4384,-1.4104,-1.4093,-1.428,-1.3742,-1.3563,-1.3716,-1.3266,-1.2861,-1.256,-1.256,-1.257,-1.2511,-1.1742,-1.1217,-1.1015,-1.082,-1.0667,-1.0616,-1.0718,-1.0769,-1.06,-1.0541,-1.0385,-1.0082,-0.9875,-0.977,-0.9636,-0.9636,-0.9636,-0.9668,-0.989,-1.0049,-1.0065,-1.0303,-1.0522,-1.0522,-1.0522,-1.0522,-1.0522,-1.0522,-1.0522,-1.0522,-1.0522,-1.0522,-1.0522,-1.0522,-1.0522,-1.0522,-1.0522,-1.0522,-1.0522,-1.0522,-1.0522,-1.0522,-1.0522,-1.0522,-1.0522,-1.0522,-1.0522,-1.0522,-1.0522,-1.0522,-1.0522,-1.0522,-1.0522,-1.0522,-1.0522,-1.0616,-1.1065,-1.1065,-1.1065,-1.1124,-1.1226,-1.1226,-1.1276,-1.1023,-1.1015,-1.1443,-1.1291,-1.1212,-1.1388,-1.1253,-1.1159,-1.1232,-1.0886,-1.0695,-1.0552,-1.0551,-1.025,-2.434,-2.4801,-2.4732,-2.4517,-2.3852,-2.2665,-2.2385,-2.259,-2.1524,-2.058,-1.9764,-1.8561,-1.7744,-1.7334,-1.7278,-1.7278,-1.7278,-1.7234,-1.6961,-1.6557,-1.6437,-1.5946,-1.5192,-1.5061,-1.481,-1.4439,-1.4337,-1.4326,-1.4384,-1.428,-1.4093,-1.3821,-1.3716,-1.3515,-1.317,-1.3112,-1.3112,-1.3112,-1.2764,-1.2227,-1.141,-1.1309,-1.1167,-1.0871,-1.0675,-1.0675,-1.0913,-1.1091,-1.0965,-1.0517,-1.0872,-1.0906,-1.0452,-1.0418,-1.0359,-1.0351,-1.0391,-1.0466,-1.0415,-1.0446,-1.0522,-1.0522,-1.0522,-1.0522,-1.0522,-1.0522,-1.0522,-1.0522,-1.0522,-1.0522,-1.0522,-1.0522,-1.0522,-1.0522,-1.0522,-1.0522,-1.0522,-1.0522,-1.0522,-1.0522,-1.0522,-1.0522,-1.0522,-1.0522,-1.0522,-1.0522,-1.0522,-1.0522,-1.0522,-1.0522,-1.0522,-1.0522,-1.0522,-1.0522,-1.0624,-1.0573,-1.0667,-1.0667,-1.1023,-1.1276,-1.1377,-1.1619,-1.185,-1.1701,-1.1913,-1.1886,-1.1831,-1.1682,-1.1528,-1.1593,-1.1352,-1.0895,-1.0906,-1.1069,-1.0893,-2.4788,-2.5005,-2.5005,-2.4666,-2.4069,-2.3474,-2.3217,-2.3029,-2.2525,-2.1862,-2.1071,-1.9788,-1.8545,-1.7345,-1.7278,-1.7278,-1.7278,-1.7278,-1.7169,-1.694,-1.6656,-1.6317,-1.5935,-1.5334,-1.4996,-1.4788,-1.4526,-1.443,-1.443,-1.443,-1.4326,-1.4186,-1.414,-1.4093,-1.3884,-1.3894,-1.3941,-1.3894,-1.3789,-1.3556,-1.3144,-1.2372,-1.1931,-1.1792,-1.1733,-1.1683,-1.1692,-1.185,-1.1769,-1.141,-1.1368,-1.1175,-1.0972,-1.0667,-1.0522,-1.0522,-1.0522,-1.0522,-1.0522,-1.0522,-1.0522,-1.0522,-1.0522,-1.0522,-1.0522,-1.0522,-1.0522,-1.0522,-1.0522,-1.0522,-1.0522,-1.0522,-1.0522,-1.0522,-1.0522,-1.0522,-1.0522,-1.0522,-1.0522,-1.0522,-1.0522,-1.0522,-1.0522,-1.0522,-1.0522,-1.0522,-1.0522,-1.0522,-1.0522,-1.0522,-1.0522,-1.0522,-1.0522,-1.0522,-1.0522,-1.0522,-1.0616,-1.0913,-1.1116,-1.1326,-1.1719,-1.181,-1.2008,-1.2008,-1.2295,-1.2482,-1.2472,-1.2686,-1.2711,-1.2462,-1.2339,-1.2063,-1.1695,-1.1722,-1.1478,-2.5005,-2.5005,-2.5005,-2.4761,-2.4354,-2.4191,-2.3974,-2.3662,-2.3433,-2.295,-2.2244,-2.1204,-1.967,-1.7924,-1.7456,-1.7278,-1.7278,-1.7278,-1.7278,-1.7234,-1.6885,-1.6667,-1.6448,-1.5705,-1.5236,-1.505,-1.4613,-1.443,-1.443,-1.443,-1.443,-1.443,-1.443,-1.443,-1.443,-1.4384,-1.4373,-1.4373,-1.4384,-1.4345,-1.4243,-1.3412,-1.2754,-1.2511,-1.2463,-1.2423,-1.2276,-1.2295,-1.2197,-1.2049,-1.171,-1.1551,-1.1551,-1.12,-1.1006,-1.0964,-1.0964,-1.0913,-1.0913,-1.0922,-1.0913,-1.0913,-1.0922,-1.0913,-1.0913,-1.0913,-1.0922,-1.0922,-1.0769,-1.0726,-1.0522,-1.0522,-1.0522,-1.0522,-1.0522,-1.0522,-1.0522,-1.0522,-1.0522,-1.0522,-1.0522,-1.0522,-1.0522,-1.0522,-1.0522,-1.0522,-1.0522,-1.0522,-1.0522,-1.0522,-1.0522,-1.0675,-1.0718,-1.0718,-1.0726,-1.0769,-1.0972,-1.136,-1.161,-1.19,-1.2197,-1.2295,-1.2442,-1.2783,-1.2919,-1.2967,-1.3025,-1.3351,-1.3447,-1.3314,-1.3122,-1.2774,-1.212,-1.2107,-1.1751,-2.5005,-2.5005,-2.5005,-2.4978,-2.491,-2.4381,-2.4435,-2.4774,-2.4258,-2.3672,-2.3076,-2.2665,-2.1319,-1.9086,-1.7913,-1.7323,-1.7267,-1.7267,-1.7256,-1.7234,-1.7213,-1.6972,-1.6503,-1.597,-1.5574,-1.5214,-1.4755,-1.4471,-1.4474,-1.443,-1.443,-1.443,-1.443,-1.443,-1.4373,-1.4269,-1.428,-1.4373,-1.428,-1.428,-1.4348,-1.4186,-1.3589,-1.2754,-1.2365,-1.2384,-1.2471,-1.2215,-1.2098,-1.2218,-1.2218,-1.2169,-1.2169,-1.2218,-1.2169,-1.207,-1.194,-1.1909,-1.1859,-1.1859,-1.1859,-1.185,-1.181,-1.1909,-1.181,-1.181,-1.176,-1.185,-1.1427,-1.1023,-1.0573,-1.0522,-1.0522,-1.0522,-1.0522,-1.0522,-1.0522,-1.0522,-1.0522,-1.0522,-1.0522,-1.0522,-1.0522,-1.0522,-1.0522,-1.0522,-1.0522,-1.0514,-1.0573,-1.0573,-1.0761,-1.1116,-1.1267,-1.1276,-1.1276,-1.1267,-1.1469,-1.1859,-1.2286,-1.2667,-1.2919,-1.3112,-1.3314,-1.342,-1.342,-1.3467,-1.3573,-1.3525,-1.342,-1.3286,-1.3055,-1.2725,-1.2234,-1.2126,-1.1719,-2.5005,-2.5005,-2.5005,-2.5005,-2.4978,-2.4774,-2.4815,-2.4978,-2.4788,-2.4455,-2.39,-2.2808,-2.1673,-2.0594,-1.9088,-1.7781,-1.6896,-1.7114,-1.7103,-1.6874,-1.7125,-1.718,-1.6972,-1.6514,-1.6197,-1.5968,-1.5531,-1.5148,-1.4821,-1.4548,-1.443,-1.443,-1.443,-1.443,-1.4373,-1.4384,-1.4316,-1.4236,-1.4305,-1.428,-1.4222,-1.428,-1.4035,-1.3515,-1.3314,-1.3228,-1.3334,-1.3132,-1.3074,-1.3218,-1.2909,-1.2716,-1.2657,-1.2325,-1.2138,-1.2089,-1.1999,-1.2008,-1.2008,-1.2008,-1.2008,-1.2008,-1.2008,-1.1999,-1.2008,-1.2008,-1.19,-1.1619,-1.1418,-1.1074,-1.0616,-1.0522,-1.0522,-1.0522,-1.0522,-1.0522,-1.0522,-1.0522,-1.0522,-1.0522,-1.0522,-1.0522,-1.0522,-1.0522,-1.0522,-1.0514,-1.0517,-1.0661,-1.0947,-1.1082,-1.1266,-1.1601,-1.176,-1.185,-1.2236,-1.195,-1.1909,-1.2344,-1.2725,-1.2967,-1.3218,-1.3362,-1.3515,-1.3515,-1.361,-1.361,-1.3573,-1.343,-1.3334,-1.32,-1.3027,-1.2725,-1.2224,-1.2026,-1.1569,-2.5005,-2.5005,-2.5005,-2.5005,-2.5005,-2.5005,-2.5005,-2.5005,-2.5005,-2.4797,-2.4249,-2.306,-2.2153,-2.1281,-2.0081,-1.8513,-1.6986,-1.7301,-1.7291,-1.6809,-1.7125,-1.7278,-1.7191,-1.6765,-1.6525,-1.6404,-1.5829,-1.5421,-1.5094,-1.4613,-1.443,-1.443,-1.443,-1.443,-1.4373,-1.4373,-1.4305,-1.4236,-1.4316,-1.4258,-1.4212,-1.4269,-1.428,-1.4057,-1.3915,-1.3858,-1.3868,-1.3763,-1.3763,-1.3858,-1.3552,-1.3314,-1.3266,-1.2832,-1.254,-1.2589,-1.253,-1.2501,-1.254,-1.2501,-1.254,-1.254,-1.254,-1.2491,-1.254,-1.254,-1.2304,-1.19,-1.161,-1.1318,-1.0871,-1.0616,-1.0522,-1.0522,-1.0522,-1.0522,-1.0522,-1.0522,-1.0522,-1.0522,-1.0522,-1.0573,-1.0718,-1.0769,-1.0871,-1.0964,-1.1007,-1.1149,-1.1434,-1.1575,-1.1796,-1.2187,-1.2246,-1.253,-1.2822,-1.2735,-1.2589,-1.2977,-1.3025,-1.3266,-1.342,-1.3563,-1.361,-1.361,-1.361,-1.361,-1.3525,-1.3334,-1.32,-1.3162,-1.2968,-1.2725,-1.2274,-1.1828,-1.1519,-2.5059,-2.5059,-2.5018,-2.5046,-2.5018,-2.5005,-2.5005,-2.5005,-2.5005,-2.4691,-2.4257,-2.3725,-2.2732,-2.1454,-2.0914,-1.9548,-1.799,-1.8043,-1.7776,-1.7192,-1.7234,-1.7278,-1.7245,-1.6819,-1.6612,-1.6557,-1.5618,-1.5192,-1.5148,-1.4712,-1.4449,-1.4395,-1.443,-1.443,-1.443,-1.4316,-1.4269,-1.4326,-1.4269,-1.428,-1.4373,-1.4269,-1.4222,-1.4186,-1.4104,-1.402,-1.401,-1.3973,-1.401,-1.414,-1.4057,-1.3973,-1.3868,-1.3621,-1.3563,-1.3573,-1.3573,-1.3563,-1.3515,-1.3467,-1.342,-1.342,-1.3515,-1.342,-1.3372,-1.342,-1.3218,-1.2677,-1.2236,-1.1801,-1.1318,-1.0922,-1.0616,-1.0522,-1.0573,-1.0624,-1.0573,-1.0573,-1.0522,-1.0616,-1.0667,-1.0769,-1.1124,-1.1267,-1.141,-1.1701,-1.1832,-1.1922,-1.199,-1.2089,-1.2295,-1.2628,-1.2822,-1.2967,-1.3314,-1.3563,-1.3563,-1.3563,-1.3515,-1.3563,-1.3515,-1.3573,-1.3563,-1.3563,-1.361,-1.361,-1.343,-1.3238,-1.319,-1.3055,-1.291,-1.2725,-1.2274,-1.1877,-1.1719,-2.6009,-2.5629,-2.5615,-2.5371,-2.5032,-2.5005,-2.5005,-2.5005,-2.5005,-2.484,-2.4525,-2.3981,-2.3305,-2.2716,-2.212,-2.1031,-1.9699,-1.9353,-1.8351,-1.7093,-1.7181,-1.7278,-1.7245,-1.7114,-1.7027,-1.694,-1.6393,-1.5902,-1.5553,-1.5105,-1.4722,-1.4439,-1.443,-1.443,-1.443,-1.4373,-1.4373,-1.4384,-1.4373,-1.4326,-1.4269,-1.4326,-1.4326,-1.4222,-1.4233,-1.4291,-1.4244,-1.4104,-1.4057,-1.4176,-1.4057,-1.3973,-1.3868,-1.3716,-1.361,-1.3658,-1.3621,-1.361,-1.361,-1.361,-1.361,-1.361,-1.361,-1.361,-1.361,-1.361,-1.3362,-1.2909,-1.2618,-1.2335,-1.185,-1.1651,-1.1209,-1.0573,-1.082,-1.1023,-1.1074,-1.1318,-1.151,-1.151,-1.151,-1.161,-1.171,-1.176,-1.1859,-1.2058,-1.2276,-1.2453,-1.257,-1.2832,-1.3122,-1.3314,-1.3362,-1.3314,-1.3515,-1.361,-1.361,-1.361,-1.361,-1.361,-1.3621,-1.3525,-1.3515,-1.3515,-1.3563,-1.3525,-1.3344,-1.32,-1.3104,-1.3055,-1.292,-1.2627,-1.2224,-1.2026,-1.1977,-2.6117,-2.5588,-2.5561,-2.5358,-2.5018,-2.5005,-2.5005,-2.5005,-2.5005,-2.4827,-2.4458,-2.4023,-2.3605,-2.3256,-2.2735,-2.1962,-2.1075,-2.0367,-1.9136,-1.7577,-1.7258,-1.7345,-1.7278,-1.7278,-1.7278,-1.718,-1.6754,-1.6273,-1.5774,-1.5345,-1.4864,-1.446,-1.443,-1.443,-1.443,-1.443,-1.443,-1.443,-1.4384,-1.4373,-1.4316,-1.4373,-1.4384,-1.4316,-1.4373,-1.4373,-1.4326,-1.4197,-1.415,-1.4176,-1.4057,-1.3868,-1.3705,-1.3668,-1.361,-1.361,-1.361,-1.361,-1.361,-1.361,-1.361,-1.361,-1.361,-1.361,-1.361,-1.361,-1.3362,-1.2909,-1.2754,-1.2579,-1.2098,-1.2008,-1.166,-1.1158,-1.1368,-1.1569,-1.1619,-1.181,-1.1959,-1.1959,-1.1959,-1.2098,-1.2236,-1.2314,-1.2412,-1.255,-1.2812,-1.2986,-1.3112,-1.3362,-1.3515,-1.361,-1.3563,-1.3515,-1.3563,-1.361,-1.361,-1.361,-1.361,-1.361,-1.3621,-1.3515,-1.342,-1.3382,-1.3382,-1.3382,-1.3248,-1.3104,-1.3017,-1.2968,-1.2929,-1.2725,-1.2529,-1.248,-1.2431,-2.5643,-2.5086,-2.5059,-2.5086,-2.5018,-2.5005,-2.5005,-2.5005,-2.5005,-2.4734,-2.4272,-2.4121,-2.3743,-2.3192,-2.2976,-2.2502,-2.1784,-2.1087,-2.0044,-1.8883,-1.807,-1.7534,-1.7345,-1.7278,-1.7278,-1.7202,-1.6819,-1.6372,-1.5946,-1.5465,-1.4897,-1.4526,-1.4474,-1.443,-1.443,-1.443,-1.443,-1.443,-1.443,-1.443,-1.4373,-1.443,-1.4373,-1.4373,-1.4384,-1.4373,-1.428,-1.4326,-1.428,-1.4176,-1.3999,-1.381,-1.3668,-1.3621,-1.3668,-1.3668,-1.3621,-1.3668,-1.3621,-1.361,-1.3621,-1.3621,-1.3621,-1.361,-1.361,-1.361,-1.342,-1.3016,-1.2909,-1.2725,-1.2295,-1.2197,-1.2197,-1.2098,-1.2049,-1.2107,-1.2107,-1.2157,-1.2246,-1.2197,-1.2157,-1.2295,-1.2822,-1.2813,-1.3055,-1.3334,-1.3467,-1.3457,-1.3505,-1.3563,-1.361,-1.361,-1.361,-1.361,-1.361,-1.361,-1.361,-1.361,-1.361,-1.361,-1.3563,-1.3467,-1.3334,-1.3286,-1.3238,-1.319,-1.3152,-1.3065,-1.3017,-1.2978,-1.2929,-1.2939,-1.2842,-1.2783,-1.2735,-2.6619,-2.5683,-2.5656,-2.5412,-2.5046,-2.5005,-2.5005,-2.5005,-2.5005,-2.491,-2.4705,-2.4606,-2.4372,-2.4153,-2.3917,-2.3507,-2.2786,-2.2185,-2.0986,-1.9674,-1.8871,-1.807,-1.7445,-1.7278,-1.7278,-1.7245,-1.7092,-1.6819,-1.6339,-1.5826,-1.5378,-1.4908,-1.4526,-1.443,-1.443,-1.443,-1.443,-1.443,-1.443,-1.443,-1.443,-1.443,-1.443,-1.443,-1.443,-1.4373,-1.4326,-1.4269,-1.4222,-1.4222,-1.4129,-1.4046,-1.3915,-1.3868,-1.3868,-1.3868,-1.3773,-1.3763,-1.3821,-1.3716,-1.3668,-1.3716,-1.3668,-1.361,-1.361,-1.361,-1.3515,-1.342,-1.342,-1.3314,-1.318,-1.3132,-1.3132,-1.3122,-1.2774,-1.2725,-1.3035,-1.317,-1.317,-1.318,-1.3122,-1.3228,-1.3276,-1.3334,-1.3392,-1.3573,-1.361,-1.361,-1.361,-1.361,-1.361,-1.361,-1.361,-1.361,-1.361,-1.361,-1.361,-1.361,-1.361,-1.361,-1.3563,-1.3467,-1.3344,-1.321,-1.319,-1.319,-1.3104,-1.3027,-1.2978,-1.2978,-1.2939,-1.2891,-1.2891,-1.2832,-1.2832,-2.6389,-2.552,-2.552,-2.5317,-2.5018,-2.5005,-2.5005,-2.5005,-2.5005,-2.5005,-2.5005,-2.4935,-2.4791,-2.4677,-2.4465,-2.4178,-2.3647,-2.2987,-2.1844,-2.0454,-1.9126,-1.8114,-1.7433,-1.7278,-1.7278,-1.7278,-1.7278,-1.6983,-1.6514,-1.6003,-1.5524,-1.5083,-1.4613,-1.4441,-1.443,-1.443,-1.443,-1.443,-1.443,-1.443,-1.443,-1.443,-1.443,-1.443,-1.443,-1.443,-1.4373,-1.4269,-1.4176,-1.414,-1.4093,-1.4046,-1.401,-1.3973,-1.3926,-1.3915,-1.381,-1.3763,-1.3763,-1.3668,-1.3668,-1.3668,-1.3621,-1.3621,-1.361,-1.361,-1.361,-1.361,-1.361,-1.361,-1.361,-1.361,-1.361,-1.3515,-1.3314,-1.3266,-1.3573,-1.3563,-1.361,-1.361,-1.361,-1.361,-1.361,-1.361,-1.361,-1.361,-1.361,-1.361,-1.361,-1.361,-1.361,-1.361,-1.361,-1.361,-1.361,-1.361,-1.3563,-1.3563,-1.3563,-1.3563,-1.3505,-1.3467,-1.3334,-1.32,-1.319,-1.3142,-1.3065,-1.2978,-1.2929,-1.2929,-1.2929,-1.2891,-1.2891,-1.2891,-1.2891,-2.5548,-2.5005,-2.5005,-2.5005,-2.5005,-2.5005,-2.5005,-2.5005,-2.5005,-2.5005,-2.5005,-2.5005,-2.4892,-2.4791,-2.4607,-2.4478,-2.4195,-2.3546,-2.2421,-2.0876,-1.9205,-1.7805,-1.7378,-1.7278,-1.7278,-1.7278,-1.7278,-1.7049,-1.6623,-1.609,-1.5589,-1.5192,-1.469,-1.4452,-1.443,-1.443,-1.443,-1.443,-1.443,-1.443,-1.443,-1.443,-1.443,-1.443,-1.443,-1.443,-1.4373,-1.4269,-1.4186,-1.4057,-1.401,-1.4057,-1.401,-1.3915,-1.3821,-1.3821,-1.3763,-1.3668,-1.3668,-1.3668,-1.3621,-1.3621,-1.3621,-1.361,-1.361,-1.361,-1.361,-1.361,-1.361,-1.361,-1.361,-1.361,-1.361,-1.3621,-1.3563,-1.361,-1.361,-1.361,-1.361,-1.361,-1.361,-1.361,-1.361,-1.361,-1.361,-1.361,-1.361,-1.361,-1.361,-1.361,-1.361,-1.361,-1.361,-1.361,-1.361,-1.361,-1.3563,-1.3563,-1.3563,-1.3515,-1.3409,-1.3314,-1.3276,-1.3228,-1.3094,-1.3055,-1.3027,-1.2978,-1.2929,-1.2929,-1.2891,-1.2891,-1.2891,-1.2891,-1.2891,-2.5548,-2.5005,-2.5005,-2.5005,-2.5005,-2.5005,-2.5005,-2.5005,-2.5005,-2.5005,-2.5005,-2.5005,-2.4892,-2.4778,-2.4677,-2.4492,-2.4305,-2.3787,-2.2845,-2.0694,-1.8917,-1.7794,-1.7366,-1.7278,-1.7278,-1.7278,-1.7278,-1.7213,-1.6929,-1.6273,-1.5742,-1.5585,-1.4799,-1.443,-1.443,-1.443,-1.443,-1.443,-1.443,-1.443,-1.443,-1.443,-1.443,-1.443,-1.443,-1.443,-1.443,-1.4373,-1.4326,-1.4291,-1.4186,-1.414,-1.414,-1.4057,-1.3962,-1.3915,-1.3821,-1.3773,-1.3868,-1.3726,-1.3668,-1.3726,-1.3658,-1.361,-1.361,-1.361,-1.361,-1.361,-1.361,-1.361,-1.361,-1.361,-1.361,-1.361,-1.361,-1.361,-1.361,-1.361,-1.361,-1.361,-1.361,-1.361,-1.361,-1.361,-1.361,-1.361,-1.361,-1.361,-1.361,-1.361,-1.361,-1.361,-1.3563,-1.3563,-1.3563,-1.3515,-1.3457,-1.3457,-1.3467,-1.343,-1.3324,-1.3276,-1.3228,-1.3152,-1.3017,-1.2978,-1.3027,-1.2929,-1.2929,-1.2881,-1.2891,-1.2891,-1.2891,-1.2891,-1.2891,-2.556,-2.5018,-2.5005,-2.5005,-2.5005,-2.5005,-2.5005,-2.5005,-2.5005,-2.5005,-2.5005,-2.5005,-2.4948,-2.4791,-2.4721,-2.4607,-2.4247,-2.3564,-2.2346,-2.0649,-1.9077,-1.8002,-1.7376,-1.7278,-1.7278,-1.7334,-1.7278,-1.7278,-1.7027,-1.6383,-1.5785,-1.5709,-1.4854,-1.4428,-1.443,-1.443,-1.443,-1.443,-1.443,-1.443,-1.443,-1.443,-1.443,-1.443,-1.443,-1.443,-1.443,-1.443,-1.443,-1.4373,-1.4269,-1.4222,-1.4269,-1.4186,-1.4104,-1.4046,-1.3915,-1.3868,-1.3926,-1.3821,-1.3773,-1.3868,-1.3763,-1.3716,-1.3668,-1.3668,-1.361,-1.361,-1.361,-1.361,-1.361,-1.361,-1.361,-1.361,-1.361,-1.361,-1.361,-1.361,-1.361,-1.361,-1.361,-1.361,-1.361,-1.361,-1.361,-1.361,-1.361,-1.361,-1.361,-1.361,-1.361,-1.361,-1.3515,-1.3515,-1.3467,-1.342,-1.3362,-1.3304,-1.3304,-1.3286,-1.32,-1.3152,-1.3142,-1.3055,-1.3017,-1.3027,-1.3036,-1.2988,-1.2891,-1.2891,-1.2891,-1.2891,-1.2891,-1.2891,-1.2891,-2.5439,-2.5005,-2.5005,-2.5005,-2.5005,-2.5005,-2.5005,-2.5005,-2.5005,-2.5005,-2.5005,-2.5005,-2.4948,-2.4835,-2.4791,-2.4677,-2.4163,-2.3052,-2.1771,-2.0852,-1.9529,-1.8532,-1.7913,-1.7711,-1.7656,-1.7434,-1.7323,-1.7334,-1.7027,-1.6372,-1.5807,-1.5622,-1.4864,-1.4474,-1.443,-1.443,-1.443,-1.443,-1.443,-1.443,-1.443,-1.443,-1.443,-1.443,-1.443,-1.443,-1.4373,-1.4373,-1.4326,-1.4384,-1.4233,-1.4269,-1.4316,-1.4222,-1.4129,-1.414,-1.3905,-1.3821,-1.3868,-1.3821,-1.3773,-1.3915,-1.3821,-1.3763,-1.3716,-1.3668,-1.361,-1.361,-1.361,-1.361,-1.361,-1.361,-1.361,-1.361,-1.361,-1.361,-1.361,-1.361,-1.361,-1.361,-1.361,-1.361,-1.361,-1.361,-1.361,-1.361,-1.361,-1.361,-1.361,-1.361,-1.361,-1.361,-1.3563,-1.3467,-1.3467,-1.3324,-1.3266,-1.3228,-1.317,-1.3142,-1.3075,-1.3065,-1.3065,-1.3104,-1.3055,-1.3027,-1.3027,-1.2929,-1.2929,-1.2881,-1.2891,-1.2891,-1.2891,-1.2891,-1.2891,-2.5061,-2.5005,-2.5005,-2.5005,-2.5005,-2.5005,-2.5005,-2.5005,-2.5005,-2.5005,-2.5005,-2.5005,-2.5005,-2.4892,-2.4734,-2.4492,-2.3942,-2.2837,-2.191,-2.1113,-2.0017,-1.9101,-1.8635,-1.8506,-1.8387,-1.7952,-1.7634,-1.7434,-1.7104,-1.6361,-1.6023,-1.5679,-1.4912,-1.4488,-1.4512,-1.443,-1.4419,-1.4466,-1.4419,-1.443,-1.443,-1.443,-1.443,-1.443,-1.443,-1.443,-1.4373,-1.4316,-1.4222,-1.4233,-1.4104,-1.415,-1.4233,-1.414,-1.4046,-1.3952,-1.3858,-1.3763,-1.3773,-1.3668,-1.3668,-1.3668,-1.3668,-1.3668,-1.3621,-1.361,-1.361,-1.361,-1.361,-1.361,-1.361,-1.361,-1.361,-1.361,-1.361,-1.361,-1.361,-1.361,-1.361,-1.361,-1.361,-1.361,-1.361,-1.361,-1.361,-1.361,-1.361,-1.361,-1.361,-1.361,-1.361,-1.361,-1.361,-1.3515,-1.342,-1.3266,-1.317,-1.3152,-1.3113,-1.3065,-1.2978,-1.2929,-1.2929,-1.2968,-1.3017,-1.2978,-1.2929,-1.2929,-1.2929,-1.2891,-1.2891,-1.2891,-1.2891,-1.2891,-1.2891,-2.5286,-2.5005,-2.5005,-2.5005,-2.5005,-2.5005,-2.5005,-2.5005,-2.5005,-2.5005,-2.5005,-2.5005,-2.5005,-2.4948,-2.4878,-2.4473,-2.3717,-2.2866,-2.1933,-2.1074,-2.0116,-1.9468,-1.9088,-1.9052,-1.8827,-1.8548,-1.829,-1.7963,-1.7698,-1.7043,-1.6608,-1.6322,-1.5414,-1.488,-1.4903,-1.464,-1.4605,-1.4651,-1.4558,-1.4419,-1.443,-1.443,-1.4419,-1.443,-1.4419,-1.443,-1.4419,-1.4651,-1.4547,-1.4419,-1.4477,-1.4466,-1.4419,-1.4419,-1.4384,-1.4104,-1.3905,-1.3821,-1.3773,-1.3763,-1.3763,-1.381,-1.3716,-1.3716,-1.3668,-1.3668,-1.361,-1.361,-1.361,-1.361,-1.361,-1.361,-1.361,-1.361,-1.361,-1.361,-1.361,-1.361,-1.361,-1.361,-1.361,-1.361,-1.361,-1.361,-1.361,-1.361,-1.361,-1.361,-1.361,-1.361,-1.3563,-1.3515,-1.3525,-1.3382,-1.3286,-1.319,-1.3084,-1.3065,-1.3036,-1.2988,-1.2939,-1.2939,-1.2891,-1.2929,-1.2939,-1.2891,-1.2891,-1.2929,-1.2881,-1.2891,-1.2891,-1.2891,-1.2891,-1.2891,-1.2891,-2.5453,-2.5005,-2.5005,-2.5005,-2.5005,-2.5005,-2.5005,-2.5005,-2.5005,-2.5005,-2.4991,-2.4869,-2.4745,-2.4718,-2.4444,-2.4077,-2.3387,-2.2588,-2.1737,-2.1002,-2.0304,-1.9699,-1.9466,-1.9303,-1.9344,-1.9186,-1.9344,-1.8975,-1.823,-1.7579,-1.7387,-1.6932,-1.587,-1.54,-1.5522,-1.5085,-1.5006,-1.5006,-1.4915,-1.4686,-1.4697,-1.4686,-1.4686,-1.4697,-1.4686,-1.4731,-1.4823,-1.496,-1.496,-1.4823,-1.488,-1.4926,-1.4697,-1.488,-1.4869,-1.4455,-1.4176,-1.4046,-1.3868,-1.3858,-1.3821,-1.3821,-1.3821,-1.3763,-1.3716,-1.3668,-1.361,-1.361,-1.361,-1.361,-1.361,-1.361,-1.361,-1.361,-1.361,-1.361,-1.361,-1.361,-1.361,-1.361,-1.361,-1.361,-1.361,-1.361,-1.361,-1.361,-1.361,-1.361,-1.361,-1.3515,-1.3515,-1.342,-1.3334,-1.321,-1.3113,-1.3065,-1.2968,-1.2978,-1.2939,-1.2939,-1.2939,-1.2891,-1.2891,-1.2891,-1.2891,-1.2891,-1.2891,-1.2891,-1.2891,-1.2891,-1.2891,-1.2891,-1.2891,-1.2891,-1.2891,-2.5061,-2.5005,-2.5005,-2.5005,-2.5005,-2.5005,-2.5005,-2.5005,-2.5005,-2.5005,-2.4896,-2.442,-2.4162,-2.3918,-2.3284,-2.2855,-2.2456,-2.2007,-2.1575,-2.116,-2.0708,-2.0425,-2.0461,-2.0498,-2.0067,-1.9862,-2.0182,-1.9811,-1.9007,-1.8066,-1.7485,-1.7255,-1.6541,-1.58,-1.592,-1.5611,-1.5644,-1.57,-1.5611,-1.5567,-1.5567,-1.5567,-1.5534,-1.5579,-1.5522,-1.5522,-1.5445,-1.549,-1.5355,-1.5311,-1.5142,-1.5142,-1.5175,-1.5108,-1.5198,-1.5085,-1.4903,-1.4501,-1.4046,-1.3905,-1.3858,-1.381,-1.3658,-1.3668,-1.3668,-1.3668,-1.361,-1.361,-1.361,-1.361,-1.361,-1.361,-1.361,-1.361,-1.361,-1.361,-1.361,-1.361,-1.361,-1.361,-1.361,-1.361,-1.361,-1.361,-1.361,-1.361,-1.361,-1.361,-1.3563,-1.3515,-1.3467,-1.3372,-1.3296,-1.3162,-1.3075,-1.2978,-1.2929,-1.2891,-1.2891,-1.2891,-1.2891,-1.2891,-1.2891,-1.2891,-1.2891,-1.2891,-1.2891,-1.2891,-1.2891,-1.2891,-1.2891,-1.2891,-1.2891,-1.2891,-1.2891,-2.4706,-2.5005,-2.5005,-2.5005,-2.5005,-2.5005,-2.5005,-2.5005,-2.5005,-2.4815,-2.4517,-2.4162,-2.3729,-2.3245,-2.2831,-2.2459,-2.2062,-2.1655,-2.1302,-2.108,-2.083,-2.0699,-2.0649,-2.0712,-2.0498,-2.0435,-2.0485,-2.0498,-1.975,-1.9182,-1.8649,-1.81,-1.7285,-1.6698,-1.6485,-1.6064,-1.602,-1.602,-1.5976,-1.5788,-1.5788,-1.5832,-1.5832,-1.5832,-1.5832,-1.5832,-1.5832,-1.602,-1.5844,-1.5756,-1.5724,-1.5768,-1.5712,-1.5756,-1.5856,-1.5579,-1.5656,-1.5299,-1.4686,-1.4316,-1.414,-1.3952,-1.381,-1.3621,-1.361,-1.361,-1.361,-1.361,-1.361,-1.361,-1.361,-1.361,-1.361,-1.361,-1.361,-1.361,-1.361,-1.361,-1.361,-1.361,-1.361,-1.361,-1.3563,-1.3563,-1.3563,-1.3563,-1.3563,-1.3621,-1.3573,-1.3467,-1.342,-1.3362,-1.3238,-1.3123,-1.3075,-1.2978,-1.2929,-1.2891,-1.2891,-1.2891,-1.2891,-1.2891,-1.2891,-1.2891,-1.2891,-1.2891,-1.2891,-1.2891,-1.2891,-1.2891,-1.2891,-1.2891,-1.2891,-1.2891,-1.2891,-2.4164,-2.4584,-2.4869,-2.5005,-2.5005,-2.5005,-2.5005,-2.5005,-2.5005,-2.4679,-2.4096,-2.3622,-2.2978,-2.2458,-2.2194,-2.1825,-2.1457,-2.1341,-2.1105,-2.0817,-2.0699,-2.0699,-2.0699,-2.0699,-2.0699,-2.0699,-2.0649,-2.0599,-2.0531,-2.0156,-1.9612,-1.9107,-1.799,-1.756,-1.72,-1.6713,-1.6411,-1.6595,-1.6411,-1.6269,-1.6225,-1.6225,-1.6194,-1.6151,-1.6095,-1.6107,-1.6139,-1.638,-1.6337,-1.625,-1.6306,-1.6293,-1.6107,-1.6207,-1.625,-1.6064,-1.6151,-1.602,-1.5445,-1.504,-1.4686,-1.4419,-1.414,-1.3905,-1.38,-1.3752,-1.361,-1.361,-1.361,-1.361,-1.361,-1.361,-1.361,-1.361,-1.361,-1.361,-1.361,-1.361,-1.361,-1.361,-1.361,-1.3563,-1.3563,-1.3515,-1.3515,-1.3563,-1.3563,-1.3573,-1.3478,-1.342,-1.3334,-1.3238,-1.3152,-1.3027,-1.2978,-1.2978,-1.2939,-1.2891,-1.2891,-1.2891,-1.2891,-1.2891,-1.2891,-1.2891,-1.2891,-1.2891,-1.2891,-1.2891,-1.2891,-1.2891,-1.2891,-1.2891,-1.2891,-1.2891,-1.2891,-2.3256,-2.3392,-2.4544,-2.4951,-2.4937,-2.5005,-2.4978,-2.4842,-2.4924,-2.4557,-2.3771,-2.2736,-2.1767,-2.1268,-2.1141,-2.1011,-2.0791,-2.0764,-2.0764,-2.0738,-2.0699,-2.0699,-2.0699,-2.0699,-2.0699,-2.0699,-2.0699,-2.0699,-2.0686,-2.0607,-2.0165,-1.9634,-1.8552,-1.8187,-1.7783,-1.7222,-1.6918,-1.7031,-1.6934,-1.6934,-1.6934,-1.6989,-1.6947,-1.6863,-1.6863,-1.6905,-1.6918,-1.6863,-1.682,-1.6693,-1.6748,-1.6705,-1.6509,-1.6552,-1.6552,-1.6522,-1.6479,-1.638,-1.612,-1.5579,-1.5175,-1.496,-1.464,-1.4326,-1.4316,-1.3894,-1.3705,-1.3763,-1.3821,-1.3726,-1.3668,-1.361,-1.3705,-1.3658,-1.3658,-1.3716,-1.3658,-1.361,-1.361,-1.361,-1.361,-1.3563,-1.3515,-1.3515,-1.3409,-1.342,-1.3467,-1.3467,-1.3324,-1.3228,-1.3113,-1.3065,-1.2978,-1.2939,-1.2939,-1.2891,-1.2891,-1.2891,-1.2891,-1.2891,-1.2891,-1.2891,-1.2891,-1.2891,-1.2891,-1.2891,-1.2891,-1.2891,-1.2891,-1.2891,-1.2891,-1.2891,-1.2891,-1.2891,-1.2891,-2.2837,-2.3229,-2.3689,-2.3865,-2.3865,-2.3865,-2.3865,-2.3865,-2.3865,-2.3513,-2.2827,-2.1904,-2.1272,-2.0977,-2.0838,-2.0775,-2.0699,-2.0699,-2.0699,-2.0699,-2.0699,-2.0699,-2.0699,-2.0699,-2.0699,-2.0699,-2.0699,-2.0699,-2.0699,-2.0646,-2.0283,-1.9695,-1.8911,-1.8466,-1.8035,-1.7539,-1.7277,-1.7212,-1.7212,-1.7212,-1.7212,-1.7212,-1.717,-1.7157,-1.7128,-1.7115,-1.7115,-1.7073,-1.7086,-1.7086,-1.7002,-1.696,-1.6905,-1.6863,-1.682,-1.6791,-1.6748,-1.6663,-1.6534,-1.5976,-1.5478,-1.5142,-1.4915,-1.4823,-1.4834,-1.4593,-1.4534,-1.4452,-1.4219,-1.4114,-1.4195,-1.4121,-1.4046,-1.38,-1.3752,-1.3847,-1.381,-1.3763,-1.361,-1.361,-1.361,-1.3563,-1.3515,-1.3467,-1.3372,-1.3266,-1.3324,-1.3324,-1.3228,-1.3142,-1.3017,-1.2978,-1.2929,-1.2891,-1.2891,-1.2891,-1.2891,-1.2891,-1.2891,-1.2891,-1.2891,-1.2891,-1.2891,-1.2891,-1.2891,-1.2891,-1.2891,-1.2891,-1.2891,-1.2891,-1.2891,-1.2891,-1.2891,-1.2891,-1.2891,-2.2291,-2.2634,-2.2698,-2.2877,-2.3162,-2.3189,-2.3189,-2.3189,-2.3229,-2.2785,-2.2062,-2.1462,-2.1109,-2.0938,-2.0901,-2.0825,-2.0699,-2.0699,-2.0699,-2.0699,-2.0699,-2.0699,-2.0699,-2.0699,-2.0699,-2.0699,-2.0699,-2.0699,-2.0686,-2.0529,-2.0165,-1.9695,-1.9054,-1.844,-1.8074,-1.7552,-1.7212,-1.7212,-1.7212,-1.7212,-1.7212,-1.7212,-1.7157,-1.7115,-1.7128,-1.7073,-1.7073,-1.7086,-1.7086,-1.7086,-1.7073,-1.7128,-1.7128,-1.7086,-1.7044,-1.6973,-1.6888,-1.6791,-1.6577,-1.6306,-1.5832,-1.568,-1.5412,-1.5322,-1.5277,-1.5187,-1.496,-1.4982,-1.4764,-1.4625,-1.4664,-1.4532,-1.4638,-1.4556,-1.4466,-1.4466,-1.414,-1.3999,-1.3752,-1.3658,-1.361,-1.3563,-1.3457,-1.3372,-1.3324,-1.318,-1.3142,-1.3152,-1.3152,-1.3065,-1.3017,-1.2978,-1.2929,-1.2929,-1.2891,-1.2891,-1.2891,-1.2891,-1.2891,-1.2891,-1.2891,-1.2891,-1.2891,-1.2891,-1.2891,-1.2891,-1.2891,-1.2891,-1.2891,-1.2891,-1.2891,-1.2891,-1.2891,-1.2891,-1.2891,-2.1477,-2.1402,-2.1505,-2.2119,-2.3013,-2.3148,-2.3107,-2.2986,-2.3013,-2.2663,-2.1968,-2.1394,-2.1109,-2.0938,-2.0888,-2.0825,-2.0699,-2.0699,-2.0699,-2.0699,-2.0699,-2.0699,-2.0699,-2.0699,-2.0699,-2.0699,-2.0686,-2.0686,-2.0607,-2.0178,-1.9891,-1.9381,-1.861,-1.8061,-1.8009,-1.7499,-1.7225,-1.7212,-1.7212,-1.7212,-1.7212,-1.7199,-1.7157,-1.7086,-1.7086,-1.7073,-1.7044,-1.7044,-1.7044,-1.7031,-1.7031,-1.7002,-1.6973,-1.6973,-1.6888,-1.6774,-1.6718,-1.6663,-1.6522,-1.6466,-1.638,-1.625,-1.5932,-1.58,-1.5712,-1.5457,-1.5312,-1.5461,-1.5154,-1.496,-1.4926,-1.4926,-1.5165,-1.5188,-1.5108,-1.4926,-1.4605,-1.4197,-1.3999,-1.38,-1.3668,-1.3573,-1.342,-1.3314,-1.3228,-1.3132,-1.3007,-1.2968,-1.3075,-1.3027,-1.2978,-1.2929,-1.2929,-1.2929,-1.2891,-1.2891,-1.2891,-1.2891,-1.2891,-1.2891,-1.2891,-1.2891,-1.2891,-1.2891,-1.2891,-1.2891,-1.2891,-1.2891,-1.2891,-1.2891,-1.2891,-1.2891,-1.2891,-1.2891,-1.2891,-2.141,-2.141,-2.141,-2.1605,-2.197,-2.1984,-2.1984,-2.2034,-2.197,-2.1812,-2.1488,-2.1171,-2.101,-2.0888,-2.0825,-2.0762,-2.0699,-2.0699,-2.0699,-2.0699,-2.0699,-2.0699,-2.0699,-2.0699,-2.0699,-2.0699,-2.0686,-2.0476,-2.0061,-1.9812,-1.9251,-1.8649,-1.8048,-1.7565,-1.746,-1.7251,-1.7212,-1.7212,-1.7212,-1.7212,-1.7212,-1.7199,-1.7157,-1.7128,-1.7128,-1.7128,-1.7086,-1.7044,-1.7044,-1.7031,-1.7031,-1.696,-1.696,-1.696,-1.6846,-1.6718,-1.6675,-1.662,-1.6522,-1.6479,-1.6479,-1.6436,-1.6337,-1.6207,-1.6207,-1.612,-1.6057,-1.5937,-1.5659,-1.5611,-1.5888,-1.5623,-1.5614,-1.5529,-1.5415,-1.53,-1.5006,-1.4558,-1.4233,-1.4093,-1.3952,-1.361,-1.3362,-1.3276,-1.3228,-1.3142,-1.3017,-1.2968,-1.2978,-1.2978,-1.2929,-1.2929,-1.2939,-1.2939,-1.2891,-1.2891,-1.2891,-1.2891,-1.2891,-1.2891,-1.2891,-1.2891,-1.2891,-1.2891,-1.2891,-1.2891,-1.2891,-1.2891,-1.2891,-1.2891,-1.2891,-1.2891,-1.2891,-1.2891,-1.2891,-2.141,-2.141,-2.141,-2.141,-2.141,-2.141,-2.141,-2.141,-2.141,-2.1326,-2.1291,-2.1193,-2.1059,-2.0961,-2.0861,-2.0749,-2.0699,-2.0699,-2.0699,-2.0699,-2.0699,-2.0699,-2.0699,-2.0699,-2.0699,-2.0699,-2.0673,-2.0502,-2.0178,-1.9695,-1.8885,-1.7983,-1.7408,-1.7303,-1.7238,-1.7225,-1.7212,-1.7212,-1.7212,-1.7212,-1.7212,-1.7199,-1.7212,-1.7212,-1.7212,-1.717,-1.7128,-1.7128,-1.7086,-1.7073,-1.7073,-1.6989,-1.7031,-1.7002,-1.6918,-1.6833,-1.6748,-1.6705,-1.6633,-1.6577,-1.6577,-1.6509,-1.6522,-1.6534,-1.6534,-1.6392,-1.6436,-1.6349,-1.6151,-1.6238,-1.6337,-1.6064,-1.6001,-1.5921,-1.5852,-1.5724,-1.5445,-1.4994,-1.4686,-1.4501,-1.414,-1.3752,-1.3409,-1.3276,-1.3238,-1.3152,-1.3065,-1.3027,-1.2929,-1.2929,-1.2891,-1.2891,-1.2891,-1.2891,-1.2891,-1.2891,-1.2891,-1.2891,-1.2891,-1.2891,-1.2891,-1.2891,-1.2891,-1.2891,-1.2891,-1.2891,-1.2891,-1.2891,-1.2891,-1.2891,-1.2891,-1.2891,-1.2891,-1.2891,-1.2891,-2.141,-2.141,-2.141,-2.141,-2.141,-2.141,-2.141,-2.141,-2.141,-2.1375,-2.1361,-2.1326,-2.1193,-2.0983,-2.0934,-2.0835,-2.0699,-2.0699,-2.0699,-2.0699,-2.0699,-2.0699,-2.0699,-2.0699,-2.0699,-2.0699,-2.0646,-2.0515,-2.0463,-1.9237,-1.814,-1.7525,-1.7277,-1.7212,-1.7212,-1.7212,-1.7212,-1.7212,-1.7212,-1.7212,-1.7212,-1.7212,-1.7212,-1.7212,-1.7212,-1.7157,-1.7115,-1.7073,-1.7073,-1.7073,-1.7073,-1.7115,-1.7157,-1.717,-1.7086,-1.7002,-1.6876,-1.6761,-1.6675,-1.6633,-1.6577,-1.6522,-1.6522,-1.6534,-1.6534,-1.6534,-1.6534,-1.6534,-1.6392,-1.6436,-1.6436,-1.6436,-1.6392,-1.6374,-1.6374,-1.6163,-1.592,-1.5567,-1.5209,-1.4903,-1.4466,-1.4093,-1.3705,-1.3515,-1.3238,-1.32,-1.3104,-1.3027,-1.2978,-1.2929,-1.2891,-1.2891,-1.2891,-1.2891,-1.2891,-1.2891,-1.2891,-1.2891,-1.2891,-1.2891,-1.2891,-1.2891,-1.2891,-1.2891,-1.2891,-1.2891,-1.2891,-1.2891,-1.2891,-1.2891,-1.2891,-1.2891,-1.2891,-1.2891,-1.2891,-2.141,-2.141,-2.141,-2.141,-2.141,-2.141,-2.141,-2.141,-2.141,-2.1313,-2.1131,-2.1131,-2.1046,-2.0799,-2.0812,-2.0762,-2.0699,-2.0699,-2.0699,-2.0699,-2.0699,-2.0699,-2.0699,-2.0699,-2.0699,-2.0699,-2.062,-2.0319,-1.9355,-1.831,-1.7748,-1.7251,-1.7212,-1.7212,-1.7212,-1.7212,-1.7199,-1.7253,-1.724,-1.7295,-1.7295,-1.7282,-1.7282,-1.7323,-1.7323,-1.7282,-1.7282,-1.7199,-1.7157,-1.7073,-1.6989,-1.696,-1.6846,-1.6846,-1.6791,-1.665,-1.6607,-1.6577,-1.6577,-1.6577,-1.6577,-1.6522,-1.6534,-1.6534,-1.6534,-1.6534,-1.6534,-1.6534,-1.6534,-1.6534,-1.6534,-1.6534,-1.6534,-1.6534,-1.6534,-1.6392,-1.6151,-1.592,-1.5611,-1.5254,-1.4869,-1.428,-1.3941,-1.3515,-1.3228,-1.319,-1.3152,-1.3065,-1.2978,-1.2929,-1.2891,-1.2891,-1.2891,-1.2891,-1.2891,-1.2891,-1.2891,-1.2891,-1.2891,-1.2891,-1.2891,-1.2891,-1.2891,-1.2891,-1.2891,-1.2891,-1.2891,-1.2891,-1.2891,-1.2891,-1.2891,-1.2891,-1.2891,-1.2891,-1.2891,-2.1506,-2.141,-2.141,-2.141,-2.141,-2.141,-2.141,-2.141,-2.141,-2.1277,-2.1144,-2.1131,-2.0997,-2.0835,-2.0812,-2.0762,-2.0699,-2.0699,-2.0699,-2.0699,-2.0699,-2.0699,-2.0699,-2.0699,-2.0699,-2.0699,-2.0581,-2.0293,-1.9107,-1.8153,-1.7525,-1.7212,-1.7212,-1.7212,-1.7212,-1.724,-1.731,-1.7323,-1.7365,-1.7515,-1.7597,-1.757,-1.7557,-1.7625,-1.7679,-1.7679,-1.7679,-1.7544,-1.7475,-1.7352,-1.7282,-1.7115,-1.7002,-1.6918,-1.6876,-1.6808,-1.6863,-1.6778,-1.6748,-1.6705,-1.6607,-1.6522,-1.6534,-1.6534,-1.6534,-1.6534,-1.6534,-1.6534,-1.6534,-1.6534,-1.6534,-1.6534,-1.6534,-1.6534,-1.6534,-1.6534,-1.638,-1.6238,-1.5964,-1.5656,-1.5175,-1.4558,-1.4046,-1.3552,-1.3218,-1.318,-1.3094,-1.3017,-1.2978,-1.2939,-1.2891,-1.2891,-1.2891,-1.2891,-1.2891,-1.2891,-1.2891,-1.2891,-1.2891,-1.2891,-1.2891,-1.2891,-1.2891,-1.2891,-1.2891,-1.2891,-1.2891,-1.2891,-1.2891,-1.2891,-1.2891,-1.2891,-1.2891,-1.2891,-1.2891,-2.165,-2.141,-2.141,-2.141,-2.141,-2.141,-2.141,-2.141,-2.141,-2.1375,-2.1326,-2.1229,-2.1144,-2.0934,-2.0911,-2.0825,-2.0762,-2.0762,-2.0699,-2.0699,-2.0699,-2.0699,-2.0699,-2.0699,-2.0699,-2.0699,-2.0568,-2.0218,-1.9512,-1.8545,-1.7669,-1.7238,-1.7212,-1.7212,-1.7212,-1.7323,-1.7462,-1.7653,-1.7693,-1.7788,-1.8284,-1.8256,-1.8028,-1.8344,-1.8422,-1.8422,-1.8422,-1.8383,-1.8266,-1.7988,-1.7801,-1.7598,-1.7352,-1.7073,-1.7073,-1.7073,-1.7002,-1.6918,-1.6833,-1.6791,-1.665,-1.6565,-1.6534,-1.6534,-1.6534,-1.6534,-1.6534,-1.6534,-1.6534,-1.6534,-1.6534,-1.6534,-1.6534,-1.6534,-1.6534,-1.6534,-1.6436,-1.6337,-1.6238,-1.592,-1.5478,-1.4858,-1.4512,-1.4071,-1.36,-1.3362,-1.3256,-1.318,-1.2958,-1.2968,-1.2968,-1.2968,-1.2891,-1.2891,-1.2891,-1.2891,-1.2891,-1.2891,-1.2891,-1.2891,-1.2891,-1.2891,-1.2891,-1.2891,-1.2891,-1.2891,-1.2891,-1.2891,-1.2891,-1.2891,-1.2891,-1.2891,-1.2891,-1.2891,-1.2891,-2.1935,-2.1664,-2.1471,-2.141,-2.141,-2.141,-2.141,-2.141,-2.141,-2.1326,-2.1277,-2.1229,-2.1131,-2.1033,-2.0997,-2.0911,-2.0875,-2.0825,-2.0775,-2.0762,-2.0699,-2.0699,-2.0699,-2.0699,-2.0699,-2.0699,-2.0555,-2.01,-1.9224,-1.8453,-1.7826,-1.7264,-1.724,-1.7282,-1.7365,-1.7516,-1.7801,-1.8037,-1.8185,-1.8282,-1.868,-1.8609,-1.8422,-1.8539,-1.8553,-1.8616,-1.8577,-1.8461,-1.8291,-1.804,-1.8147,-1.7908,-1.7475,-1.7086,-1.6888,-1.6846,-1.696,-1.696,-1.6846,-1.6748,-1.6663,-1.6565,-1.6534,-1.6534,-1.6534,-1.6534,-1.6534,-1.6534,-1.6534,-1.6534,-1.6534,-1.6534,-1.6534,-1.6534,-1.6534,-1.6534,-1.6534,-1.6479,-1.6423,-1.6107,-1.57,-1.5344,-1.496,-1.4547,-1.4118,-1.3909,-1.3856,-1.3716,-1.3273,-1.3102,-1.3122,-1.3132,-1.2929,-1.2891,-1.2891,-1.2891,-1.2891,-1.2891,-1.2891,-1.2891,-1.2891,-1.2891,-1.2891,-1.2891,-1.2891,-1.2891,-1.2891,-1.2891,-1.2891,-1.2891,-1.2891,-1.2891,-1.2891,-1.2891,-1.2891,-2.2231,-2.1949,-2.1712,-2.1568,-2.1568,-2.1458,-2.141,-2.141,-2.141,-2.1375,-2.1264,-2.1229,-2.118,-2.1082,-2.1046,-2.0997,-2.0911,-2.0911,-2.0911,-2.0861,-2.0762,-2.0812,-2.0762,-2.0712,-2.0699,-2.0673,-2.0345,-1.976,-1.8898,-1.8362,-1.7856,-1.7527,-1.7475,-1.7557,-1.7707,-1.8028,-1.8238,-1.8517,-1.8664,-1.8922,-1.9128,-1.907,-1.895,-1.8936,-1.9049,-1.9011,-1.9035,-1.8921,-1.8769,-1.8563,-1.8461,-1.8108,-1.7787,-1.7625,-1.7282,-1.7086,-1.7044,-1.7073,-1.6833,-1.6705,-1.6663,-1.6577,-1.6522,-1.6522,-1.6534,-1.6534,-1.6534,-1.6534,-1.6534,-1.6534,-1.6534,-1.6534,-1.6534,-1.6534,-1.6534,-1.6534,-1.6534,-1.6479,-1.6479,-1.6337,-1.5976,-1.5656,-1.5311,-1.496,-1.4525,-1.4365,-1.4367,-1.4207,-1.381,-1.349,-1.3453,-1.3331,-1.3238,-1.2978,-1.2891,-1.2891,-1.2891,-1.2891,-1.2891,-1.2891,-1.2891,-1.2891,-1.2891,-1.2891,-1.2891,-1.2891,-1.2891,-1.2891,-1.2891,-1.2891,-1.2891,-1.2891,-1.2891,-1.2891,-1.2891,-2.2417,-2.2137,-2.1855,-2.1746,-2.1712,-2.152,-2.141,-2.141,-2.141,-2.141,-2.1375,-2.1264,-2.1229,-2.1193,-2.1144,-2.1033,-2.0983,-2.0947,-2.0997,-2.0911,-2.0875,-2.0825,-2.0762,-2.0762,-2.062,-2.0447,-2.0193,-1.9561,-1.8869,-1.8508,-1.8311,-1.7963,-1.7948,-1.8082,-1.8397,-1.8592,-1.8717,-1.8893,-1.9145,-1.9656,-1.9752,-1.9715,-1.9612,-1.967,-1.9735,-1.9705,-1.969,-1.9617,-1.9435,-1.9161,-1.8745,-1.8344,-1.8108,-1.8028,-1.772,-1.7488,-1.7598,-1.7434,-1.7128,-1.6947,-1.6778,-1.6607,-1.6565,-1.6522,-1.6522,-1.6534,-1.6534,-1.6534,-1.6534,-1.6534,-1.6534,-1.6534,-1.6534,-1.6534,-1.6534,-1.6534,-1.6534,-1.6534,-1.6479,-1.6479,-1.625,-1.592,-1.5611,-1.5266,-1.5073,-1.4915,-1.4767,-1.4607,-1.4413,-1.4218,-1.4125,-1.3888,-1.3695,-1.343,-1.3113,-1.3075,-1.3113,-1.2891,-1.2891,-1.2891,-1.2891,-1.2891,-1.2891,-1.2891,-1.2891,-1.2891,-1.2891,-1.2891,-1.2891,-1.2891,-1.2891,-1.2891,-1.2891,-1.2891,-1.2891,-2.2324,-2.1855,-2.1616,-2.1471,-2.1458,-2.1423,-2.141,-2.141,-2.141,-2.141,-2.1361,-2.1375,-2.1375,-2.1375,-2.1326,-2.1229,-2.1082,-2.1046,-2.0898,-2.0749,-2.0825,-2.0775,-2.0861,-2.097,-2.0447,-2.0281,-2.0174,-1.9709,-1.9037,-1.8959,-1.8796,-1.84,-1.8344,-1.8422,-1.85,-1.8731,-1.8997,-1.9169,-1.9384,-1.9796,-1.9796,-1.9856,-2.005,-2.0064,-1.9989,-1.9809,-1.9705,-1.9632,-1.9574,-1.9391,-1.9064,-1.863,-1.8461,-1.8369,-1.8108,-1.7868,-1.7974,-1.7868,-1.7598,-1.7393,-1.7173,-1.6748,-1.6705,-1.6607,-1.662,-1.6534,-1.6534,-1.6534,-1.6534,-1.6534,-1.6534,-1.6534,-1.6534,-1.6534,-1.6534,-1.6534,-1.6534,-1.6534,-1.6479,-1.6479,-1.6436,-1.6151,-1.5876,-1.5668,-1.5635,-1.5522,-1.5623,-1.5377,-1.4903,-1.479,-1.4767,-1.4527,-1.4247,-1.3894,-1.3583,-1.3488,-1.3488,-1.3162,-1.2978,-1.3113,-1.3113,-1.2939,-1.2891,-1.2939,-1.2939,-1.2891,-1.2891,-1.2891,-1.2891,-1.2891,-1.2891,-1.2891,-1.2891,-1.2891,-1.2891]},{"header":{"parameterUnit":"m.s-1","parameterCategory":1,"la1":31.0,"la2":29.5877,"lo1":-88.7671,"lo2":-86.6584,"dy":0.0162,"dx":0.0185,"nx":115,"ny":88,"refTime":"2023-09-06T00:00:00:Z","depth":0,"parameterNumber":3,"parameterNumberName":"V-component_of_WINDS"},"data":[0.0,0.0,0.0,0.0,0.0,0.0,0.0,0.0,0.0,0.0,0.0,0.0,0.0,0.0,0.0,0.0,0.0,0.0,0.0,0.0,0.0,0.0,0.0,0.0,0.0,0.0,0.0,0.0,0.0,0.0,0.0,0.0,0.0,0.0,0.0,0.0,0.0,0.0,0.0,0.0,0.0,0.0,0.0,0.0,0.0,0.0,0.0,0.0,0.0,0.0,0.0,0.0,0.0,0.0,0.0,0.0,0.0,0.0,0.0,0.0,0.0,0.0,0.0,0.0,0.0,0.0,0.0,0.0,0.0,0.0,0.0,0.0,0.0,0.0,0.0,0.0,0.0,0.0,0.0,0.0,0.0,0.0,0.0,0.0,0.0,0.0,0.0,0.0,0.0,0.0,0.0,0.0,0.0,0.0,0.0,0.0,0.0,0.0,0.0,0.0,0.0,0.0,0.0,0.0,0.0,0.0,0.0,0.0,0.0,0.0,0.0,0.0,0.0,0.0,0.0,0.0,0.0,0.0,0.0,0.0,0.0,0.0,0.0,0.0,0.0,0.0,0.0,0.0,0.0,0.0,0.0,0.0,0.0,0.0,0.0,0.0,0.0,0.0,0.0,0.0,0.0,0.0,0.0,0.0,0.0,0.0,0.0,0.0,0.0,0.0,0.0,0.0,0.0,0.0,0.0,0.0,0.0,0.0,0.0,0.0,0.0,0.0,0.0,0.0,0.0,0.0,0.0,0.0,0.0,0.0,0.0,0.0,0.0,0.0,0.0,0.0,0.0,0.0,0.0,0.0,0.0,0.0,0.0,0.0,0.0,0.0,0.0,0.0,0.0,0.0,0.0,0.0,0.0,0.0,0.0,0.0,0.0,0.0,0.0,0.0,0.0,0.0,0.0,0.0,0.0,0.0,0.0,0.0,0.0,0.0,0.0,0.0,0.0,0.0,0.0,0.0,0.0,0.0,0.0,0.0,0.0,0.0,0.0,0.0,0.0,0.0,0.0,0.0,0.0,0.0,0.0,0.0,0.0,0.0,0.0,0.0,0.0,0.0,0.0,0.0,0.0,0.0,0.0,0.0,0.0,0.0,0.0,0.0,0.0,0.0,0.0,0.0,0.0,0.0,0.0,0.0,0.0,0.0,0.0,0.0,0.0,0.0,0.0,0.0,0.0,0.0,0.0,0.0,0.0,0.0,0.0,0.0,0.0,0.0,0.0,0.0,0.0,0.0,0.0,0.0,0.0,0.0,0.0,0.0,0.0,0.0,0.0,0.0,0.0,0.0,0.0,0.0,0.0,0.0,0.0,0.0,0.0,0.0,0.0,0.0,0.0,0.0,0.0,0.0,0.0,0.0,0.0,0.0,0.0,0.0,0.0,0.0,0.0,0.0,0.0,0.0,0.0,0.0,0.0,0.0,0.0,0.0,0.0,0.0,0.0,0.0,0.0,0.0,0.0,0.0,0.0,0.0,0.0,0.0,0.0,0.0,0.0,0.0,0.0,0.0,0.0,0.0,0.0,0.0,0.0,0.0,0.0,0.0,0.0,0.0,0.0,0.0,0.0,0.0,0.0,0.0,0.0,0.0,0.0,0.0,0.0,0.0,0.0,0.0,0.0,0.0,0.0,0.0,0.0,0.0,0.0,0.0,0.0,0.0,0.0,0.0,0.0,0.0,0.0,0.0,0.0,0.0,0.0,0.0,0.0,0.0,0.0,0.0,0.0,0.0,0.0,0.0,0.0,0.0,0.0,0.0,0.0,0.0,0.0,0.0,0.0,0.0,0.0,0.0,0.0,0.0,0.0,0.0,0.0,0.0,0.0,0.0,0.0,0.0,0.0,0.0,0.0,0.0,0.0,0.0,0.0,0.0,0.0,0.0,0.0,0.0,0.0,0.0,0.0,0.0,0.0,0.0,0.0,0.0,0.0,0.0,0.0,0.0,0.0,0.0,0.0,0.0,0.0,0.0,0.0,0.0,0.0,0.0,0.0,0.0,0.0,0.0,0.0,0.0,0.0,0.0,0.0,0.0,0.0,0.0,0.0,0.0,0.0,0.0,0.0,0.0,0.0,0.0,0.0,0.0,0.0,0.0,0.0,0.0,0.0,0.0,0.0,0.0,0.0,0.0,0.0,0.0,0.0,0.0,0.0,0.0,0.0,0.0,0.0,0.0,0.0,0.0,0.0,0.0,0.0,0.0,0.0,0.0,0.0,0.0,0.0,0.0,0.0,0.0,0.0,0.0,0.0,0.0,0.0,0.0,0.0,0.0,0.0,0.0,0.0,0.0,0.0,0.0,0.0,0.0,0.0,0.0,0.0,0.0,0.0,0.0,0.0,0.0,0.0,0.0,0.0,0.0,0.0,0.0,0.0,0.0,0.0,0.0,0.0,0.0,0.0,0.0,0.0,0.0,0.0,0.0,0.0,0.0,0.0,0.0,0.0,0.0,0.0,0.0,0.0,0.0,0.0,0.0,0.0,0.0,0.0,0.0,0.0,0.0,0.0,0.0,0.0,0.0,0.0,0.0,0.0,0.0,0.0,0.0,0.0,0.0,0.0,0.0,0.0,0.0,0.0,0.0,0.0,0.0,0.0,0.0,0.0,0.0,0.0,0.0,0.0,0.0,0.0,0.0,0.0,0.0,0.0,0.0,0.0,0.0,0.0,0.0,0.0,0.0,0.0,0.0,0.0,0.0,0.0,0.0,0.0,0.0,0.0,0.0,0.0,0.0,0.0,0.0,0.0,0.0,0.0,0.0,0.0,0.0,0.0,0.0,0.0,0.0,0.0,0.0,0.0,0.0,0.0,0.0,0.0,0.0,0.0,0.0,0.0,0.0,0.0,0.0,0.0,0.0,0.0,0.0,0.0,0.0,0.0,0.0,0.0,0.0,0.0,0.0,0.0,0.0,0.0,0.0,0.0,0.0,0.0,0.0,0.0,0.0,0.0,0.0,0.0,0.0,0.0,0.0,0.0,0.0,0.0,0.0,0.0,0.0,0.0,0.0,0.0,0.0,0.0,0.0,0.0,0.0,0.0,0.0,0.0,0.0,0.0,0.0,0.0,0.0,0.0,0.0,0.0,0.0,0.0,0.0,0.0,0.0,0.0,0.0,0.0,0.0,0.0,0.0,0.0,0.0,0.0,0.0,0.0,0.0,0.0,0.0,0.0,0.0,0.0,0.0,0.0,0.0,0.0,0.0,0.0,0.0,0.0,0.0,0.0,0.0,0.0,0.0,0.0,0.0,0.0,0.0,0.0,0.0,0.0,0.0,0.0,0.0,0.0,0.0,0.0,0.0,0.0,0.0,0.0,0.0,0.0,0.0,0.0,0.0,0.0,0.0,0.0,0.0,0.0,0.0,0.0,0.0,0.0,0.0,0.0,0.0,0.0,0.0,0.0,0.0,0.0,0.0,0.0,0.0,0.0,0.0,0.0,0.0,0.0,0.0,0.0,0.0,0.0,0.0,0.0,0.0,0.0,0.0,0.0,0.0,0.0,0.0,0.0,0.0,0.0,0.0,0.0,0.0,0.0,0.0,0.0,0.0,0.0,0.0,0.0,0.0,0.0,0.0,0.0,0.0,0.0,0.0,0.0,0.0,0.0,0.0,0.0,0.0,0.0,0.0,0.0,0.0,0.0,0.0,0.0,0.0,0.0,0.0,0.0,0.0,0.0,0.0,0.0,0.0,0.0,0.0,0.0,0.0,0.0,0.0,0.0,0.0,0.0,0.0,0.0,0.0,0.0,0.0,0.0,0.0,0.0,0.0,0.0,0.0,0.0,0.0,0.0,0.0,0.0,0.0,0.0,0.0,0.0,0.0,0.0,0.0,0.0,0.0,0.0,0.0,0.0,0.0,0.0,0.0,0.0,0.0,0.0,0.0,0.0,0.0,0.0,0.0,0.0,0.0,0.0,0.0,0.0,0.0,0.0,0.0,0.0,0.0,0.0,0.0,0.0,0.0,0.0,0.0,0.0,0.0,0.0,0.0,0.0,0.0,0.0,0.0,0.0,0.0,0.0,0.0,0.0,0.0,0.0,0.0,0.0,0.0,0.0,0.0,0.0,0.0,0.0,0.0,0.0,0.0,0.0,0.0,0.0,0.0,0.0,0.0,0.0,0.0,0.0,0.0,0.0,0.0,0.0,0.0,0.0,0.0,0.0,0.0,0.0,0.0,0.0,0.0,0.0,0.0,0.0,0.0,0.0,0.0,0.0,0.0,0.0,0.0,0.0,0.0,0.0,0.0,0.0,0.0,0.0,0.0,0.0,0.0,0.0,0.0,-1.1521,0.0,0.0,0.0,0.0,0.0,0.0,0.0,0.0,0.0,0.0,0.0,0.0,0.0,0.0,0.0,0.0,0.0,0.0,0.0,0.0,0.0,0.0,0.0,0.0,0.0,0.0,0.0,0.0,0.0,0.0,0.0,0.0,0.0,0.0,0.0,0.0,0.0,0.0,0.0,0.0,0.0,0.0,0.0,0.0,0.0,0.0,0.0,0.0,0.0,0.0,0.0,0.0,0.0,0.0,0.0,0.0,0.0,0.0,0.0,0.0,0.0,0.0,0.0,0.0,0.0,0.0,0.0,0.0,0.0,0.0,0.0,0.0,0.0,0.0,0.0,0.0,0.0,0.0,0.0,0.0,0.0,0.0,0.0,0.0,0.0,0.0,0.0,0.0,0.0,0.0,0.0,0.0,0.0,0.0,0.0,0.0,0.0,0.0,0.0,0.0,0.0,0.0,0.0,0.0,0.0,0.0,0.0,0.0,0.0,0.0,-1.4997,-1.4648,-1.337,-1.2528,-1.2138,0.0,0.0,0.0,0.0,0.0,0.0,0.0,0.0,0.0,0.0,0.0,0.0,0.0,0.0,0.0,0.0,0.0,0.0,0.0,0.0,0.0,0.0,0.0,0.0,0.0,0.0,0.0,0.0,0.0,0.0,0.0,0.0,0.0,0.0,0.0,0.0,0.0,0.0,0.0,0.0,0.0,0.0,0.0,0.0,0.0,0.0,0.0,0.0,0.0,0.0,0.0,0.0,0.0,0.0,0.0,0.0,0.0,0.0,0.0,0.0,0.0,0.0,0.0,0.0,0.0,0.0,0.0,0.0,0.0,0.0,0.0,0.0,0.0,0.0,0.0,0.0,0.0,0.0,0.0,0.0,0.0,0.0,0.0,0.0,0.0,0.0,0.0,0.0,0.0,0.0,0.0,0.0,0.0,0.0,0.0,0.0,0.0,0.0,0.0,0.0,0.0,0.0,0.0,0.0,0.0,0.0,0.0,0.0,0.0,0.0,0.0,0.0,-1.4062,-1.3059,-1.2633,0.0,0.0,0.0,0.0,0.0,0.0,0.0,0.0,0.0,0.0,0.0,0.0,0.0,0.0,0.0,0.0,0.0,0.0,0.0,0.0,0.0,0.0,0.0,0.0,0.0,0.0,0.0,0.0,0.0,0.0,0.0,0.0,0.0,0.0,0.0,0.0,0.0,0.0,0.0,0.0,0.0,0.0,0.0,0.0,0.0,0.0,0.0,0.0,0.0,0.0,0.0,0.0,0.0,0.0,0.0,0.0,0.0,0.0,0.0,0.0,0.0,0.0,0.0,0.0,0.0,0.0,0.0,0.0,0.0,0.0,0.0,0.0,0.0,0.0,0.0,0.0,0.0,0.0,0.0,0.0,0.0,0.0,0.0,0.0,0.0,0.0,0.0,0.0,0.0,0.0,0.0,0.0,0.0,0.0,0.0,0.0,0.0,0.0,0.0,0.0,0.0,0.0,0.0,0.0,0.0,0.0,0.0,0.0,0.0,0.0,-1.5641,-1.6364,-1.5402,0.0,-1.2637,0.0,0.0,0.0,0.0,0.0,0.0,0.0,0.0,0.0,0.0,0.0,0.0,0.0,0.0,0.0,0.0,0.0,0.0,0.0,0.0,0.0,0.0,0.0,0.0,0.0,0.0,0.0,0.0,0.0,0.0,0.0,0.0,0.0,0.0,0.0,0.0,0.0,0.0,0.0,0.0,0.0,0.0,0.0,0.0,0.0,0.0,0.0,0.0,0.0,0.0,0.0,0.0,0.0,0.0,0.0,0.0,0.0,0.0,0.0,0.0,0.0,0.0,0.0,0.0,0.0,0.0,0.0,0.0,0.0,0.0,0.0,0.0,0.0,0.0,0.0,0.0,0.0,0.0,0.0,0.0,0.0,0.0,0.0,0.0,0.0,0.0,0.0,0.0,0.0,0.0,0.0,0.0,0.0,0.0,0.0,0.0,0.0,0.0,0.0,0.0,0.0,0.0,0.0,0.0,0.0,0.0,0.0,0.0,0.0,0.0,-1.6172,-1.6378,-1.501,-1.3679,0.0,0.0,0.0,0.0,0.0,0.0,0.0,0.0,0.0,0.0,0.0,0.0,0.0,0.0,0.0,0.0,0.0,0.0,0.0,0.0,0.0,0.0,0.0,0.0,0.0,0.0,0.0,0.0,0.0,0.0,0.0,0.0,0.0,0.0,0.0,0.0,0.0,0.0,0.0,0.0,0.0,0.0,0.0,0.0,0.0,0.0,0.0,0.0,0.0,0.0,0.0,0.0,0.0,0.0,0.0,0.0,0.0,0.0,0.0,0.0,0.0,0.0,0.0,0.0,0.0,0.0,0.0,0.0,0.0,0.0,0.0,0.0,0.0,0.0,0.0,0.0,0.0,0.0,0.0,0.0,0.0,0.0,0.0,0.0,0.0,0.0,0.0,0.0,0.0,0.0,0.0,0.0,0.0,0.0,0.0,0.0,0.0,0.0,0.0,0.0,0.0,0.0,0.0,0.0,0.0,0.0,0.0,0.0,0.0,0.0,-1.6314,-1.6426,-1.6195,-1.5196,-1.3909,-1.2317,0.0,0.0,0.0,0.0,0.0,0.0,0.0,0.0,0.0,0.0,0.0,0.0,0.0,0.0,0.0,0.0,0.0,0.0,0.0,0.0,0.0,0.0,0.0,0.0,0.0,0.0,0.0,0.0,0.0,0.0,0.0,0.0,0.0,0.0,0.0,0.0,0.0,0.0,0.0,0.0,0.0,0.0,0.0,0.0,0.0,0.0,0.0,0.0,0.0,0.0,0.0,0.0,0.0,0.0,0.0,0.0,0.0,0.0,0.0,0.0,0.0,0.0,0.0,0.0,0.0,0.0,0.0,0.0,0.0,0.0,0.0,0.0,0.0,0.0,0.0,0.0,0.0,0.0,0.0,0.0,0.0,0.0,0.0,0.0,0.0,0.0,0.0,0.0,0.0,0.0,0.0,0.0,0.0,0.0,0.0,0.0,0.0,0.0,0.0,0.0,0.0,0.0,0.0,0.0,0.0,0.0,0.0,0.0,-1.7436,-1.6745,-1.6223,-1.607,-1.6627,-1.5462,0.0,0.0,0.0,0.0,0.0,0.0,0.0,0.0,0.0,0.0,0.0,0.0,0.0,0.0,0.0,0.0,0.0,0.0,0.0,0.0,0.0,0.0,0.0,0.0,0.0,0.0,0.0,0.0,0.0,0.0,0.0,0.0,0.0,0.0,0.0,0.0,0.0,0.0,0.0,0.0,0.0,0.0,0.0,0.0,0.0,0.0,0.0,0.0,0.0,0.0,0.0,0.0,0.0,0.0,0.0,0.0,0.0,0.0,0.0,0.0,0.0,0.0,0.0,0.0,0.0,0.0,0.0,0.0,0.0,0.0,0.0,0.0,0.0,0.0,0.0,0.0,0.0,0.0,0.0,0.0,0.0,0.0,0.0,0.0,0.0,0.0,0.0,0.0,0.0,0.0,0.0,0.0,0.0,0.0,0.0,0.0,0.0,0.0,0.0,0.0,0.0,0.0,0.0,0.0,0.0,0.0,0.0,0.0,0.0,-1.5165,-1.577,-1.6576,-1.7438,-1.5733,-1.4407,0.0,0.0,0.0,0.0,0.0,0.0,0.0,0.0,0.0,0.0,0.0,0.0,0.0,0.0,0.0,0.0,0.0,0.0,0.0,0.0,0.0,0.0,0.0,0.0,0.0,0.0,0.0,0.0,0.0,0.0,0.0,0.0,0.0,0.0,0.0,0.0,0.0,0.0,0.0,0.0,0.0,0.0,0.0,0.0,0.0,0.0,0.0,0.0,0.0,0.0,0.0,0.0,0.0,0.0,0.0,0.0,0.0,0.0,0.0,0.0,0.0,0.0,0.0,0.0,0.0,0.0,0.0,0.0,0.0,0.0,0.0,0.0,0.0,0.0,0.0,0.0,0.0,0.0,0.0,0.0,0.0,0.0,0.0,0.0,0.0,0.0,0.0,0.0,0.0,0.0,0.0,0.0,0.0,0.0,0.0,0.0,0.0,0.0,0.0,0.0,0.0,0.0,0.0,0.0,0.0,0.0,0.0,0.0,0.0,-1.4564,0.0,-1.6906,-1.7086,-1.5225,-1.3782,0.0,0.0,0.0,0.0,0.0,0.0,0.0,0.0,0.0,0.0,0.0,0.0,0.0,0.0,0.0,0.0,0.0,0.0,0.0,0.0,0.0,0.0,0.0,0.0,0.0,0.0,0.0,0.0,0.0,0.0,0.0,0.0,0.0,0.0,0.0,0.0,0.0,0.0,0.0,0.0,0.0,0.0,0.0,0.0,0.0,0.0,0.0,0.0,0.0,0.0,0.0,0.0,0.0,0.0,0.0,0.0,0.0,0.0,0.0,0.0,0.0,0.0,0.0,0.0,0.0,0.0,0.0,0.0,0.0,0.0,0.0,0.0,0.0,0.0,0.0,0.0,0.0,0.0,0.0,0.0,0.0,0.0,0.0,0.0,0.0,0.0,0.0,0.0,0.0,0.0,0.0,0.0,0.0,0.0,0.0,0.0,0.0,0.0,0.0,0.0,0.0,0.0,0.0,0.0,0.0,0.0,0.0,0.0,-1.3833,-1.6058,-1.7468,-1.7176,-1.4903,-1.5323,-1.3809,0.0,0.0,0.0,0.0,0.0,0.0,0.0,0.0,0.0,0.0,0.0,0.0,0.0,0.0,0.0,0.0,0.0,0.0,0.0,0.0,0.0,0.0,0.0,0.0,0.0,0.0,0.0,0.0,0.0,0.0,0.0,0.0,0.0,0.0,0.0,0.0,0.0,0.0,0.0,0.0,0.0,0.0,0.0,0.0,0.0,0.0,0.0,0.0,0.0,0.0,0.0,0.0,0.0,0.0,0.0,0.0,0.0,0.0,0.0,0.0,0.0,0.0,0.0,0.0,0.0,0.0,0.0,0.0,0.0,0.0,0.0,0.0,0.0,0.0,0.0,0.0,0.0,0.0,0.0,0.0,0.0,0.0,0.0,0.0,0.0,0.0,0.0,0.0,0.0,0.0,0.0,0.0,0.0,0.0,0.0,0.0,0.0,0.0,0.0,0.0,0.0,0.0,0.0,0.0,0.0,0.0,0.0,0.0,0.0,-1.4307,-1.6328,-1.7544,-1.7707,-1.5319,-1.3929,0.0,0.0,0.0,0.0,0.0,0.0,0.0,0.0,0.0,0.0,0.0,0.0,0.0,0.0,0.0,0.0,0.0,0.0,0.0,0.0,0.0,0.0,0.0,0.0,0.0,0.0,0.0,0.0,0.0,0.0,0.0,0.0,0.0,0.0,0.0,0.0,0.0,0.0,0.0,0.0,0.0,0.0,0.0,0.0,0.0,0.0,0.0,0.0,0.0,0.0,0.0,0.0,0.0,0.0,0.0,0.0,0.0,0.0,0.0,0.0,0.0,0.0,0.0,0.0,0.0,0.0,0.0,0.0,0.0,0.0,0.0,0.0,0.0,0.0,0.0,0.0,0.0,0.0,0.0,0.0,0.0,0.0,0.0,0.0,0.0,0.0,0.0,0.0,0.0,0.0,0.0,0.0,0.0,0.0,0.0,0.0,0.0,0.0,0.0,0.0,0.0,0.0,0.0,0.0,0.0,0.0,0.0,0.0,0.0,-1.5269,-1.7274,-1.8527,-1.886,-1.5764,-1.4155,-1.421,0.0,0.0,0.0,0.0,0.0,0.0,0.0,0.0,0.0,0.0,0.0,0.0,0.0,0.0,0.0,0.0,0.0,0.0,0.0,0.0,0.0,0.0,0.0,0.0,0.0,0.0,0.0,0.0,0.0,0.0,0.0,0.0,0.0,0.0,0.0,0.0,0.0,0.0,0.0,0.0,0.0,0.0,0.0,0.0,0.0,0.0,0.0,0.0,0.0,0.0,0.0,0.0,0.0,0.0,0.0,0.0,0.0,0.0,0.0,0.0,0.0,0.0,0.0,0.0,0.0,0.0,0.0,0.0,0.0,0.0,0.0,0.0,0.0,0.0,0.0,0.0,0.0,0.0,0.0,0.0,0.0,0.0,0.0,0.0,0.0,0.0,0.0,0.0,0.0,0.0,0.0,0.0,0.0,0.0,0.0,0.0,0.0,0.0,0.0,0.0,0.0,0.0,0.0,0.0,0.0,0.0,0.0,0.0,-1.8181,-1.9908,-2.0119,-1.8655,-1.6691,-1.4623,0.0,0.0,0.0,0.0,0.0,0.0,0.0,0.0,0.0,0.0,0.0,0.0,0.0,0.0,0.0,0.0,0.0,0.0,0.0,0.0,0.0,0.0,0.0,0.0,0.0,0.0,0.0,0.0,0.0,0.0,0.0,0.0,0.0,0.0,0.0,0.0,0.0,0.0,0.0,0.0,0.0,0.0,0.0,0.0,0.0,0.0,0.0,0.0,0.0,0.0,0.0,0.0,0.0,0.0,0.0,0.0,0.0,0.0,0.0,0.0,0.0,0.0,0.0,0.0,0.0,0.0,0.0,0.0,0.0,0.0,0.0,0.0,0.0,0.0,0.0,0.0,0.0,0.0,0.0,0.0,0.0,0.0,0.0,0.0,0.0,0.0,0.0,0.0,0.0,0.0,0.0,0.0,0.0,0.0,0.0,0.0,0.0,0.0,0.0,0.0,0.0,0.0,0.0,0.0,0.0,0.0,0.0,0.0,0.0,-1.831,-2.097,-2.2187,-2.1654,-1.8342,-1.625,0.0,0.0,0.0,0.0,0.0,0.0,0.0,0.0,0.0,0.0,0.0,0.0,0.0,0.0,0.0,0.0,0.0,0.0,0.0,0.0,0.0,0.0,0.0,0.0,0.0,0.0,0.0,0.0,0.0,0.0,0.0,0.0,0.0,0.0,0.0,0.0,0.0,0.0,0.0,0.0,0.0,0.0,0.0,0.0,0.0,0.0,0.0,0.0,0.0,0.0,0.0,0.0,0.0,0.0,0.0,0.0,0.0,0.0,0.0,0.0,0.0,0.0,0.0,0.0,0.0,0.0,0.0,0.0,0.0,0.0,0.0,0.0,0.0,0.0,0.0,0.0,0.0,0.0,0.0,0.0,0.0,0.0,0.0,0.0,0.0,0.0,0.0,0.0,0.0,0.0,0.0,0.0,0.0,0.0,0.0,0.0,0.0,0.0,0.0,0.0,0.0,0.0,0.0,0.0,0.0,0.0,0.0,0.0,-1.7826,-1.9763,-2.2224,-2.3474,-2.3455,-2.0175,-1.7742,0.0,0.0,0.0,0.0,0.0,0.0,0.0,0.0,0.0,0.0,0.0,0.0,0.0,0.0,0.0,0.0,0.0,0.0,0.0,0.0,0.0,0.0,0.0,0.0,0.0,0.0,0.0,0.0,0.0,0.0,0.0,0.0,0.0,0.0,0.0,0.0,0.0,0.0,0.0,0.0,0.0,0.0,0.0,0.0,0.0,0.0,0.0,0.0,0.0,0.0,0.0,0.0,0.0,0.0,0.0,0.0,0.0,0.0,0.0,0.0,0.0,0.0,0.0,0.0,0.0,0.0,0.0,0.0,0.0,0.0,0.0,0.0,0.0,0.0,0.0,0.0,0.0,0.0,0.0,0.0,0.0,0.0,0.0,0.0,0.0,0.0,0.0,0.0,0.0,0.0,0.0,0.0,0.0,0.0,0.0,0.0,0.0,0.0,0.0,0.0,0.0,0.0,0.0,0.0,0.0,0.0,0.0,0.0,-1.875,-2.1765,-2.3382,-2.419,-2.4135,-2.1896,-1.9146,0.0,0.0,0.0,0.0,0.0,0.0,0.0,0.0,0.0,0.0,0.0,0.0,0.0,0.0,0.0,0.0,0.0,0.0,0.0,0.0,0.0,0.0,0.0,0.0,0.0,0.0,0.0,0.0,0.0,0.0,0.0,0.0,0.0,0.0,0.0,0.0,0.0,0.0,0.0,0.0,0.0,0.0,0.0,0.0,0.0,0.0,0.0,0.0,0.0,0.0,0.0,0.0,0.0,0.0,0.0,0.0,0.0,0.0,0.0,0.0,0.0,0.0,0.0,0.0,0.0,0.0,0.0,0.0,0.0,0.0,0.0,0.0,0.0,0.0,0.0,0.0,0.0,0.0,0.0,0.0,0.0,0.0,0.0,0.0,0.0,0.0,0.0,0.0,0.0,0.0,0.0,0.0,0.0,0.0,0.0,0.0,0.0,0.0,0.0,0.0,0.0,0.0,0.0,0.0,0.0,0.0,0.0,0.0,-2.0504,-2.1948,-2.3419,-2.419,-2.419,-2.2446,-2.0232,0.0,0.0,0.0,0.0,0.0,0.0,0.0,0.0,0.0,0.0,0.0,0.0,0.0,0.0,0.0,0.0,0.0,0.0,0.0,0.0,0.0,0.0,0.0,0.0,0.0,0.0,0.0,0.0,0.0,0.0,0.0,0.0,0.0,0.0,0.0,0.0,0.0,0.0,0.0,0.0,0.0,0.0,0.0,0.0,0.0,0.0,0.0,0.0,-1.4184,0.0,0.0,0.0,0.0,0.0,0.0,0.0,0.0,0.0,0.0,0.0,0.0,0.0,0.0,0.0,0.0,0.0,0.0,0.0,0.0,0.0,0.0,0.0,0.0,0.0,0.0,0.0,0.0,0.0,0.0,0.0,0.0,0.0,0.0,0.0,0.0,0.0,0.0,0.0,0.0,0.0,0.0,0.0,0.0,0.0,0.0,0.0,0.0,0.0,0.0,0.0,0.0,0.0,0.0,0.0,0.0,0.0,0.0,0.0,-2.0849,-2.2434,-2.3603,-2.4209,-2.4153,-2.3364,-2.1349,0.0,0.0,0.0,0.0,0.0,0.0,0.0,0.0,0.0,0.0,0.0,0.0,0.0,0.0,0.0,0.0,0.0,0.0,0.0,0.0,0.0,0.0,0.0,0.0,0.0,0.0,0.0,0.0,0.0,0.0,0.0,0.0,0.0,0.0,0.0,0.0,0.0,0.0,0.0,0.0,0.0,0.0,0.0,0.0,0.0,0.0,0.0,0.0,0.0,0.0,0.0,0.0,0.0,0.0,0.0,0.0,0.0,0.0,0.0,0.0,0.0,0.0,0.0,0.0,0.0,0.0,0.0,0.0,0.0,0.0,0.0,0.0,0.0,0.0,0.0,0.0,0.0,0.0,0.0,0.0,0.0,0.0,0.0,0.0,0.0,0.0,0.0,0.0,0.0,0.0,0.0,0.0,0.0,0.0,0.0,0.0,0.0,0.0,0.0,0.0,0.0,0.0,0.0,0.0,0.0,0.0,0.0,-1.8434,-2.0717,-2.3104,-2.3861,-2.4191,-2.4209,-2.4209,-2.2209,-1.8068,0.0,0.0,0.0,0.0,0.0,0.0,0.0,0.0,0.0,0.0,0.0,0.0,0.0,0.0,0.0,0.0,0.0,0.0,0.0,0.0,0.0,0.0,0.0,0.0,0.0,0.0,0.0,0.0,0.0,0.0,0.0,0.0,0.0,0.0,0.0,0.0,0.0,0.0,-1.2947,-1.496,0.0,0.0,0.0,0.0,0.0,0.0,0.0,0.0,-1.5882,0.0,0.0,0.0,0.0,0.0,0.0,0.0,0.0,0.0,0.0,0.0,0.0,0.0,0.0,0.0,0.0,0.0,0.0,0.0,0.0,0.0,0.0,0.0,0.0,0.0,0.0,0.0,0.0,0.0,0.0,0.0,0.0,0.0,0.0,0.0,0.0,0.0,0.0,0.0,0.0,0.0,0.0,0.0,0.0,0.0,0.0,0.0,0.0,0.0,0.0,0.0,0.0,0.0,0.0,0.0,0.0,-1.8915,-1.9318,-2.1025,-2.408,-2.4192,-2.4192,-2.4192,-2.421,-2.2191,-1.8077,0.0,0.0,0.0,0.0,0.0,0.0,0.0,0.0,0.0,0.0,0.0,0.0,0.0,0.0,0.0,0.0,0.0,0.0,0.0,0.0,0.0,0.0,0.0,0.0,0.0,0.0,0.0,0.0,0.0,0.0,0.0,0.0,0.0,0.0,0.0,0.0,0.0,0.0,0.0,-1.6589,-1.725,0.0,0.0,0.0,0.0,0.0,0.0,0.0,0.0,-1.61,0.0,0.0,0.0,0.0,0.0,0.0,0.0,0.0,0.0,0.0,0.0,0.0,0.0,0.0,0.0,0.0,0.0,0.0,0.0,0.0,0.0,0.0,0.0,0.0,0.0,0.0,0.0,0.0,0.0,0.0,0.0,0.0,0.0,0.0,0.0,0.0,0.0,0.0,0.0,0.0,0.0,0.0,0.0,0.0,0.0,0.0,0.0,0.0,0.0,0.0,0.0,0.0,0.0,0.0,0.0,-1.8162,-1.9917,-2.1964,-2.4299,-2.4339,-2.4284,-2.4211,-2.3013,-2.0908,0.0,0.0,0.0,0.0,0.0,0.0,0.0,0.0,0.0,0.0,0.0,0.0,0.0,0.0,0.0,0.0,0.0,0.0,0.0,0.0,0.0,0.0,0.0,0.0,0.0,0.0,0.0,0.0,0.0,0.0,0.0,0.0,0.0,0.0,0.0,0.0,0.0,0.0,0.0,0.0,-1.7014,-1.7551,-1.749,0.0,0.0,0.0,0.0,0.0,0.0,-1.6657,-1.6102,0.0,0.0,0.0,0.0,0.0,0.0,0.0,0.0,0.0,0.0,0.0,0.0,0.0,0.0,0.0,0.0,0.0,0.0,0.0,0.0,0.0,0.0,0.0,0.0,0.0,0.0,0.0,0.0,0.0,0.0,0.0,0.0,0.0,0.0,0.0,0.0,0.0,0.0,0.0,0.0,0.0,0.0,0.0,0.0,0.0,0.0,0.0,0.0,0.0,0.0,0.0,0.0,0.0,0.0,0.0,-1.7011,-1.9983,-2.2442,-2.4332,-2.4411,-2.4376,-2.4284,-2.2253,-2.0021,0.0,0.0,0.0,0.0,0.0,0.0,0.0,0.0,0.0,0.0,0.0,0.0,0.0,0.0,0.0,0.0,0.0,0.0,0.0,0.0,0.0,0.0,0.0,0.0,0.0,0.0,0.0,0.0,0.0,0.0,0.0,0.0,0.0,0.0,0.0,0.0,0.0,0.0,0.0,0.0,0.0,-1.8247,-1.7966,-1.8485,0.0,0.0,0.0,0.0,-1.8226,-1.7337,0.0,0.0,0.0,0.0,0.0,0.0,0.0,0.0,0.0,0.0,0.0,0.0,0.0,0.0,0.0,0.0,0.0,0.0,0.0,0.0,0.0,0.0,0.0,0.0,0.0,0.0,0.0,0.0,0.0,0.0,0.0,0.0,0.0,0.0,0.0,0.0,0.0,0.0,0.0,0.0,0.0,0.0,0.0,0.0,0.0,0.0,0.0,0.0,0.0,0.0,0.0,0.0,0.0,0.0,0.0,0.0,-1.6917,-1.8901,-2.1362,-2.4295,-2.4411,-2.4375,-2.4375,-2.3413,-2.1021,0.0,0.0,0.0,0.0,0.0,0.0,0.0,0.0,0.0,0.0,0.0,0.0,0.0,0.0,0.0,0.0,0.0,0.0,0.0,0.0,0.0,0.0,0.0,0.0,0.0,0.0,0.0,0.0,0.0,0.0,0.0,0.0,0.0,0.0,0.0,0.0,0.0,0.0,0.0,0.0,0.0,-2.0585,-1.9802,-1.9635,-1.9538,0.0,0.0,-1.8999,-1.8406,-1.8771,0.0,0.0,0.0,0.0,0.0,0.0,0.0,0.0,0.0,0.0,0.0,0.0,0.0,0.0,0.0,0.0,0.0,0.0,0.0,0.0,0.0,0.0,0.0,0.0,0.0,0.0,0.0,0.0,0.0,0.0,0.0,0.0,0.0,0.0,0.0,0.0,0.0,0.0,0.0,0.0,0.0,0.0,0.0,0.0,0.0,0.0,0.0,0.0,0.0,0.0,0.0,0.0,0.0,0.0,0.0,-1.4625,-1.6993,-1.9633,-2.2123,-2.4407,-2.4482,-2.4447,-2.4446,-2.2314,-1.9797,0.0,0.0,0.0,0.0,0.0,0.0,0.0,0.0,0.0,0.0,0.0,0.0,0.0,0.0,0.0,0.0,0.0,0.0,0.0,0.0,0.0,0.0,0.0,0.0,0.0,0.0,0.0,0.0,0.0,0.0,0.0,0.0,0.0,0.0,0.0,0.0,0.0,0.0,0.0,0.0,0.0,0.0,-2.0509,-2.0502,0.0,0.0,0.0,-2.0107,-1.9773,0.0,0.0,0.0,0.0,0.0,0.0,0.0,0.0,0.0,0.0,0.0,0.0,0.0,0.0,0.0,0.0,0.0,0.0,0.0,0.0,0.0,0.0,0.0,0.0,0.0,0.0,0.0,0.0,0.0,0.0,0.0,0.0,0.0,0.0,0.0,0.0,0.0,0.0,0.0,0.0,0.0,0.0,0.0,0.0,0.0,0.0,0.0,0.0,0.0,0.0,0.0,0.0,0.0,0.0,0.0,0.0,0.0,-1.6995,-2.0285,-2.281,-2.4444,-2.45,-2.45,-2.4462,-2.1696,0.0,0.0,0.0,0.0,0.0,0.0,0.0,0.0,0.0,0.0,0.0,0.0,0.0,0.0,0.0,0.0,0.0,0.0,0.0,0.0,0.0,0.0,0.0,0.0,0.0,0.0,0.0,-1.0005,0.0,0.0,0.0,0.0,0.0,0.0,0.0,0.0,0.0,0.0,0.0,0.0,0.0,0.0,-2.0036,-2.1127,-2.1442,-2.1816,0.0,0.0,-2.1254,-2.0879,-2.0381,-1.9254,0.0,0.0,0.0,0.0,0.0,0.0,0.0,0.0,0.0,0.0,0.0,0.0,0.0,0.0,0.0,0.0,0.0,0.0,0.0,0.0,0.0,0.0,0.0,0.0,0.0,0.0,0.0,0.0,0.0,0.0,0.0,0.0,0.0,0.0,0.0,0.0,0.0,0.0,0.0,0.0,0.0,0.0,0.0,0.0,0.0,0.0,0.0,0.0,0.0,0.0,0.0,0.0,0.0,0.0,0.0,-1.6967,-2.0267,-2.281,-2.4425,-2.45,-2.45,-2.4462,-2.2773,-2.0267,0.0,0.0,0.0,0.0,0.0,0.0,0.0,0.0,0.0,0.0,0.0,0.0,0.0,0.0,0.0,0.0,0.0,0.0,0.0,0.0,0.0,0.0,0.0,0.0,0.0,0.0,0.0,0.0,0.0,0.0,0.0,0.0,0.0,0.0,0.0,0.0,0.0,0.0,0.0,0.0,0.0,-2.1976,-2.2023,-2.261,-2.3349,0.0,0.0,-2.2516,-2.1031,-2.1384,-2.0463,-1.6522,0.0,0.0,0.0,0.0,0.0,0.0,0.0,0.0,0.0,0.0,0.0,0.0,0.0,0.0,0.0,0.0,0.0,0.0,0.0,0.0,0.0,0.0,0.0,0.0,0.0,0.0,0.0,0.0,0.0,0.0,0.0,0.0,0.0,0.0,0.0,0.0,0.0,0.0,0.0,0.0,0.0,0.0,0.0,0.0,0.0,0.0,0.0,0.0,0.0,0.0,0.0,0.0,0.0,-1.5336,-1.6964,-2.0278,-2.281,-2.4425,-2.45,-2.45,-2.45,-2.2885,-2.0652,0.0,0.0,0.0,0.0,0.0,0.0,0.0,0.0,0.0,0.0,0.0,0.0,0.0,0.0,0.0,0.0,0.0,0.0,0.0,0.0,0.0,0.0,0.0,0.0,0.0,0.0,0.0,0.0,-1.29,-1.2947,-1.2279,0.0,0.0,0.0,0.0,0.0,0.0,0.0,0.0,0.0,0.0,-2.1545,-2.1977,-2.2696,0.0,0.0,-2.369,-2.2864,-2.2255,-2.1927,-2.0686,-1.7556,-1.636,0.0,0.0,0.0,0.0,0.0,0.0,0.0,0.0,0.0,0.0,0.0,0.0,0.0,0.0,0.0,0.0,0.0,0.0,0.0,0.0,0.0,0.0,0.0,0.0,0.0,0.0,0.0,0.0,0.0,0.0,0.0,0.0,0.0,0.0,0.0,0.0,0.0,0.0,0.0,0.0,0.0,0.0,0.0,0.0,0.0,0.0,0.0,0.0,0.0,0.0,0.0,0.0,-1.5336,-1.6977,-2.0296,-2.2829,-2.4481,-2.45,-2.4369,-2.4074,-2.2739,-2.08,0.0,0.0,0.0,0.0,0.0,0.0,0.0,0.0,0.0,0.0,0.0,0.0,0.0,0.0,0.0,0.0,0.0,0.0,0.0,0.0,0.0,0.0,0.0,0.0,0.0,0.0,0.0,0.0,-1.3808,-1.3604,-1.202,0.0,0.0,0.0,0.0,0.0,0.0,0.0,0.0,0.0,0.0,-2.1407,-2.2569,-2.3017,-2.3609,-2.4704,-2.3803,-2.2922,-2.2683,-2.2264,-2.0934,-1.7912,0.0,0.0,0.0,0.0,0.0,0.0,0.0,0.0,0.0,0.0,0.0,0.0,0.0,0.0,0.0,0.0,0.0,0.0,0.0,0.0,0.0,0.0,0.0,0.0,0.0,0.0,0.0,0.0,0.0,0.0,-0.7407,0.0,0.0,0.0,0.0,0.0,0.0,0.0,0.0,0.0,0.0,0.0,0.0,0.0,0.0,0.0,0.0,0.0,0.0,0.0,0.0,0.0,0.0,-1.536,-1.6898,-2.0285,-2.2794,-2.4444,-2.45,-2.4092,-2.326,-2.2423,-2.08,-1.8241,0.0,0.0,0.0,0.0,0.0,0.0,0.0,0.0,0.0,0.0,0.0,0.0,0.0,0.0,0.0,0.0,0.0,0.0,0.0,0.0,0.0,0.0,0.0,0.0,0.0,0.0,-1.3145,-1.3248,-1.2733,0.0,0.0,0.0,0.0,0.0,0.0,0.0,0.0,0.0,0.0,-2.0517,-2.1996,-2.4074,-2.3739,-2.3834,-2.5374,-2.4155,-2.2757,-2.2002,-2.2374,-2.1371,0.0,0.0,0.0,0.0,0.0,0.0,0.0,0.0,0.0,0.0,0.0,0.0,0.0,0.0,0.0,0.0,0.0,0.0,0.0,0.0,0.0,0.0,0.0,0.0,0.0,0.0,0.0,-1.0072,-1.0073,0.0,0.0,0.0,0.0,0.0,0.0,0.0,0.0,0.0,0.0,0.0,-1.6027,-1.7364,0.0,0.0,0.0,0.0,0.0,0.0,0.0,0.0,0.0,0.0,0.0,0.0,-1.5564,-1.765,-2.0436,-2.2609,-2.4117,-2.4172,-2.3749,-2.2942,-2.2171,-2.0288,-1.7231,0.0,0.0,0.0,0.0,0.0,0.0,0.0,0.0,0.0,0.0,0.0,0.0,0.0,0.0,0.0,0.0,0.0,0.0,0.0,0.0,0.0,0.0,0.0,0.0,0.0,-1.3968,0.0,0.0,0.0,0.0,0.0,0.0,0.0,0.0,0.0,0.0,0.0,-2.0374,-2.181,-2.2696,-2.3271,-2.3472,-2.41,-2.4537,0.0,0.0,0.0,0.0,0.0,0.0,0.0,0.0,0.0,0.0,0.0,0.0,0.0,0.0,-1.6916,-1.3529,-1.2674,-1.2656,-1.3204,0.0,0.0,0.0,0.0,0.0,0.0,0.0,0.0,0.0,0.0,0.0,0.0,0.0,0.0,0.0,0.0,-1.1668,0.0,0.0,0.0,0.0,0.0,0.0,0.0,0.0,-1.7438,-1.8562,-1.8353,-1.9704,-1.9826,0.0,-1.8766,-1.7225,0.0,0.0,0.0,0.0,0.0,0.0,0.0,0.0,-1.6265,-1.8364,-2.0856,-2.274,-2.3923,-2.3978,-2.3505,-2.2428,-2.1334,-1.959,-1.7091,-1.5739,-1.4275,0.0,0.0,0.0,0.0,0.0,0.0,0.0,0.0,0.0,0.0,0.0,0.0,0.0,0.0,0.0,0.0,0.0,0.0,0.0,0.0,0.0,0.0,0.0,-1.4768,0.0,0.0,0.0,0.0,0.0,0.0,0.0,0.0,0.0,-2.0514,-2.1763,-2.2821,-2.3732,-2.4283,-2.4501,-2.4188,0.0,0.0,0.0,0.0,0.0,0.0,0.0,-2.2177,-2.1253,-2.058,-2.0116,-2.0021,-2.0608,-2.0858,-2.0127,0.0,0.0,-1.5187,-1.4314,-1.4278,-1.4809,-1.4702,-1.4916,-1.6148,-1.6013,-1.5822,0.0,0.0,0.0,0.0,0.0,0.0,0.0,0.0,-1.3521,-1.3904,0.0,-1.3778,0.0,0.0,0.0,0.0,0.0,-1.5942,0.0,0.0,-2.0112,-2.1298,-2.077,-2.099,-2.1179,-2.1394,-2.2124,-2.1295,-1.8912,-1.6022,0.0,0.0,0.0,0.0,0.0,0.0,-1.7444,-1.9088,-2.1498,-2.3174,-2.3921,-2.3976,-2.3211,-2.1626,-2.0059,-1.8774,-1.7862,-1.7039,-1.5863,-1.4225,-1.2586,0.0,0.0,0.0,0.0,0.0,0.0,0.0,0.0,0.0,0.0,0.0,0.0,0.0,0.0,0.0,0.0,0.0,0.0,0.0,0.0,-1.4972,0.0,0.0,0.0,0.0,0.0,0.0,0.0,0.0,0.0,0.0,-2.0891,-2.3603,-2.5592,-2.523,0.0,0.0,0.0,0.0,-2.4572,-2.6041,-2.5507,-2.4653,-2.3851,-2.4203,-2.3784,-2.1554,0.0,0.0,-2.0376,-2.0715,-2.0983,-2.0234,-2.0109,-1.9538,-1.7931,-1.6879,-1.638,-1.638,-1.5862,-1.5681,-1.6272,-1.6314,-1.6086,-1.674,0.0,0.0,0.0,0.0,-1.5521,-1.6486,-1.8047,-1.7268,-1.7101,-1.7297,-1.6467,0.0,0.0,0.0,0.0,0.0,0.0,-1.841,-1.9326,-2.0887,-2.1771,-2.2123,-2.2476,-2.2665,-2.2732,-2.2741,-2.237,-2.1643,-2.017,-1.7462,-1.3725,0.0,0.0,0.0,0.0,-1.8496,-2.0588,-2.1926,-2.2935,-2.3616,-2.3656,-2.2883,-2.1285,-1.9722,-1.8789,-1.8503,-1.7751,-1.684,-1.5773,-1.4183,0.0,0.0,0.0,0.0,0.0,0.0,0.0,0.0,0.0,0.0,0.0,0.0,0.0,0.0,0.0,0.0,0.0,0.0,0.0,-1.5696,-1.607,-1.6258,0.0,0.0,0.0,0.0,0.0,0.0,0.0,0.0,0.0,-2.4284,-2.5394,-2.6301,0.0,0.0,-2.6597,-2.6212,-2.6111,-2.6074,-2.5967,0.0,0.0,0.0,-2.3616,-2.2963,-2.2839,-2.3017,-2.3017,-2.2589,-2.2678,-2.2571,-2.1768,-2.1179,-2.0466,-1.9484,-1.8181,-1.7324,-1.7253,-1.7092,-1.72,-1.7914,-1.7985,-1.7949,-1.9076,-1.7609,-1.6969,-1.7087,-1.7692,-1.7801,-1.8696,-2.0054,-1.9418,-1.9318,-1.9558,-1.88,-1.7734,-1.6532,-1.6408,0.0,0.0,0.0,-1.9702,-2.0637,-2.1601,-2.2281,-2.2721,-2.3067,-2.32,-2.3224,-2.307,-2.3004,-2.3064,-2.2497,-2.0384,-1.6867,0.0,0.0,-1.7163,-1.843,-1.9956,-2.1639,-2.2503,-2.3106,-2.3476,-2.2892,-2.2068,-2.1126,-1.9627,-1.8806,-1.8806,-1.8324,-1.77,-1.6897,-1.5651,-1.4125,0.0,0.0,0.0,0.0,0.0,0.0,0.0,0.0,0.0,0.0,0.0,-1.1535,0.0,0.0,0.0,0.0,-1.4749,-1.6552,-1.7337,-1.7473,0.0,0.0,0.0,0.0,0.0,0.0,0.0,-2.201,-2.3343,-2.4447,-2.538,-2.5865,-2.6531,-2.7694,-2.7468,-2.7122,-2.6954,0.0,-2.6925,-2.68,-2.6478,-2.6015,-2.5247,-2.4088,-2.3302,-2.3458,-2.3494,-2.3494,-2.3494,-2.3494,-2.3338,-2.2821,-2.2125,-2.134,-2.0573,-1.9395,-1.8431,-1.8128,-1.8092,-1.8288,-1.8735,-1.8807,-1.8807,-2.0331,-1.9904,-1.8833,-1.8532,-1.8822,-1.9546,-2.0033,-2.0386,-2.037,-2.0742,-2.126,-2.0645,-2.0027,-1.9358,-1.8681,0.0,-1.8746,-2.0354,-2.113,-2.1317,-2.2279,-2.2685,-2.2712,-2.297,-2.3095,-2.3077,-2.3241,-2.336,-2.3476,-2.3365,-2.2638,-2.1304,-2.0728,-2.0295,-2.003,-2.0784,-2.159,-2.2375,-2.3124,-2.3494,-2.3476,-2.2,-2.1161,-2.1072,-1.968,-1.8859,-1.8806,-1.8806,-1.8431,-1.7646,-1.6826,-1.5363,-1.3124,0.0,0.0,0.0,0.0,0.0,0.0,0.0,0.0,0.0,0.0,0.0,0.0,0.0,0.0,0.0,-1.665,0.0,-1.8984,-1.9021,0.0,0.0,0.0,-2.0067,-2.1678,-2.2318,-2.2944,-2.37,0.0,0.0,-2.4873,0.0,-2.6354,-2.7835,-2.7424,-2.7246,-2.7897,-2.7388,-2.7246,-2.7736,-2.7281,-2.6532,-2.5658,-2.4908,-2.4177,-2.3601,-2.3494,-2.3494,-2.3494,-2.3494,-2.3494,-2.344,-2.2785,-2.1946,-2.1233,-2.0358,-1.968,-1.8878,-1.8825,-1.8843,-1.8806,-1.8789,-1.8825,-2.1381,-2.087,-2.0864,-2.0581,-2.0176,-2.0687,-2.0972,-2.1082,-2.1082,-2.1163,-2.1293,-2.1147,-2.1061,-2.1108,-2.0927,-2.0961,-2.1144,-2.158,-2.1888,-2.2116,-2.2375,-2.2569,-2.2712,-2.285,-2.2927,-2.297,-2.3175,-2.3313,-2.3354,-2.3424,-2.3275,-2.2941,-2.2771,-2.2075,-2.0891,-2.1625,-2.241,-2.3213,-2.3405,-2.3494,-2.3481,-2.2535,-2.1714,-2.1108,-2.0198,-1.9431,-1.8823,-1.8806,-1.8431,-1.7628,-1.6826,-1.5612,-1.3886,-1.2282,0.0,0.0,0.0,0.0,0.0,0.0,0.0,0.0,0.0,-1.3813,-1.1836,0.0,-1.6624,0.0,-1.6701,-1.8181,-1.963,-1.9736,0.0,0.0,-2.1141,-2.1321,-2.2901,-2.2665,-2.2909,-2.4295,-2.4877,-2.5278,-2.5522,-2.5817,-2.6117,-2.6361,-2.6746,-2.6835,-2.6461,-2.6764,-2.6835,-2.6425,-2.5783,-2.5194,-2.4962,-2.4302,-2.3725,-2.3552,-2.3494,-2.3494,-2.3494,-2.3494,-2.3494,-2.3405,-2.2321,-2.1411,-2.1126,-2.0019,-1.9127,-1.8841,-1.8824,-1.8806,-1.8806,-1.8789,-1.8807,-2.1425,-2.1034,-2.1371,-2.1455,-2.1284,-2.1295,-2.1294,-2.1294,-2.1294,-2.1294,-2.1294,-2.1294,-2.1388,-2.1526,-2.1526,-2.1587,-2.1675,-2.1811,-2.1928,-2.2106,-2.2321,-2.246,-2.2552,-2.279,-2.2902,-2.2919,-2.3119,-2.3217,-2.3217,-2.3354,-2.3407,-2.3407,-2.3471,-2.3048,-2.2232,-2.2607,-2.3053,-2.3476,-2.3494,-2.3494,-2.3458,-2.2714,-2.1911,-2.1064,-2.0374,-1.9608,-1.8732,-1.8769,-1.8431,-1.7646,-1.7165,-1.6219,-1.472,-1.3453,-1.2609,0.0,0.0,0.0,0.0,0.0,0.0,0.0,0.0,0.0,0.0,0.0,-1.7481,-1.6915,-1.8253,-1.9663,-2.0912,-2.1019,-2.1524,-2.279,-2.2539,-2.2772,-2.4006,-2.3719,-2.3786,-2.4587,-2.4813,-2.4836,-2.4807,-2.4879,-2.4902,-2.4783,-2.5461,-2.5925,-2.5872,-2.6211,-2.63,-2.5854,-2.5176,-2.4551,-2.4248,-2.3779,-2.3494,-2.3494,-2.3494,-2.3494,-2.3494,-2.3494,-2.3387,-2.2981,-2.2232,-2.1375,-2.0751,-1.9984,-1.927,-1.8895,-1.8806,-1.8806,-1.8806,-1.8843,-1.8861,-2.1151,-2.0854,-2.1325,-2.1734,-2.1965,-2.1571,-2.144,-2.1438,-2.1326,-2.1342,-2.1455,-2.1552,-2.1584,-2.1584,-2.16,-2.1535,-2.1455,-2.1673,-2.1746,-2.1708,-2.2135,-2.2332,-2.236,-2.2694,-2.2868,-2.2842,-2.302,-2.3052,-2.3077,-2.3217,-2.3289,-2.3313,-2.3407,-2.3494,-2.3494,-2.3494,-2.3494,-2.3494,-2.3494,-2.3494,-2.3476,-2.2821,-2.1996,-2.1057,-2.0443,-1.9678,-1.8676,-1.8733,-1.8431,-1.7663,-1.761,-1.6895,-1.538,-1.4631,-1.4221,0.0,-1.344,0.0,0.0,0.0,0.0,0.0,0.0,0.0,0.0,-1.7485,-1.8324,-1.9038,-2.0412,-2.1536,-2.2232,-2.2375,-2.2779,-2.3559,-2.3689,-2.3956,-2.4617,-2.4725,-2.468,-2.4575,-2.4551,-2.4266,-2.3677,-2.3494,-2.3494,-2.3659,-2.4195,-2.4783,-2.5337,-2.5551,-2.5604,-2.5551,-2.498,-2.4248,-2.3708,-2.3512,-2.3494,-2.3494,-2.3494,-2.3494,-2.3448,-2.343,-2.3216,-2.2553,-2.214,-2.154,-2.0279,-1.9923,-1.9553,-1.8875,-1.8769,-1.8806,-1.8806,-1.8843,-1.8896,-2.1957,-2.1498,-2.1999,-2.1966,-2.155,-2.1835,-2.2051,-2.2151,-2.1552,-2.1649,-2.2216,-2.2815,-2.3074,-2.3074,-2.3074,-2.2783,-2.2199,-2.2264,-2.2067,-2.1678,-2.1957,-2.2073,-2.2084,-2.2535,-2.2659,-2.2515,-2.279,-2.2944,-2.2944,-2.307,-2.3193,-2.3289,-2.3313,-2.3383,-2.3494,0.0,0.0,0.0,-2.3494,-2.3494,-2.3494,-2.3356,-2.2567,-2.1159,-2.0965,0.0,-1.8858,-1.8806,-1.8431,-1.7663,-1.761,0.0,0.0,0.0,0.0,0.0,0.0,0.0,0.0,0.0,0.0,0.0,-1.7593,-1.7932,-1.7468,-1.9234,-2.0501,-2.068,-2.1518,-2.2125,-2.2307,-2.2892,-2.3338,-2.3508,-2.3526,-2.3616,-2.3759,-2.3777,-2.3754,-2.3731,-2.3725,-2.3672,-2.3529,-2.3494,-2.3494,-2.3494,-2.3642,-2.3784,-2.3963,-2.4534,-2.4659,-2.4088,-2.3891,-2.3713,-2.3512,-2.3494,-2.3453,-2.3494,-2.3494,-2.3407,-2.3223,-2.3193,-2.3102,-2.2638,-2.1625,-2.0744,-2.0361,-1.951,-1.8829,-1.8598,-1.875,-1.886,-1.8806,-1.8843,-1.8896,-2.2429,0.0,-2.2468,-2.2511,0.0,-2.2314,-2.2494,-2.2749,-2.2245,-2.2355,-2.2944,-2.3317,-2.3513,-2.3513,-2.3513,-2.3302,-2.2912,-2.2556,-2.2264,-2.2066,-2.1917,-2.184,-2.184,-2.2215,-2.2298,-2.2203,-2.2542,-2.2605,-2.249,-2.2807,-2.2977,-2.2935,-2.3193,-2.3354,-2.3424,-2.3471,-2.3494,-2.3494,-2.3494,-2.3494,-2.3494,-2.3494,-2.2901,-2.1722,0.0,0.0,0.0,0.0,0.0,0.0,0.0,0.0,0.0,0.0,0.0,-1.6381,-1.6417,-1.6612,-1.7022,-1.7736,-1.8342,-1.8789,-1.9859,-2.018,-1.9377,-2.0769,-2.1643,-2.1533,-2.2335,-2.2892,-2.291,-2.3285,-2.3494,-2.3494,-2.3494,-2.3494,-2.3494,-2.3494,-2.3494,-2.3494,-2.3494,-2.3494,-2.3494,-2.3494,-2.3494,-2.3494,-2.3494,-2.3494,-2.3529,-2.3832,-2.3927,-2.3547,-2.3494,-2.3448,-2.3319,-2.3313,-2.3295,-2.3313,-2.3313,-2.3223,-2.3102,-2.3199,-2.3093,-2.2419,-2.1429,-2.0749,-2.0627,-1.9603,-1.8763,-1.9101,-1.9018,-1.8878,-1.8843,-1.8861,-1.8896,-2.2751,-2.2851,-2.2973,-2.3163,-2.3364,-2.2891,-2.2877,-2.3203,0.0,0.0,0.0,-2.3802,-2.3886,-2.3851,-2.3886,-2.3786,-2.3659,-2.3025,-2.2637,-2.2361,-2.2031,-2.181,-2.1648,-2.1882,-2.1969,-2.1986,-2.222,-2.2203,-2.2027,-2.2517,-2.2677,-2.2581,-2.296,-2.3199,-2.3265,-2.336,-2.343,-2.343,-2.3471,-2.3494,-2.3494,-2.3494,-2.3097,-2.2242,-2.2278,-2.1889,-2.104,-2.0439,-1.9838,-1.9234,-1.8538,-1.8093,-1.8003,-1.7521,-1.7771,-1.8895,-1.9127,-1.9217,-1.9216,-2.0394,-2.0912,-2.0448,-2.1554,-2.2,-2.1358,-2.2054,-2.2406,-2.2206,-2.2995,-2.3494,-2.3494,-2.3494,-2.3494,-2.3494,-2.3494,-2.3494,-2.3494,-2.3494,-2.3494,-2.3494,-2.3494,-2.3494,-2.3494,-2.3494,-2.3494,-2.3494,-2.3494,-2.3494,-2.3494,-2.3529,-2.3547,-2.3494,-2.3494,-2.3407,-2.3241,-2.3175,-2.3151,-2.3217,-2.3193,-2.3151,-2.3126,-2.3271,-2.3029,-2.2293,-2.16,-2.1259,-2.1086,-1.997,-1.9249,-1.9801,-1.934,-1.8842,-1.886,-1.9004,-1.9111,-2.3343,-2.39,-2.3985,-2.3757,-2.334,-2.3349,-2.3343,-2.3385,-2.3608,-2.3765,-2.3925,-2.4885,-2.5308,-2.5324,-2.5324,-2.4968,-2.4353,-2.4256,-2.3543,0.0,-2.2506,-2.213,-2.1388,-2.1794,-2.1911,-2.1768,-2.1957,-2.2027,-2.2027,-2.2084,-2.2153,-2.2292,-2.2554,-2.285,-2.3119,-2.3144,-2.3151,-2.3168,-2.3383,-2.3494,-2.3494,-2.3494,-2.3102,-2.2357,-2.2303,-2.1911,-2.1123,-2.0792,-2.0664,-2.0766,-2.0439,-2.0082,-1.9697,-2.0109,-2.0269,-1.9912,-2.043,-2.0787,-2.0769,-2.1001,-2.1358,-2.1911,-2.2178,-2.2253,-2.2161,-2.2874,-2.3315,-2.328,-2.3387,-2.3494,-2.3494,-2.3494,-2.3494,-2.3494,-2.3494,-2.3494,-2.3494,-2.3494,-2.3494,-2.3494,-2.3494,-2.3494,-2.3494,-2.3494,-2.3494,-2.3494,-2.3494,-2.3494,-2.3494,-2.3494,-2.3494,-2.3494,-2.3494,-2.3494,-2.3383,-2.343,-2.3401,-2.3448,-2.3407,-2.3313,-2.3126,-2.3168,-2.3032,-2.2659,-2.199,-2.1614,-2.1527,-2.0438,-1.9752,-1.9759,-1.9385,-1.8966,-1.8855,-1.9396,-1.9795,-2.3836,-2.4089,-2.419,-2.4056,-2.3759,-2.3592,-2.3313,-2.3024,-2.3435,-2.3915,-2.4476,-2.5265,-2.5616,-2.5616,-2.5616,-2.5422,-2.5082,-2.4677,-2.4142,-2.3529,-2.2867,-2.2297,-2.1924,-2.1689,-2.157,-2.1511,-2.1738,-2.1751,-2.1661,-2.1882,-2.1969,-2.194,-2.2254,-2.2483,-2.2695,-2.2721,-2.2721,-2.2738,-2.3175,-2.3383,-2.3401,-2.3471,-2.3298,-2.2963,-2.2878,-2.2718,-2.2406,-2.179,-2.156,-2.175,-2.1217,-2.0806,-2.0626,-2.0929,-2.0947,-2.0644,-2.1322,-2.175,-2.175,-2.2161,-2.2553,-2.2928,-2.2963,-2.2946,-2.2963,-2.3262,-2.3494,-2.3494,-2.3494,-2.3494,-2.3494,-2.3494,-2.3494,-2.3494,-2.3494,-2.3494,-2.3494,-2.3494,-2.3494,-2.3494,-2.3494,-2.3494,-2.3494,-2.3494,-2.3494,-2.3494,-2.3494,-2.3494,-2.3494,-2.3494,-2.3494,-2.3494,-2.3494,-2.343,-2.3313,-2.3289,-2.3289,-2.3271,-2.3289,-2.3241,-2.3144,-2.3193,-2.3175,-2.2925,-2.2282,-2.2021,-2.2248,-2.1086,-2.039,-2.0529,-2.0114,-1.9742,-1.9728,-2.0097,-2.0532,-2.4399,-2.4526,-2.4549,-2.4515,-2.4317,-2.3729,-2.325,-2.303,-2.3451,-2.4091,-2.4907,-2.5288,-2.5486,-2.5616,-2.5616,-2.5616,-2.5535,-2.5017,-2.4644,-2.4385,-2.3365,-2.2701,-2.2361,-2.1827,-2.1487,-2.1325,-2.1511,-2.1495,-2.1371,-2.1675,-2.1811,-2.1738,-2.1969,-2.2164,-2.2313,-2.2313,-2.233,-2.2341,-2.2798,-2.3126,-2.3223,-2.3336,-2.3407,-2.343,-2.3383,-2.336,-2.3394,-2.2734,-2.2397,-2.2513,-2.1921,-2.1562,-2.1643,-2.1643,-2.1643,-2.1714,-2.2214,-2.2571,-2.2607,-2.3142,-2.3494,-2.3494,-2.3494,-2.3494,-2.3494,-2.3494,-2.3494,-2.3494,-2.3494,-2.3494,-2.3494,-2.3494,-2.3494,-2.3494,-2.3494,-2.3494,-2.3494,-2.3494,-2.3494,-2.3494,-2.3494,-2.3494,-2.3494,-2.3494,-2.3494,-2.3494,-2.3494,-2.3494,-2.3494,-2.3494,-2.3494,-2.3494,-2.3494,-2.343,-2.3199,-2.3199,-2.3199,-2.3193,-2.3144,-2.3144,-2.3119,-2.3241,-2.3223,-2.295,-2.2524,-2.2366,-2.2716,-2.1732,-2.0987,-2.1236,-2.08,-2.0437,-2.0709,-2.0819,-2.1251,-2.5205,-2.5683,-2.5723,-2.5388,-2.4807,-2.378,-2.3589,-2.4013,-2.4116,-2.4418,-2.4958,-2.497,-2.5224,-2.5578,-2.5616,-2.5616,-2.5616,-2.5551,-2.5146,-2.4547,-2.4369,-2.364,-2.2523,-2.2329,-2.1956,-2.1406,-2.1356,-2.134,-2.1325,-2.1371,-2.1495,-2.1694,-2.1738,-2.184,-2.2027,-2.2039,-2.2039,-2.2039,-2.222,-2.252,-2.301,-2.306,-2.3151,-2.3313,-2.3424,-2.3424,-2.3271,-2.3122,-2.3117,-2.3346,-2.3053,-2.2994,-2.3204,-2.3262,-2.3267,-2.3249,-2.3338,-2.3369,-2.3392,-2.3463,-2.3494,-2.3494,-2.3494,-2.3494,-2.3494,-2.3494,-2.3494,-2.3494,-2.3494,-2.3494,-2.3494,-2.3494,-2.3494,-2.3494,-2.3494,-2.3494,-2.3494,-2.3494,-2.3494,-2.3494,-2.3494,-2.3494,-2.3494,-2.3494,-2.3494,-2.3494,-2.3494,-2.3494,-2.3494,-2.3494,-2.3494,-2.3494,-2.3494,-2.3494,-2.3448,-2.3471,-2.3407,-2.3407,-2.3241,-2.3119,-2.307,-2.2927,-2.2764,-2.2841,-2.2643,-2.2591,-2.2488,-2.197,-2.1454,-2.1464,-2.1128,-2.0707,-2.1405,-2.1607,-2.1849,-2.5669,-2.5893,-2.5893,-2.5542,-2.4924,-2.4521,-2.4253,-2.4162,-2.4155,-2.4495,-2.5,-2.4989,-2.5177,-2.5594,-2.5616,-2.5616,-2.5616,-2.5616,-2.5454,-2.5114,-2.4693,-2.4191,-2.3624,-2.2734,-2.2232,-2.1924,-2.1535,-2.1294,-2.1294,-2.1294,-2.134,-2.1433,-2.1464,-2.1495,-2.1584,-2.1601,-2.157,-2.1601,-2.1645,-2.1906,-2.2315,-2.2552,-2.2678,-2.2773,-2.2781,-2.2807,-2.2824,-2.2764,-2.285,-2.301,-2.3052,-2.3168,-2.3265,-2.3407,-2.3494,-2.3494,-2.3494,-2.3494,-2.3494,-2.3494,-2.3494,-2.3494,-2.3494,-2.3494,-2.3494,-2.3494,-2.3494,-2.3494,-2.3494,-2.3494,-2.3494,-2.3494,-2.3494,-2.3494,-2.3494,-2.3494,-2.3494,-2.3494,-2.3494,-2.3494,-2.3494,-2.3494,-2.3494,-2.3494,-2.3494,-2.3494,-2.3494,-2.3494,-2.3494,-2.3494,-2.3494,-2.3494,-2.3494,-2.3494,-2.3494,-2.3494,-2.343,-2.3271,-2.3175,-2.3095,-2.2876,-2.2807,-2.2703,-2.2703,-2.2527,-2.2402,-2.2385,-2.2084,-2.1686,-2.1695,-2.181,-2.1651,-2.2228,-2.228,-2.2407,-2.5893,-2.5893,-2.5893,-2.564,-2.5219,-2.505,-2.4826,-2.461,-2.4478,-2.4719,-2.5253,-2.527,-2.5404,-2.5598,-2.5637,-2.5616,-2.5616,-2.5616,-2.5616,-2.5551,-2.5033,-2.4709,-2.4385,-2.3284,-2.2588,-2.2313,-2.1665,-2.1294,-2.1294,-2.1294,-2.1294,-2.1294,-2.1294,-2.1294,-2.1294,-2.1325,-2.1309,-2.1309,-2.1325,-2.1469,-2.1724,-2.1995,-2.2203,-2.2341,-2.2368,-2.2412,-2.2493,-2.2527,-2.2581,-2.266,-2.2859,-2.2917,-2.2917,-2.3091,-2.3206,-2.3247,-2.3247,-2.3271,-2.3271,-2.3289,-2.3271,-2.3271,-2.3289,-2.3271,-2.3271,-2.3271,-2.3289,-2.3289,-2.336,-2.3401,-2.3494,-2.3494,-2.3494,-2.3494,-2.3494,-2.3494,-2.3494,-2.3494,-2.3494,-2.3494,-2.3494,-2.3494,-2.3494,-2.3494,-2.3494,-2.3494,-2.3494,-2.3494,-2.3494,-2.3494,-2.3494,-2.3424,-2.3383,-2.3383,-2.3401,-2.336,-2.3265,-2.3035,-2.291,-2.2738,-2.2581,-2.2527,-2.2446,-2.2254,-2.2153,-2.2124,-2.2113,-2.1895,-2.1836,-2.194,-2.2056,-2.2237,-2.2556,-2.2651,-2.2816,-2.5893,-2.5893,-2.5893,-2.5865,-2.5795,-2.5247,-2.5303,-2.5655,-2.523,-2.5274,-2.5741,-2.5844,-2.5861,-2.5676,-2.5582,-2.5562,-2.56,-2.56,-2.5584,-2.5551,-2.5519,-2.5163,-2.4466,-2.3789,-2.309,-2.2556,-2.1876,-2.1455,-2.1358,-2.1294,-2.1294,-2.1294,-2.1294,-2.1294,-2.1309,-2.1355,-2.1371,-2.1309,-2.1371,-2.1371,-2.1373,-2.1433,-2.1748,-2.2203,-2.2422,-2.2456,-2.2497,-2.2615,-2.2634,-2.2502,-2.2502,-2.2529,-2.2529,-2.2502,-2.2529,-2.2582,-2.2695,-2.2756,-2.2782,-2.2782,-2.2782,-2.2764,-2.2807,-2.2756,-2.2807,-2.2807,-2.2833,-2.2764,-2.3045,-2.3241,-2.3471,-2.3494,-2.3494,-2.3494,-2.3494,-2.3494,-2.3494,-2.3494,-2.3494,-2.3494,-2.3494,-2.3494,-2.3494,-2.3494,-2.3494,-2.3494,-2.3494,-2.3476,-2.3471,-2.3471,-2.3342,-2.3175,-2.3102,-2.3119,-2.3119,-2.3102,-2.3003,-2.2782,-2.251,-2.2275,-2.2153,-2.2039,-2.194,-2.1899,-2.1899,-2.1869,-2.1827,-2.1857,-2.1899,-2.2003,-2.2163,-2.2377,-2.2649,-2.2685,-2.2876,-2.5893,-2.5893,-2.5893,-2.5893,-2.5865,-2.5655,-2.5697,-2.5865,-2.5669,-2.5771,-2.5969,-2.5666,-2.5488,-2.5545,-2.4989,-2.4814,-2.4931,-2.5373,-2.5357,-2.5017,-2.5389,-2.547,-2.5163,-2.4482,-2.4013,-2.3673,-2.3025,-2.2458,-2.1973,-2.1568,-2.1294,-2.1294,-2.1294,-2.1294,-2.1309,-2.1325,-2.1324,-2.1306,-2.1308,-2.1371,-2.1386,-2.1371,-2.1509,-2.184,-2.194,-2.2015,-2.1974,-2.2073,-2.2084,-2.1998,-2.2136,-2.2248,-2.2258,-2.2466,-2.259,-2.2616,-2.2686,-2.2703,-2.2703,-2.2703,-2.2703,-2.2703,-2.2703,-2.2686,-2.2703,-2.2703,-2.2738,-2.2927,-2.3028,-2.3217,-2.343,-2.3494,-2.3494,-2.3494,-2.3494,-2.3494,-2.3494,-2.3494,-2.3494,-2.3494,-2.3494,-2.3494,-2.3494,-2.3494,-2.3494,-2.3476,-2.3346,-2.3259,-2.3212,-2.3105,-2.2972,-2.2892,-2.2833,-2.2764,-2.2537,-2.2712,-2.2756,-2.25,-2.2265,-2.2124,-2.1998,-2.1911,-2.184,-2.184,-2.1781,-2.1781,-2.1827,-2.1915,-2.1974,-2.2077,-2.2225,-2.2377,-2.2632,-2.2738,-2.2952,-2.5893,-2.5893,-2.5893,-2.5893,-2.5893,-2.5893,-2.5893,-2.5893,-2.5893,-2.5903,-2.5777,-2.5387,-2.515,-2.5027,-2.4578,-2.4346,-2.4372,-2.5056,-2.5158,-2.492,-2.5389,-2.5616,-2.5486,-2.4855,-2.4499,-2.4321,-2.3578,-2.2863,-2.2377,-2.1665,-2.1294,-2.1294,-2.1294,-2.1294,-2.1309,-2.1309,-2.1308,-2.1306,-2.1324,-2.1339,-2.137,-2.1355,-2.1371,-2.1542,-2.1634,-2.1648,-2.1664,-2.1708,-2.1708,-2.1648,-2.1794,-2.194,-2.1969,-2.2226,-2.2392,-2.2364,-2.2375,-2.2436,-2.2392,-2.2436,-2.2392,-2.2392,-2.2392,-2.2419,-2.2392,-2.2392,-2.2544,-2.2738,-2.291,-2.3077,-2.3313,-2.343,-2.3494,-2.3494,-2.3494,-2.3494,-2.3494,-2.3494,-2.3494,-2.3494,-2.3494,-2.3471,-2.3383,-2.336,-2.3313,-2.3247,-2.3076,-2.2986,-2.2933,-2.284,-2.266,-2.2563,-2.2554,-2.2375,-2.2209,-2.2281,-2.2364,-2.2141,-2.2113,-2.1969,-2.1899,-2.1811,-2.1781,-2.1781,-2.1781,-2.1781,-2.1857,-2.1974,-2.2077,-2.2123,-2.2237,-2.2377,-2.2605,-2.2842,-2.2977,-2.595,-2.595,-2.5907,-2.5936,-2.5907,-2.5893,-2.5893,-2.5893,-2.5893,-2.568,-2.5339,-2.5331,-2.5026,-2.4464,-2.4595,-2.4356,-2.4202,-2.4721,-2.5153,-2.5368,-2.5551,-2.5616,-2.5567,-2.4936,-2.4628,-2.4547,-2.3155,-2.2523,-2.2458,-2.1811,-2.1422,-2.1341,-2.1294,-2.1294,-2.1294,-2.1324,-2.1355,-2.134,-2.1355,-2.1371,-2.1309,-2.1355,-2.1386,-2.1433,-2.1511,-2.1589,-2.1573,-2.162,-2.1573,-2.1464,-2.1542,-2.162,-2.1664,-2.1797,-2.1811,-2.1827,-2.1827,-2.1811,-2.184,-2.1869,-2.1899,-2.1899,-2.184,-2.1899,-2.1928,-2.1899,-2.1998,-2.2292,-2.2537,-2.279,-2.3077,-2.3289,-2.343,-2.3494,-2.3471,-2.3448,-2.3471,-2.3471,-2.3494,-2.343,-2.3407,-2.336,-2.3193,-2.3102,-2.301,-2.2841,-2.273,-2.266,-2.2669,-2.2616,-2.2527,-2.232,-2.2209,-2.2124,-2.194,-2.1811,-2.1811,-2.1811,-2.184,-2.1811,-2.184,-2.1827,-2.1811,-2.1811,-2.1781,-2.1781,-2.1915,-2.2032,-2.2061,-2.2163,-2.2248,-2.2377,-2.2605,-2.2816,-2.2876,-2.6933,-2.654,-2.6526,-2.6273,-2.5921,-2.5893,-2.5893,-2.5893,-2.5893,-2.5835,-2.5731,-2.5493,-2.5322,-2.5119,-2.4893,-2.4624,-2.4435,-2.4883,-2.5028,-2.4986,-2.5352,-2.5616,-2.5567,-2.5373,-2.5243,-2.5114,-2.4304,-2.3576,-2.3058,-2.2394,-2.1827,-2.1406,-2.1294,-2.1294,-2.1294,-2.1309,-2.1309,-2.1325,-2.1309,-2.134,-2.1355,-2.134,-2.134,-2.1386,-2.1402,-2.1388,-2.1419,-2.1511,-2.1542,-2.1417,-2.1542,-2.162,-2.1664,-2.1738,-2.1781,-2.1751,-2.1797,-2.1781,-2.1781,-2.1781,-2.1781,-2.1781,-2.1781,-2.1781,-2.1781,-2.1781,-2.1911,-2.2136,-2.2303,-2.2483,-2.2764,-2.2867,-2.3109,-2.3471,-2.3336,-2.3241,-2.3217,-2.3077,-2.296,-2.296,-2.296,-2.291,-2.2859,-2.2833,-2.2782,-2.2677,-2.2493,-2.2351,-2.233,-2.2226,-2.2056,-2.194,-2.1911,-2.194,-2.184,-2.1781,-2.1781,-2.1781,-2.1781,-2.1781,-2.1797,-2.1857,-2.184,-2.184,-2.1811,-2.1857,-2.1991,-2.2077,-2.2135,-2.2163,-2.2265,-2.2432,-2.2632,-2.2738,-2.2764,-2.7045,-2.6497,-2.6469,-2.6259,-2.5907,-2.5893,-2.5893,-2.5893,-2.5893,-2.5821,-2.5661,-2.5426,-2.5203,-2.5048,-2.4811,-2.4824,-2.4894,-2.5377,-2.5394,-2.5102,-2.5347,-2.5594,-2.5616,-2.5616,-2.5616,-2.547,-2.4839,-2.4126,-2.3497,-2.275,-2.2037,-2.1438,-2.1294,-2.1294,-2.1294,-2.1294,-2.1294,-2.1294,-2.1325,-2.1309,-2.1324,-2.1309,-2.1325,-2.1324,-2.1309,-2.1309,-2.134,-2.145,-2.1481,-2.1417,-2.1542,-2.1664,-2.1721,-2.1768,-2.1781,-2.1781,-2.1781,-2.1781,-2.1781,-2.1781,-2.1781,-2.1781,-2.1781,-2.1781,-2.1781,-2.1781,-2.1911,-2.2136,-2.2203,-2.2347,-2.2634,-2.2703,-2.2884,-2.3133,-2.3052,-2.2952,-2.2927,-2.2807,-2.273,-2.273,-2.273,-2.2634,-2.2537,-2.2561,-2.2508,-2.2409,-2.2192,-2.2046,-2.2039,-2.1911,-2.184,-2.1781,-2.1811,-2.184,-2.1811,-2.1781,-2.1781,-2.1781,-2.1781,-2.1781,-2.1797,-2.184,-2.1899,-2.1945,-2.1945,-2.1945,-2.2049,-2.2135,-2.2209,-2.2237,-2.2282,-2.2377,-2.2487,-2.2515,-2.2542,-2.6554,-2.5978,-2.595,-2.5978,-2.5907,-2.5893,-2.5893,-2.5893,-2.5893,-2.5612,-2.5244,-2.5307,-2.502,-2.4546,-2.4855,-2.5101,-2.5393,-2.5925,-2.6004,-2.5753,-2.5687,-2.5631,-2.5594,-2.5616,-2.5616,-2.5503,-2.4936,-2.4272,-2.364,-2.2928,-2.2086,-2.1535,-2.1358,-2.1294,-2.1294,-2.1294,-2.1294,-2.1294,-2.1294,-2.1294,-2.1309,-2.1294,-2.1309,-2.1309,-2.1325,-2.1309,-2.1371,-2.134,-2.1371,-2.1417,-2.1556,-2.1678,-2.1768,-2.1797,-2.1768,-2.1768,-2.1797,-2.1768,-2.1797,-2.1781,-2.1797,-2.1797,-2.1797,-2.1781,-2.1781,-2.1781,-2.1899,-2.2096,-2.2136,-2.2265,-2.2527,-2.2581,-2.2581,-2.2634,-2.266,-2.2651,-2.2651,-2.2624,-2.2554,-2.2581,-2.2624,-2.2527,-2.2209,-2.2304,-2.2163,-2.1974,-2.1869,-2.1853,-2.1823,-2.1811,-2.1781,-2.1781,-2.1781,-2.1781,-2.1781,-2.1781,-2.1781,-2.1781,-2.1781,-2.1781,-2.1811,-2.1869,-2.1974,-2.2003,-2.2032,-2.2061,-2.2106,-2.218,-2.2209,-2.2254,-2.2282,-2.2299,-2.2355,-2.2366,-2.2394,-2.7565,-2.6596,-2.6568,-2.6315,-2.5936,-2.5893,-2.5893,-2.5893,-2.5893,-2.5795,-2.5694,-2.5816,-2.5795,-2.5788,-2.5873,-2.5879,-2.5868,-2.6206,-2.6032,-2.5524,-2.5737,-2.5687,-2.5621,-2.5616,-2.5616,-2.5567,-2.5341,-2.4936,-2.4223,-2.3462,-2.2798,-2.2102,-2.1535,-2.1294,-2.1294,-2.1294,-2.1294,-2.1294,-2.1294,-2.1294,-2.1294,-2.1294,-2.1294,-2.1294,-2.1294,-2.1309,-2.134,-2.1355,-2.1386,-2.1386,-2.1448,-2.1526,-2.1634,-2.1664,-2.1664,-2.1664,-2.1724,-2.1708,-2.1694,-2.1738,-2.1768,-2.1738,-2.1768,-2.1781,-2.1781,-2.1781,-2.184,-2.1899,-2.1899,-2.194,-2.2044,-2.2073,-2.2073,-2.2056,-2.2237,-2.2265,-2.213,-2.2027,-2.2027,-2.2044,-2.2056,-2.2015,-2.1986,-2.1974,-2.1961,-2.1827,-2.1781,-2.1781,-2.1781,-2.1781,-2.1781,-2.1781,-2.1781,-2.1781,-2.1781,-2.1781,-2.1781,-2.1781,-2.1781,-2.1781,-2.1811,-2.1869,-2.1991,-2.2094,-2.2061,-2.2061,-2.2135,-2.2225,-2.2254,-2.2254,-2.2299,-2.2327,-2.2327,-2.2338,-2.2338,-2.7326,-2.6427,-2.6427,-2.6217,-2.5907,-2.5893,-2.5893,-2.5893,-2.5893,-2.5893,-2.5893,-2.5934,-2.6125,-2.6233,-2.6351,-2.627,-2.6147,-2.6677,-2.6617,-2.618,-2.6204,-2.599,-2.5724,-2.5616,-2.5616,-2.5616,-2.5616,-2.5179,-2.4482,-2.3837,-2.3124,-2.2361,-2.1665,-2.131,-2.1294,-2.1294,-2.1294,-2.1294,-2.1294,-2.1294,-2.1294,-2.1294,-2.1294,-2.1294,-2.1294,-2.1294,-2.1309,-2.1355,-2.1417,-2.1464,-2.1495,-2.1526,-2.1573,-2.162,-2.165,-2.1634,-2.1678,-2.1708,-2.1708,-2.1768,-2.1768,-2.1768,-2.1797,-2.1797,-2.1781,-2.1781,-2.1781,-2.1781,-2.1781,-2.1781,-2.1781,-2.1781,-2.1781,-2.184,-2.194,-2.1969,-2.1827,-2.1811,-2.1781,-2.1781,-2.1781,-2.1781,-2.1781,-2.1781,-2.1781,-2.1781,-2.1781,-2.1781,-2.1781,-2.1781,-2.1781,-2.1781,-2.1781,-2.1781,-2.1781,-2.1781,-2.1811,-2.1811,-2.1811,-2.1811,-2.1823,-2.1869,-2.1974,-2.2077,-2.2061,-2.2089,-2.218,-2.2254,-2.2282,-2.2282,-2.2282,-2.2327,-2.2327,-2.2327,-2.2327,-2.6455,-2.5893,-2.5893,-2.5893,-2.5893,-2.5893,-2.5893,-2.5893,-2.5893,-2.5893,-2.5893,-2.5893,-2.6002,-2.6125,-2.6272,-2.6365,-2.652,-2.6968,-2.7079,-2.6841,-2.6677,-2.6273,-2.5643,-2.5616,-2.5616,-2.5616,-2.5616,-2.5276,-2.4644,-2.3967,-2.3221,-2.2523,-2.1778,-2.1326,-2.1294,-2.1294,-2.1294,-2.1294,-2.1294,-2.1294,-2.1294,-2.1294,-2.1294,-2.1294,-2.1294,-2.1294,-2.1309,-2.1355,-2.1433,-2.1542,-2.1573,-2.1542,-2.1573,-2.1634,-2.1694,-2.1694,-2.1708,-2.1768,-2.1768,-2.1768,-2.1797,-2.1797,-2.1797,-2.1781,-2.1781,-2.1781,-2.1781,-2.1781,-2.1781,-2.1781,-2.1781,-2.1781,-2.1781,-2.1797,-2.1811,-2.1781,-2.1781,-2.1781,-2.1781,-2.1781,-2.1781,-2.1781,-2.1781,-2.1781,-2.1781,-2.1781,-2.1781,-2.1781,-2.1781,-2.1781,-2.1781,-2.1781,-2.1781,-2.1781,-2.1781,-2.1781,-2.1811,-2.1811,-2.1811,-2.184,-2.1882,-2.194,-2.1986,-2.2015,-2.2118,-2.2163,-2.2225,-2.2254,-2.2282,-2.2282,-2.2327,-2.2327,-2.2327,-2.2327,-2.2327,-2.6455,-2.5893,-2.5893,-2.5893,-2.5893,-2.5893,-2.5893,-2.5893,-2.5893,-2.5893,-2.5893,-2.5893,-2.6002,-2.6111,-2.6233,-2.6379,-2.6525,-2.6886,-2.6748,-2.6488,-2.6643,-2.6257,-2.5745,-2.5616,-2.5616,-2.5616,-2.5616,-2.5519,-2.5098,-2.4126,-2.3448,-2.3106,-2.194,-2.1294,-2.1294,-2.1294,-2.1294,-2.1294,-2.1294,-2.1294,-2.1294,-2.1294,-2.1294,-2.1294,-2.1294,-2.1294,-2.1294,-2.1309,-2.134,-2.1388,-2.1433,-2.1464,-2.1464,-2.1542,-2.1603,-2.1634,-2.1694,-2.1724,-2.1664,-2.1754,-2.1768,-2.1754,-2.1751,-2.1781,-2.1781,-2.1781,-2.1781,-2.1781,-2.1781,-2.1781,-2.1781,-2.1781,-2.1781,-2.1781,-2.1781,-2.1781,-2.1781,-2.1781,-2.1781,-2.1781,-2.1781,-2.1781,-2.1781,-2.1781,-2.1781,-2.1781,-2.1781,-2.1781,-2.1781,-2.1781,-2.1781,-2.1781,-2.1811,-2.1811,-2.1811,-2.184,-2.1853,-2.1853,-2.1869,-2.1915,-2.1957,-2.1986,-2.2015,-2.2106,-2.2209,-2.2254,-2.2225,-2.2282,-2.2282,-2.231,-2.2327,-2.2327,-2.2327,-2.2327,-2.2327,-2.5897,-2.5907,-2.5893,-2.5893,-2.5893,-2.5893,-2.5893,-2.5893,-2.5893,-2.5893,-2.5893,-2.5893,-2.5948,-2.6125,-2.6165,-2.6272,-2.6578,-2.7108,-2.6988,-2.6548,-2.6745,-2.6564,-2.5762,-2.5616,-2.5616,-2.5578,-2.5616,-2.5616,-2.5243,-2.4288,-2.3513,-2.34,-2.2021,-2.139,-2.1294,-2.1294,-2.1294,-2.1294,-2.1294,-2.1294,-2.1294,-2.1294,-2.1294,-2.1294,-2.1294,-2.1294,-2.1294,-2.1294,-2.1294,-2.1309,-2.1355,-2.1386,-2.1355,-2.1433,-2.1511,-2.1526,-2.1634,-2.1664,-2.165,-2.1694,-2.1724,-2.1664,-2.1708,-2.1738,-2.1768,-2.1768,-2.1781,-2.1781,-2.1781,-2.1781,-2.1781,-2.1781,-2.1781,-2.1781,-2.1781,-2.1781,-2.1781,-2.1781,-2.1781,-2.1781,-2.1781,-2.1781,-2.1781,-2.1781,-2.1781,-2.1781,-2.1781,-2.1781,-2.1781,-2.1781,-2.1781,-2.1781,-2.184,-2.184,-2.1869,-2.1899,-2.1911,-2.1924,-2.1924,-2.2003,-2.2077,-2.2106,-2.2089,-2.2163,-2.2209,-2.2225,-2.2242,-2.2271,-2.2327,-2.2327,-2.2327,-2.2327,-2.2327,-2.2327,-2.2327,-2.5439,-2.5893,-2.5893,-2.5893,-2.5893,-2.5893,-2.5893,-2.5893,-2.5893,-2.5893,-2.5893,-2.5893,-2.5948,-2.6056,-2.6125,-2.6233,-2.6602,-2.711,-2.7005,-2.6214,-2.6635,-2.6222,-2.5463,-2.5294,-2.5333,-2.5486,-2.5562,-2.5578,-2.5243,-2.4272,-2.3545,-2.327,-2.2037,-2.1358,-2.1294,-2.1294,-2.1294,-2.1294,-2.1294,-2.1294,-2.1294,-2.1294,-2.1294,-2.1294,-2.1294,-2.1294,-2.1309,-2.1309,-2.134,-2.1325,-2.1402,-2.1355,-2.1324,-2.1386,-2.1448,-2.1464,-2.1617,-2.1694,-2.1664,-2.1694,-2.1724,-2.1634,-2.1694,-2.1708,-2.1738,-2.1768,-2.1781,-2.1781,-2.1781,-2.1781,-2.1781,-2.1781,-2.1781,-2.1781,-2.1781,-2.1781,-2.1781,-2.1781,-2.1781,-2.1781,-2.1781,-2.1781,-2.1781,-2.1781,-2.1781,-2.1781,-2.1781,-2.1781,-2.1781,-2.1781,-2.1781,-2.1781,-2.1811,-2.1869,-2.1869,-2.1957,-2.1969,-2.2015,-2.2027,-2.2089,-2.2197,-2.218,-2.218,-2.2135,-2.2163,-2.2225,-2.2225,-2.2282,-2.2282,-2.231,-2.2327,-2.2327,-2.2327,-2.2327,-2.2327,-2.5839,-2.5893,-2.5893,-2.5893,-2.5893,-2.5893,-2.5893,-2.5893,-2.5893,-2.5893,-2.5893,-2.5893,-2.5893,-2.6002,-2.6179,-2.6379,-2.6591,-2.6857,-2.6462,-2.5727,-2.5852,-2.5347,-2.4842,-2.467,-2.4735,-2.5052,-2.5301,-2.5486,-2.5239,-2.4256,-2.3423,-2.3137,-2.2005,-2.1278,-2.1214,-2.1294,-2.1277,-2.1246,-2.1277,-2.1294,-2.1294,-2.1294,-2.1294,-2.1294,-2.1294,-2.1294,-2.1309,-2.1324,-2.1386,-2.1402,-2.1511,-2.1481,-2.1402,-2.1464,-2.1526,-2.1587,-2.1648,-2.1708,-2.1724,-2.1768,-2.1768,-2.1768,-2.1768,-2.1768,-2.1797,-2.1781,-2.1781,-2.1781,-2.1781,-2.1781,-2.1781,-2.1781,-2.1781,-2.1781,-2.1781,-2.1781,-2.1781,-2.1781,-2.1781,-2.1781,-2.1781,-2.1781,-2.1781,-2.1781,-2.1781,-2.1781,-2.1781,-2.1781,-2.1781,-2.1781,-2.1781,-2.1781,-2.1781,-2.184,-2.1899,-2.1969,-2.2027,-2.2106,-2.2152,-2.218,-2.2254,-2.2282,-2.2282,-2.2237,-2.2209,-2.2254,-2.2282,-2.2282,-2.2282,-2.2327,-2.2327,-2.2327,-2.2327,-2.2327,-2.2327,-2.5619,-2.5893,-2.5893,-2.5893,-2.5893,-2.5893,-2.5893,-2.5893,-2.5893,-2.5893,-2.5893,-2.5893,-2.5893,-2.5948,-2.5988,-2.613,-2.611,-2.6421,-2.5908,-2.5227,-2.5177,-2.4918,-2.4322,-2.4276,-2.4426,-2.4614,-2.4831,-2.5068,-2.5041,-2.3565,-2.2964,-2.2568,-2.1609,-2.0958,-2.0893,-2.1103,-2.1151,-2.1119,-2.1183,-2.1277,-2.1294,-2.1294,-2.1277,-2.1294,-2.1277,-2.1294,-2.1277,-2.1119,-2.1166,-2.1277,-2.1262,-2.1246,-2.1277,-2.1277,-2.1325,-2.1511,-2.1617,-2.1694,-2.1724,-2.1708,-2.1708,-2.1678,-2.1738,-2.1738,-2.1768,-2.1768,-2.1781,-2.1781,-2.1781,-2.1781,-2.1781,-2.1781,-2.1781,-2.1781,-2.1781,-2.1781,-2.1781,-2.1781,-2.1781,-2.1781,-2.1781,-2.1781,-2.1781,-2.1781,-2.1781,-2.1781,-2.1781,-2.1781,-2.1781,-2.1781,-2.1811,-2.184,-2.1857,-2.1945,-2.2003,-2.2061,-2.2101,-2.218,-2.2242,-2.2271,-2.2299,-2.2299,-2.2327,-2.2282,-2.2299,-2.2327,-2.2327,-2.2282,-2.231,-2.2327,-2.2327,-2.2327,-2.2327,-2.2327,-2.2327,-2.5453,-2.5893,-2.5893,-2.5893,-2.5893,-2.5893,-2.5893,-2.5893,-2.5893,-2.5893,-2.5879,-2.5753,-2.5737,-2.5709,-2.5646,-2.5483,-2.53,-2.5756,-2.5227,-2.47,-2.4521,-2.4435,-2.4146,-2.4051,-2.3994,-2.412,-2.3994,-2.4287,-2.4413,-2.3118,-2.2355,-2.1966,-2.1252,-2.053,-2.0413,-2.0763,-2.0844,-2.0844,-2.0909,-2.1071,-2.1087,-2.1071,-2.1071,-2.1087,-2.1071,-2.1039,-2.0974,-2.0877,-2.0877,-2.0974,-2.0958,-2.0925,-2.1087,-2.0958,-2.0942,-2.123,-2.1417,-2.1526,-2.1664,-2.1648,-2.1694,-2.1694,-2.1694,-2.1708,-2.1738,-2.1768,-2.1781,-2.1781,-2.1781,-2.1781,-2.1781,-2.1781,-2.1781,-2.1781,-2.1781,-2.1781,-2.1781,-2.1781,-2.1781,-2.1781,-2.1781,-2.1781,-2.1781,-2.1781,-2.1781,-2.1781,-2.1781,-2.1781,-2.1781,-2.184,-2.184,-2.1899,-2.1974,-2.2094,-2.2152,-2.218,-2.2237,-2.2254,-2.2299,-2.2299,-2.2299,-2.2327,-2.2327,-2.2327,-2.2327,-2.2327,-2.2327,-2.2327,-2.2327,-2.2327,-2.2327,-2.2327,-2.2327,-2.2327,-2.2327,-2.5839,-2.5893,-2.5893,-2.5893,-2.5893,-2.5893,-2.5893,-2.5893,-2.5893,-2.5893,-2.5781,-2.5399,-2.524,-2.5204,-2.4969,-2.4833,-2.4722,-2.4549,-2.4279,-2.3917,-2.3612,-2.3393,-2.3127,-2.3068,-2.3392,-2.3566,-2.3319,-2.361,-2.3788,-2.2815,-2.2179,-2.1888,-2.0983,-2.0224,-2.0104,-2.0345,-2.0296,-2.0277,-2.0345,-2.0379,-2.0379,-2.0379,-2.0429,-2.0395,-2.0413,-2.0413,-2.0496,-2.0462,-2.0563,-2.0597,-2.0745,-2.0745,-2.0697,-2.0794,-2.0728,-2.0763,-2.0893,-2.1198,-2.1526,-2.1617,-2.1648,-2.1678,-2.1751,-2.1768,-2.1768,-2.1768,-2.1781,-2.1781,-2.1781,-2.1781,-2.1781,-2.1781,-2.1781,-2.1781,-2.1781,-2.1781,-2.1781,-2.1781,-2.1781,-2.1781,-2.1781,-2.1781,-2.1781,-2.1781,-2.1781,-2.1781,-2.1781,-2.1781,-2.1811,-2.184,-2.1869,-2.1928,-2.202,-2.2123,-2.2197,-2.2254,-2.2282,-2.2327,-2.2327,-2.2327,-2.2327,-2.2327,-2.2327,-2.2327,-2.2327,-2.2327,-2.2327,-2.2327,-2.2327,-2.2327,-2.2327,-2.2327,-2.2327,-2.2327,-2.2327,-2.5584,-2.5893,-2.5893,-2.5893,-2.5893,-2.5893,-2.5893,-2.5893,-2.5893,-2.5697,-2.5388,-2.524,-2.5006,-2.471,-2.459,-2.4402,-2.4182,-2.3945,-2.3659,-2.3412,-2.3033,-2.2888,-2.2933,-2.2902,-2.3068,-2.3098,-2.3053,-2.3068,-2.3124,-2.2658,-2.1932,-2.1476,-2.0783,-2.0077,-1.9822,-2.0015,-2.005,-2.005,-2.0085,-2.0208,-2.0208,-2.0174,-2.0174,-2.0174,-2.0174,-2.0174,-2.0174,-2.005,-2.0189,-2.0258,-2.0308,-2.0273,-2.0292,-2.0258,-2.0204,-2.0395,-2.0311,-2.0581,-2.1071,-2.1324,-2.1464,-2.1587,-2.1678,-2.1797,-2.1781,-2.1781,-2.1781,-2.1781,-2.1781,-2.1781,-2.1781,-2.1781,-2.1781,-2.1781,-2.1781,-2.1781,-2.1781,-2.1781,-2.1781,-2.1781,-2.1781,-2.1781,-2.1811,-2.1811,-2.1811,-2.1811,-2.1811,-2.1797,-2.1827,-2.1869,-2.1899,-2.1911,-2.2032,-2.2168,-2.2197,-2.2254,-2.2282,-2.2327,-2.2327,-2.2327,-2.2327,-2.2327,-2.2327,-2.2327,-2.2327,-2.2327,-2.2327,-2.2327,-2.2327,-2.2327,-2.2327,-2.2327,-2.2327,-2.2327,-2.2327,-2.5022,-2.5458,-2.5753,-2.5893,-2.5893,-2.5893,-2.5893,-2.5893,-2.5893,-2.5556,-2.5061,-2.4784,-2.4426,-2.4083,-2.4009,-2.3817,-2.3519,-2.3598,-2.3337,-2.3018,-2.2888,-2.2888,-2.2888,-2.2888,-2.2888,-2.2888,-2.2933,-2.2978,-2.2802,-2.2483,-2.1974,-2.122,-2.0696,-2.0112,-1.97,-1.9656,-1.9732,-1.9603,-1.9732,-1.9823,-1.9859,-1.9859,-1.9909,-1.9945,-1.9965,-1.998,-1.9929,-1.9782,-1.9818,-1.9889,-1.9869,-1.9854,-1.998,-1.9925,-1.9889,-2.0015,-1.9945,-2.005,-2.0496,-2.0795,-2.1071,-2.1277,-2.1464,-2.1617,-2.1661,-2.1691,-2.1781,-2.1781,-2.1781,-2.1781,-2.1781,-2.1781,-2.1781,-2.1781,-2.1781,-2.1781,-2.1781,-2.1781,-2.1781,-2.1781,-2.1781,-2.1811,-2.1811,-2.184,-2.184,-2.1811,-2.1811,-2.1827,-2.1886,-2.1899,-2.1974,-2.2032,-2.2106,-2.2225,-2.2254,-2.2254,-2.2299,-2.2327,-2.2327,-2.2327,-2.2327,-2.2327,-2.2327,-2.2327,-2.2327,-2.2327,-2.2327,-2.2327,-2.2327,-2.2327,-2.2327,-2.2327,-2.2327,-2.2327,-2.2327,-2.4188,-2.4329,-2.5416,-2.5837,-2.5823,-2.5893,-2.5865,-2.5725,-2.5809,-2.543,-2.4723,-2.4063,-2.3445,-2.3109,-2.3172,-2.3132,-2.2989,-2.296,-2.296,-2.2931,-2.2888,-2.2888,-2.2888,-2.2888,-2.2888,-2.2888,-2.2888,-2.2888,-2.2873,-2.2786,-2.2396,-2.1902,-2.0878,-2.0287,-1.9837,-1.9551,-1.9376,-1.925,-1.931,-1.931,-1.931,-1.9288,-1.9325,-1.9398,-1.9398,-1.9362,-1.9376,-1.9398,-1.9435,-1.9545,-1.9523,-1.956,-1.9675,-1.9639,-1.9639,-1.969,-1.9726,-1.9782,-1.9995,-2.0395,-2.0697,-2.0877,-2.1103,-2.134,-2.1324,-2.1601,-2.1721,-2.1708,-2.1694,-2.1754,-2.1768,-2.1781,-2.1721,-2.1751,-2.1751,-2.1738,-2.1751,-2.1781,-2.1781,-2.1781,-2.1781,-2.1811,-2.184,-2.184,-2.1882,-2.1899,-2.1869,-2.1869,-2.1957,-2.2015,-2.2152,-2.218,-2.2254,-2.2299,-2.2299,-2.2327,-2.2327,-2.2327,-2.2327,-2.2327,-2.2327,-2.2327,-2.2327,-2.2327,-2.2327,-2.2327,-2.2327,-2.2327,-2.2327,-2.2327,-2.2327,-2.2327,-2.2327,-2.2327,-2.2327,-2.3752,-2.416,-2.4638,-2.4822,-2.4822,-2.4822,-2.4822,-2.4822,-2.4822,-2.4455,-2.395,-2.3183,-2.2812,-2.2793,-2.2841,-2.2872,-2.2888,-2.2888,-2.2888,-2.2888,-2.2888,-2.2888,-2.2888,-2.2888,-2.2888,-2.2888,-2.2888,-2.2888,-2.2888,-2.283,-2.2527,-2.1873,-2.1003,-2.0509,-2.003,-1.9478,-1.9188,-1.9116,-1.9116,-1.9116,-1.9116,-1.9116,-1.9153,-1.9139,-1.9191,-1.9176,-1.9176,-1.9213,-1.9228,-1.9228,-1.9302,-1.9339,-1.9362,-1.9398,-1.9435,-1.9487,-1.9523,-1.9596,-1.9705,-2.0085,-2.0447,-2.0745,-2.0909,-2.0974,-2.099,-2.1135,-2.1247,-2.1326,-2.1482,-2.1528,-2.1755,-2.164,-2.1526,-2.1661,-2.1691,-2.1631,-2.1678,-2.1708,-2.1781,-2.1781,-2.1781,-2.1811,-2.184,-2.1869,-2.1928,-2.1969,-2.1957,-2.1957,-2.2015,-2.2089,-2.2209,-2.2254,-2.2282,-2.2327,-2.2327,-2.2327,-2.2327,-2.2327,-2.2327,-2.2327,-2.2327,-2.2327,-2.2327,-2.2327,-2.2327,-2.2327,-2.2327,-2.2327,-2.2327,-2.2327,-2.2327,-2.2327,-2.2327,-2.2327,-2.2327,-2.3083,-2.354,-2.3505,-2.3794,-2.4089,-2.4118,-2.4118,-2.4118,-2.416,-2.3801,-2.3249,-2.2715,-2.2537,-2.2749,-2.2809,-2.2826,-2.2888,-2.2888,-2.2888,-2.2888,-2.2888,-2.2888,-2.2888,-2.2888,-2.2888,-2.2888,-2.2888,-2.2888,-2.2873,-2.27,-2.2396,-2.1873,-2.1162,-2.048,-2.0074,-1.9493,-1.9116,-1.9116,-1.9116,-1.9116,-1.9116,-1.9116,-1.9139,-1.9176,-1.9191,-1.9213,-1.9213,-1.9228,-1.9228,-1.9228,-1.9213,-1.9191,-1.9191,-1.9228,-1.9265,-1.9354,-1.9428,-1.9487,-1.9669,-1.9869,-2.0174,-2.0342,-2.0545,-2.0613,-2.0646,-2.0712,-2.0973,-2.1101,-2.1183,-2.1279,-2.1536,-2.1343,-2.1199,-2.1279,-2.1246,-2.1246,-2.1464,-2.1556,-2.1691,-2.1751,-2.1781,-2.1811,-2.1853,-2.1928,-2.1957,-2.2044,-2.2089,-2.2106,-2.2106,-2.218,-2.2209,-2.2254,-2.2282,-2.2282,-2.2327,-2.2327,-2.2327,-2.2327,-2.2327,-2.2327,-2.2327,-2.2327,-2.2327,-2.2327,-2.2327,-2.2327,-2.2327,-2.2327,-2.2327,-2.2327,-2.2327,-2.2327,-2.2327,-2.2327,-2.2327,-2.224,-2.2259,-2.2269,-2.3005,-2.3935,-2.4075,-2.4033,-2.3906,-2.3935,-2.3674,-2.315,-2.2644,-2.2537,-2.2749,-2.2795,-2.2826,-2.2888,-2.2888,-2.2888,-2.2888,-2.2888,-2.2888,-2.2888,-2.2888,-2.2888,-2.2888,-2.2873,-2.2873,-2.2786,-2.241,-2.2091,-2.1525,-2.0669,-2.0059,-2.0001,-1.9435,-1.913,-1.9116,-1.9116,-1.9116,-1.9116,-1.9101,-1.9139,-1.9228,-1.9228,-1.9213,-1.9265,-1.9265,-1.9265,-1.925,-1.925,-1.9302,-1.9354,-1.9354,-1.9428,-1.9553,-1.9574,-1.9596,-1.969,-1.9711,-1.9782,-1.9889,-2.012,-2.0224,-2.0292,-2.0512,-2.0693,-2.0704,-2.0857,-2.0877,-2.0925,-2.0925,-2.0873,-2.0905,-2.089,-2.0925,-2.1151,-2.145,-2.1556,-2.1661,-2.1768,-2.1827,-2.1899,-2.194,-2.2015,-2.2073,-2.2192,-2.2237,-2.2197,-2.2225,-2.2254,-2.2282,-2.2282,-2.2282,-2.2327,-2.2327,-2.2327,-2.2327,-2.2327,-2.2327,-2.2327,-2.2327,-2.2327,-2.2327,-2.2327,-2.2327,-2.2327,-2.2327,-2.2327,-2.2327,-2.2327,-2.2327,-2.2327,-2.2327,-2.2327,-2.217,-2.217,-2.217,-2.247,-2.285,-2.2865,-2.2865,-2.2817,-2.285,-2.2785,-2.2743,-2.2505,-2.2629,-2.2795,-2.2826,-2.2857,-2.2888,-2.2888,-2.2888,-2.2888,-2.2888,-2.2888,-2.2888,-2.2888,-2.2888,-2.2888,-2.2873,-2.2642,-2.228,-2.2004,-2.138,-2.0712,-2.0045,-1.9508,-1.9391,-1.9159,-1.9116,-1.9116,-1.9116,-1.9116,-1.9116,-1.9101,-1.9139,-1.9191,-1.9191,-1.9191,-1.9228,-1.9265,-1.9265,-1.925,-1.925,-1.9339,-1.9339,-1.9339,-1.9465,-1.9574,-1.9611,-1.9632,-1.969,-1.9726,-1.9726,-1.9762,-1.9818,-1.9925,-1.9925,-1.9995,-2.0096,-2.0216,-2.0407,-2.0345,-2.0154,-2.0361,-2.0441,-2.0702,-2.0738,-2.0677,-2.0844,-2.1183,-2.1402,-2.1495,-2.1587,-2.1781,-2.1911,-2.1986,-2.2015,-2.2089,-2.2209,-2.2237,-2.2254,-2.2254,-2.2282,-2.2282,-2.2299,-2.2299,-2.2327,-2.2327,-2.2327,-2.2327,-2.2327,-2.2327,-2.2327,-2.2327,-2.2327,-2.2327,-2.2327,-2.2327,-2.2327,-2.2327,-2.2327,-2.2327,-2.2327,-2.2327,-2.2327,-2.2327,-2.2327,-2.217,-2.217,-2.217,-2.217,-2.217,-2.217,-2.217,-2.217,-2.217,-2.2278,-2.2338,-2.2431,-2.2583,-2.2675,-2.2766,-2.2843,-2.2888,-2.2888,-2.2888,-2.2888,-2.2888,-2.2888,-2.2888,-2.2888,-2.2888,-2.2888,-2.2859,-2.2671,-2.241,-2.1873,-2.0973,-1.9972,-1.9333,-1.9217,-1.9145,-1.913,-1.9116,-1.9116,-1.9116,-1.9116,-1.9116,-1.9101,-1.9116,-1.9116,-1.9116,-1.9153,-1.9191,-1.9191,-1.9228,-1.9213,-1.9213,-1.9288,-1.925,-1.9302,-1.9376,-1.945,-1.9523,-1.956,-1.9647,-1.9669,-1.9669,-1.9675,-1.969,-1.9705,-1.9705,-1.9797,-1.9762,-1.9833,-1.9945,-1.9874,-1.9818,-2.0015,-2.0115,-2.0377,-2.0381,-2.0308,-2.0496,-2.0828,-2.1071,-2.1198,-2.1464,-2.1691,-2.1882,-2.1986,-2.2032,-2.2106,-2.218,-2.2225,-2.2282,-2.2282,-2.2327,-2.2327,-2.2327,-2.2327,-2.2327,-2.2327,-2.2327,-2.2327,-2.2327,-2.2327,-2.2327,-2.2327,-2.2327,-2.2327,-2.2327,-2.2327,-2.2327,-2.2327,-2.2327,-2.2327,-2.2327,-2.2327,-2.2327,-2.2327,-2.2327,-2.217,-2.217,-2.217,-2.217,-2.217,-2.217,-2.217,-2.217,-2.217,-2.2231,-2.2217,-2.2278,-2.2431,-2.2601,-2.2646,-2.2737,-2.2888,-2.2888,-2.2888,-2.2888,-2.2888,-2.2888,-2.2888,-2.2888,-2.2888,-2.2888,-2.283,-2.2685,-2.2627,-2.1365,-2.0146,-1.9464,-1.9188,-1.9116,-1.9116,-1.9116,-1.9116,-1.9116,-1.9116,-1.9116,-1.9116,-1.9116,-1.9116,-1.9116,-1.9116,-1.9139,-1.9176,-1.9213,-1.9213,-1.9213,-1.9213,-1.9176,-1.9139,-1.9153,-1.9228,-1.9302,-1.9413,-1.9538,-1.9611,-1.9647,-1.9669,-1.969,-1.969,-1.9705,-1.9705,-1.9705,-1.9705,-1.9705,-1.9797,-1.9762,-1.9762,-1.9762,-1.9797,-1.9863,-1.9863,-1.996,-2.0104,-2.0379,-2.0648,-2.0893,-2.1246,-2.1495,-2.1721,-2.184,-2.2032,-2.2077,-2.2135,-2.2225,-2.2254,-2.2282,-2.2327,-2.2327,-2.2327,-2.2327,-2.2327,-2.2327,-2.2327,-2.2327,-2.2327,-2.2327,-2.2327,-2.2327,-2.2327,-2.2327,-2.2327,-2.2327,-2.2327,-2.2327,-2.2327,-2.2327,-2.2327,-2.2327,-2.2327,-2.2327,-2.2327,-2.217,-2.217,-2.217,-2.217,-2.217,-2.217,-2.217,-2.217,-2.217,-2.2263,-2.2463,-2.2463,-2.2569,-2.2797,-2.2812,-2.2857,-2.2888,-2.2888,-2.2888,-2.2888,-2.2888,-2.2888,-2.2888,-2.2888,-2.2888,-2.2888,-2.2801,-2.2468,-2.1496,-2.0335,-1.9711,-1.9159,-1.9116,-1.9116,-1.9116,-1.9116,-1.9101,-1.9078,-1.9064,-1.904,-1.904,-1.9026,-1.9026,-1.8988,-1.8988,-1.9026,-1.9026,-1.9101,-1.9139,-1.9213,-1.9288,-1.9339,-1.9465,-1.9465,-1.9487,-1.9581,-1.9617,-1.9669,-1.9669,-1.9669,-1.9669,-1.969,-1.9705,-1.9705,-1.9705,-1.9705,-1.9705,-1.9705,-1.9705,-1.9705,-1.9705,-1.9705,-1.9705,-1.9705,-1.9705,-1.9797,-1.9945,-2.0104,-2.0345,-2.0614,-2.0942,-2.1371,-2.157,-2.184,-2.2015,-2.2061,-2.2106,-2.218,-2.2254,-2.2282,-2.2327,-2.2327,-2.2327,-2.2327,-2.2327,-2.2327,-2.2327,-2.2327,-2.2327,-2.2327,-2.2327,-2.2327,-2.2327,-2.2327,-2.2327,-2.2327,-2.2327,-2.2327,-2.2327,-2.2327,-2.2327,-2.2327,-2.2327,-2.2327,-2.2327,-2.2077,-2.217,-2.217,-2.217,-2.217,-2.217,-2.217,-2.217,-2.217,-2.2324,-2.2477,-2.2463,-2.2615,-2.2737,-2.2812,-2.2857,-2.2888,-2.2888,-2.2888,-2.2888,-2.2888,-2.2888,-2.2888,-2.2888,-2.2888,-2.2888,-2.2757,-2.2439,-2.122,-2.0161,-1.9464,-1.9116,-1.9116,-1.9116,-1.9116,-1.9064,-1.8974,-1.8988,-1.895,-1.8865,-1.8788,-1.876,-1.8745,-1.8655,-1.863,-1.863,-1.863,-1.8731,-1.8822,-1.8936,-1.9026,-1.9176,-1.9302,-1.9376,-1.9413,-1.942,-1.9398,-1.9472,-1.9523,-1.956,-1.9617,-1.969,-1.9705,-1.9705,-1.9705,-1.9705,-1.9705,-1.9705,-1.9705,-1.9705,-1.9705,-1.9705,-1.9705,-1.9705,-1.9705,-1.9705,-1.9782,-1.9874,-2.007,-2.0311,-2.0697,-2.1183,-2.1526,-2.1794,-2.1998,-2.2044,-2.2118,-2.2209,-2.2254,-2.2299,-2.2327,-2.2327,-2.2327,-2.2327,-2.2327,-2.2327,-2.2327,-2.2327,-2.2327,-2.2327,-2.2327,-2.2327,-2.2327,-2.2327,-2.2327,-2.2327,-2.2327,-2.2327,-2.2327,-2.2327,-2.2327,-2.2327,-2.2327,-2.2327,-2.2327,-2.1935,-2.217,-2.217,-2.217,-2.217,-2.217,-2.217,-2.217,-2.217,-2.2231,-2.2278,-2.237,-2.2477,-2.2646,-2.2721,-2.2826,-2.2857,-2.2857,-2.2888,-2.2888,-2.2888,-2.2888,-2.2888,-2.2888,-2.2888,-2.2888,-2.2743,-2.2454,-2.167,-2.0596,-1.9624,-1.9145,-1.9116,-1.9116,-1.9116,-1.8988,-1.8808,-1.8521,-1.8563,-1.8581,-1.8204,-1.8176,-1.8266,-1.7948,-1.7868,-1.7868,-1.7868,-1.7908,-1.8028,-1.8305,-1.8514,-1.8707,-1.8936,-1.9213,-1.9213,-1.9213,-1.9302,-1.9376,-1.945,-1.9487,-1.9581,-1.9654,-1.9705,-1.9705,-1.9705,-1.9705,-1.9705,-1.9705,-1.9705,-1.9705,-1.9705,-1.9705,-1.9705,-1.9705,-1.9705,-1.9705,-1.9762,-1.9818,-1.9874,-2.0104,-2.0447,-2.0926,-2.1214,-2.1462,-2.1764,-2.1911,-2.1953,-2.2044,-2.222,-2.2237,-2.2237,-2.2237,-2.2327,-2.2327,-2.2327,-2.2327,-2.2327,-2.2327,-2.2327,-2.2327,-2.2327,-2.2327,-2.2327,-2.2327,-2.2327,-2.2327,-2.2327,-2.2327,-2.2327,-2.2327,-2.2327,-2.2327,-2.2327,-2.2327,-2.2327,-2.165,-2.1949,-2.2137,-2.217,-2.217,-2.217,-2.217,-2.217,-2.217,-2.2278,-2.2324,-2.237,-2.2463,-2.2555,-2.2615,-2.2721,-2.2781,-2.2826,-2.2872,-2.2857,-2.2888,-2.2888,-2.2888,-2.2888,-2.2888,-2.2888,-2.2728,-2.2323,-2.1351,-2.0494,-1.9798,-1.9174,-1.9064,-1.9026,-1.895,-1.8784,-1.8433,-1.8037,-1.8027,-1.8123,-1.7882,-1.7815,-1.7868,-1.7747,-1.776,-1.7666,-1.7707,-1.7828,-1.7974,-1.8198,-1.8147,-1.8383,-1.8822,-1.9228,-1.9428,-1.9465,-1.9339,-1.9339,-1.9465,-1.9523,-1.9596,-1.9654,-1.9705,-1.9705,-1.9705,-1.9705,-1.9705,-1.9705,-1.9705,-1.9705,-1.9705,-1.9705,-1.9705,-1.9705,-1.9705,-1.9705,-1.9705,-1.9726,-1.9747,-1.998,-2.0277,-2.0548,-2.0877,-2.1166,-2.1432,-2.1521,-2.1439,-2.1529,-2.1874,-2.2022,-2.2056,-2.2073,-2.2282,-2.2327,-2.2327,-2.2327,-2.2327,-2.2327,-2.2327,-2.2327,-2.2327,-2.2327,-2.2327,-2.2327,-2.2327,-2.2327,-2.2327,-2.2327,-2.2327,-2.2327,-2.2327,-2.2327,-2.2327,-2.2327,-2.2327,-2.1375,-2.1664,-2.1902,-2.2044,-2.2044,-2.2123,-2.217,-2.217,-2.217,-2.2231,-2.231,-2.237,-2.2417,-2.2509,-2.2569,-2.2615,-2.2721,-2.2721,-2.2721,-2.2766,-2.2857,-2.2812,-2.2857,-2.2902,-2.2888,-2.2859,-2.2497,-2.1946,-2.0988,-2.0393,-1.9744,-1.896,-1.8822,-1.8745,-1.8577,-1.8266,-1.8001,-1.7572,-1.7558,-1.7568,-1.7604,-1.7552,-1.7365,-1.7352,-1.7227,-1.7269,-1.7214,-1.7338,-1.7503,-1.7693,-1.7828,-1.8187,-1.85,-1.8655,-1.9026,-1.9228,-1.9265,-1.9213,-1.945,-1.956,-1.9596,-1.9669,-1.969,-1.969,-1.9705,-1.9705,-1.9705,-1.9705,-1.9705,-1.9705,-1.9705,-1.9705,-1.9705,-1.9705,-1.9705,-1.9705,-1.9705,-1.9726,-1.9726,-1.9818,-2.0085,-2.0311,-2.0597,-2.0877,-2.1134,-2.1197,-2.1101,-2.1162,-2.1469,-2.1694,-2.174,-2.1861,-2.2032,-2.2254,-2.2327,-2.2327,-2.2327,-2.2327,-2.2327,-2.2327,-2.2327,-2.2327,-2.2327,-2.2327,-2.2327,-2.2327,-2.2327,-2.2327,-2.2327,-2.2327,-2.2327,-2.2327,-2.2327,-2.2327,-2.2327,-2.118,-2.1471,-2.1759,-2.1841,-2.1902,-2.2091,-2.217,-2.217,-2.217,-2.217,-2.2231,-2.231,-2.237,-2.2431,-2.2477,-2.2555,-2.2601,-2.2661,-2.2615,-2.2721,-2.2781,-2.2826,-2.2857,-2.2857,-2.2801,-2.251,-2.2134,-2.1441,-2.0592,-2.0022,-1.9296,-1.8602,-1.8344,-1.824,-1.7922,-1.772,-1.753,-1.7312,-1.7238,-1.7162,-1.717,-1.7213,-1.6974,-1.6726,-1.6559,-1.6534,-1.6522,-1.6607,-1.682,-1.7102,-1.7557,-1.7948,-1.8187,-1.8266,-1.8592,-1.8836,-1.8707,-1.886,-1.9191,-1.9325,-1.9472,-1.9617,-1.9654,-1.969,-1.969,-1.9705,-1.9705,-1.9705,-1.9705,-1.9705,-1.9705,-1.9705,-1.9705,-1.9705,-1.9705,-1.9705,-1.9705,-1.9705,-1.9726,-1.9726,-1.9889,-2.0104,-2.0345,-2.063,-2.0747,-2.0813,-2.0894,-2.0959,-2.1069,-2.1178,-2.124,-2.1488,-2.1705,-2.1915,-2.2152,-2.2197,-2.2152,-2.2327,-2.2327,-2.2327,-2.2327,-2.2327,-2.2327,-2.2327,-2.2327,-2.2327,-2.2327,-2.2327,-2.2327,-2.2327,-2.2327,-2.2327,-2.2327,-2.2327,-2.2327,-2.1277,-2.1759,-2.1996,-2.2137,-2.2123,-2.2184,-2.217,-2.217,-2.217,-2.217,-2.2217,-2.2231,-2.2231,-2.2231,-2.2278,-2.237,-2.2509,-2.2569,-2.2706,-2.2843,-2.2826,-2.2872,-2.2766,-2.2586,-2.251,-2.2133,-2.1539,-2.0769,-2.0061,-1.9377,-1.8714,-1.8003,-1.7948,-1.7868,-1.7787,-1.7544,-1.7256,-1.7034,-1.685,-1.6759,-1.6759,-1.6809,-1.6973,-1.6835,-1.6773,-1.6622,-1.6534,-1.662,-1.6718,-1.6931,-1.724,-1.7679,-1.7828,-1.7894,-1.8187,-1.8422,-1.8291,-1.8422,-1.8707,-1.8898,-1.9072,-1.9523,-1.956,-1.9617,-1.9632,-1.9705,-1.9705,-1.9705,-1.9705,-1.9705,-1.9705,-1.9705,-1.9705,-1.9705,-1.9705,-1.9705,-1.9705,-1.9705,-1.9726,-1.9726,-1.9762,-1.9945,-2.0139,-2.0326,-2.0376,-2.0413,-2.0361,-2.0499,-2.0797,-2.083,-2.0799,-2.1038,-2.1323,-2.1601,-2.1844,-2.1903,-2.1903,-2.2123,-2.2254,-2.2152,-2.2152,-2.2299,-2.2327,-2.2299,-2.2299,-2.2327,-2.2327,-2.2327,-2.2327,-2.2327,-2.2327,-2.2327,-2.2327,-2.2327,-2.2327]}]]